[[{"header":{"parameterUnit":"m.s-1","parameterCategory":1,"la1":31.0,"la2":29.5877,"lo1":-88.7671,"lo2":-86.6584,"dy":0.0162,"dx":0.0185,"nx":115,"ny":88,"refTime":"2024-03-28T06:00:00:Z","depth":0,"parameterNumber":2,"parameterNumberName":"U-component_of_WINDS"},"data":[0.0,0.0,0.0,0.0,0.0,0.0,0.0,0.0,0.0,0.0,0.0,0.0,0.0,0.0,0.0,0.0,0.0,0.0,0.0,0.0,0.0,0.0,0.0,0.0,0.0,0.0,0.0,0.0,0.0,0.0,0.0,0.0,0.0,0.0,0.0,0.0,0.0,0.0,0.0,0.0,0.0,0.0,0.0,0.0,0.0,0.0,0.0,0.0,0.0,0.0,0.0,0.0,0.0,0.0,0.0,0.0,0.0,0.0,0.0,0.0,0.0,0.0,0.0,0.0,0.0,0.0,0.0,0.0,0.0,0.0,0.0,0.0,0.0,0.0,0.0,0.0,0.0,0.0,0.0,0.0,0.0,0.0,0.0,0.0,0.0,0.0,0.0,0.0,0.0,0.0,0.0,0.0,0.0,0.0,0.0,0.0,0.0,0.0,0.0,0.0,0.0,0.0,0.0,0.0,0.0,0.0,0.0,0.0,0.0,0.0,0.0,0.0,0.0,0.0,0.0,0.0,0.0,0.0,0.0,0.0,0.0,0.0,0.0,0.0,0.0,0.0,0.0,0.0,0.0,0.0,0.0,0.0,0.0,0.0,0.0,0.0,0.0,0.0,0.0,0.0,0.0,0.0,0.0,0.0,0.0,0.0,0.0,0.0,0.0,0.0,0.0,0.0,0.0,0.0,0.0,0.0,0.0,0.0,0.0,0.0,0.0,0.0,0.0,0.0,0.0,0.0,0.0,0.0,0.0,0.0,0.0,0.0,0.0,0.0,0.0,0.0,0.0,0.0,0.0,0.0,0.0,0.0,0.0,0.0,0.0,0.0,0.0,0.0,0.0,0.0,0.0,0.0,0.0,0.0,0.0,0.0,0.0,0.0,0.0,0.0,0.0,0.0,0.0,0.0,0.0,0.0,0.0,0.0,0.0,0.0,0.0,0.0,0.0,0.0,0.0,0.0,0.0,0.0,0.0,0.0,0.0,0.0,0.0,0.0,0.0,0.0,0.0,0.0,0.0,0.0,0.0,0.0,0.0,0.0,0.0,0.0,0.0,0.0,0.0,0.0,0.0,0.0,0.0,0.0,0.0,0.0,0.0,0.0,0.0,0.0,0.0,0.0,0.0,0.0,0.0,0.0,0.0,0.0,0.0,0.0,0.0,0.0,0.0,0.0,0.0,0.0,0.0,0.0,0.0,0.0,0.0,0.0,0.0,0.0,0.0,0.0,0.0,0.0,0.0,0.0,0.0,0.0,0.0,0.0,0.0,0.0,0.0,0.0,0.0,0.0,0.0,0.0,0.0,0.0,0.0,0.0,0.0,0.0,0.0,0.0,0.0,0.0,0.0,0.0,0.0,0.0,0.0,0.0,0.0,0.0,0.0,0.0,0.0,0.0,0.0,0.0,0.0,0.0,0.0,0.0,0.0,0.0,0.0,0.0,0.0,0.0,0.0,0.0,0.0,0.0,0.0,0.0,0.0,0.0,0.0,0.0,0.0,0.0,0.0,0.0,0.0,0.0,0.0,0.0,0.0,0.0,0.0,0.0,0.0,0.0,0.0,0.0,0.0,0.0,0.0,0.0,0.0,0.0,0.0,0.0,0.0,0.0,0.0,0.0,0.0,0.0,0.0,0.0,0.0,0.0,0.0,0.0,0.0,0.0,0.0,0.0,0.0,0.0,0.0,0.0,0.0,0.0,0.0,0.0,0.0,0.0,0.0,0.0,0.0,0.0,0.0,0.0,0.0,0.0,0.0,0.0,0.0,0.0,0.0,0.0,0.0,0.0,0.0,0.0,0.0,0.0,0.0,0.0,0.0,0.0,0.0,0.0,0.0,0.0,0.0,0.0,0.0,0.0,0.0,0.0,0.0,0.0,0.0,0.0,0.0,0.0,0.0,0.0,0.0,0.0,0.0,0.0,0.0,0.0,0.0,0.0,0.0,0.0,0.0,0.0,0.0,0.0,0.0,0.0,0.0,0.0,0.0,0.0,0.0,0.0,0.0,0.0,0.0,0.0,0.0,0.0,0.0,0.0,0.0,0.0,0.0,0.0,0.0,0.0,0.0,0.0,0.0,0.0,0.0,0.0,0.0,0.0,0.0,0.0,0.0,0.0,0.0,0.0,0.0,0.0,0.0,0.0,0.0,0.0,0.0,0.0,0.0,0.0,0.0,0.0,0.0,0.0,0.0,0.0,0.0,0.0,0.0,0.0,0.0,0.0,0.0,0.0,0.0,0.0,0.0,0.0,0.0,0.0,0.0,0.0,0.0,0.0,0.0,0.0,0.0,0.0,0.0,0.0,0.0,0.0,0.0,0.0,0.0,0.0,0.0,0.0,0.0,0.0,0.0,0.0,0.0,0.0,0.0,0.0,0.0,0.0,0.0,0.0,0.0,0.0,0.0,0.0,0.0,0.0,0.0,0.0,0.0,0.0,0.0,0.0,0.0,0.0,0.0,0.0,0.0,0.0,0.0,0.0,0.0,0.0,0.0,0.0,0.0,0.0,0.0,0.0,0.0,0.0,0.0,0.0,0.0,0.0,0.0,0.0,0.0,0.0,0.0,0.0,0.0,0.0,0.0,0.0,0.0,0.0,0.0,0.0,0.0,0.0,0.0,0.0,0.0,0.0,0.0,0.0,0.0,0.0,0.0,0.0,0.0,0.0,0.0,0.0,0.0,0.0,0.0,0.0,0.0,0.0,0.0,0.0,0.0,0.0,0.0,0.0,0.0,0.0,0.0,0.0,0.0,0.0,0.0,0.0,0.0,0.0,0.0,0.0,0.0,0.0,0.0,0.0,0.0,0.0,0.0,0.0,0.0,0.0,0.0,0.0,0.0,0.0,0.0,0.0,0.0,0.0,0.0,0.0,0.0,0.0,0.0,0.0,0.0,0.0,0.0,0.0,0.0,0.0,0.0,0.0,0.0,0.0,0.0,0.0,0.0,0.0,0.0,0.0,0.0,0.0,0.0,0.0,0.0,0.0,0.0,0.0,0.0,0.0,0.0,0.0,0.0,0.0,0.0,0.0,0.0,0.0,0.0,0.0,0.0,0.0,0.0,0.0,0.0,0.0,0.0,0.0,0.0,0.0,0.0,0.0,0.0,0.0,0.0,0.0,0.0,0.0,0.0,0.0,0.0,0.0,0.0,0.0,0.0,0.0,0.0,0.0,0.0,0.0,0.0,0.0,0.0,0.0,0.0,0.0,0.0,0.0,0.0,0.0,0.0,0.0,0.0,0.0,0.0,0.0,0.0,0.0,0.0,0.0,0.0,0.0,0.0,0.0,0.0,0.0,0.0,0.0,0.0,0.0,0.0,0.0,0.0,0.0,0.0,0.0,0.0,0.0,0.0,0.0,0.0,0.0,0.0,0.0,0.0,0.0,0.0,0.0,0.0,0.0,0.0,0.0,0.0,0.0,0.0,0.0,0.0,0.0,0.0,0.0,0.0,0.0,0.0,0.0,0.0,0.0,0.0,0.0,0.0,0.0,0.0,0.0,0.0,0.0,0.0,0.0,0.0,0.0,0.0,0.0,0.0,0.0,0.0,0.0,0.0,0.0,0.0,0.0,0.0,0.0,0.0,0.0,0.0,0.0,0.0,0.0,0.0,0.0,0.0,0.0,0.0,0.0,0.0,0.0,0.0,0.0,0.0,0.0,0.0,0.0,0.0,0.0,0.0,0.0,0.0,0.0,0.0,0.0,0.0,0.0,0.0,0.0,0.0,0.0,0.0,0.0,0.0,0.0,0.0,0.0,0.0,0.0,0.0,0.0,0.0,0.0,0.0,0.0,0.0,0.0,0.0,0.0,0.0,0.0,0.0,0.0,0.0,0.0,0.0,0.0,0.0,0.0,0.0,0.0,0.0,0.0,0.0,0.0,0.0,0.0,0.0,0.0,0.0,0.0,0.0,0.0,0.0,0.0,0.0,0.0,0.0,0.0,0.0,0.0,0.0,0.0,0.0,0.0,0.0,0.0,0.0,0.0,0.0,0.0,0.0,0.0,0.0,0.0,0.0,0.0,0.0,0.0,0.0,0.0,0.0,0.0,0.0,0.0,0.0,0.0,0.0,0.0,0.0,0.0,0.0,0.0,0.0,0.0,0.0,0.0,0.0,0.0,0.0,0.0,0.0,0.0,0.0,0.0,0.0,0.0,0.0,0.0,0.0,0.0,0.0,0.0,0.0,0.0,0.0,0.0,0.0,0.0,0.0,0.0,0.0,0.0,0.0,0.0,0.0,0.0,0.0,0.0,0.0,0.0,0.0,0.0,0.0,0.0,0.0,0.0,-3.0385,0.0,0.0,0.0,0.0,0.0,0.0,0.0,0.0,0.0,0.0,0.0,0.0,0.0,0.0,0.0,0.0,0.0,0.0,0.0,0.0,0.0,0.0,0.0,0.0,0.0,0.0,0.0,0.0,0.0,0.0,0.0,0.0,0.0,0.0,0.0,0.0,0.0,0.0,0.0,0.0,0.0,0.0,0.0,0.0,0.0,0.0,0.0,0.0,0.0,0.0,0.0,0.0,0.0,0.0,0.0,0.0,0.0,0.0,0.0,0.0,0.0,0.0,0.0,0.0,0.0,0.0,0.0,0.0,0.0,0.0,0.0,0.0,0.0,0.0,0.0,0.0,0.0,0.0,0.0,0.0,0.0,0.0,0.0,0.0,0.0,0.0,0.0,0.0,0.0,0.0,0.0,0.0,0.0,0.0,0.0,0.0,0.0,0.0,0.0,0.0,0.0,0.0,0.0,0.0,0.0,0.0,0.0,0.0,0.0,0.0,-3.04,-3.0404,-3.0404,-3.0404,-3.0385,0.0,0.0,0.0,0.0,0.0,0.0,0.0,0.0,0.0,0.0,0.0,0.0,0.0,0.0,0.0,0.0,0.0,0.0,0.0,0.0,0.0,0.0,0.0,0.0,0.0,0.0,0.0,0.0,0.0,0.0,0.0,0.0,0.0,0.0,0.0,0.0,0.0,0.0,0.0,0.0,0.0,0.0,0.0,0.0,0.0,0.0,0.0,0.0,0.0,0.0,0.0,0.0,0.0,0.0,0.0,0.0,0.0,0.0,0.0,0.0,0.0,0.0,0.0,0.0,0.0,0.0,0.0,0.0,0.0,0.0,0.0,0.0,0.0,0.0,0.0,0.0,0.0,0.0,0.0,0.0,0.0,0.0,0.0,0.0,0.0,0.0,0.0,0.0,0.0,0.0,0.0,0.0,0.0,0.0,0.0,0.0,0.0,0.0,0.0,0.0,0.0,0.0,0.0,0.0,0.0,0.0,0.0,0.0,0.0,0.0,0.0,0.0,-3.05,-3.0404,-3.0379,0.0,0.0,0.0,0.0,0.0,0.0,0.0,0.0,0.0,0.0,0.0,0.0,0.0,0.0,0.0,0.0,0.0,0.0,0.0,0.0,0.0,0.0,0.0,0.0,0.0,0.0,0.0,0.0,0.0,0.0,0.0,0.0,0.0,0.0,0.0,0.0,0.0,0.0,0.0,0.0,0.0,0.0,0.0,0.0,0.0,0.0,0.0,0.0,0.0,0.0,0.0,0.0,0.0,0.0,0.0,0.0,0.0,0.0,0.0,0.0,0.0,0.0,0.0,0.0,0.0,0.0,0.0,0.0,0.0,0.0,0.0,0.0,0.0,0.0,0.0,0.0,0.0,0.0,0.0,0.0,0.0,0.0,0.0,0.0,0.0,0.0,0.0,0.0,0.0,0.0,0.0,0.0,0.0,0.0,0.0,0.0,0.0,0.0,0.0,0.0,0.0,0.0,0.0,0.0,0.0,0.0,0.0,0.0,0.0,0.0,-3.0832,-3.1553,-3.0806,0.0,-3.0346,0.0,0.0,0.0,0.0,0.0,0.0,0.0,0.0,0.0,0.0,0.0,0.0,0.0,0.0,0.0,0.0,0.0,0.0,0.0,0.0,0.0,0.0,0.0,0.0,0.0,0.0,0.0,0.0,0.0,0.0,0.0,0.0,0.0,0.0,0.0,0.0,0.0,0.0,0.0,0.0,0.0,0.0,0.0,0.0,0.0,0.0,0.0,0.0,0.0,0.0,0.0,0.0,0.0,0.0,0.0,0.0,0.0,0.0,0.0,0.0,0.0,0.0,0.0,0.0,0.0,0.0,0.0,0.0,0.0,0.0,0.0,0.0,0.0,0.0,0.0,0.0,0.0,0.0,0.0,0.0,0.0,0.0,0.0,0.0,0.0,0.0,0.0,0.0,0.0,0.0,0.0,0.0,0.0,0.0,0.0,0.0,0.0,0.0,0.0,0.0,0.0,0.0,0.0,0.0,0.0,0.0,0.0,0.0,0.0,0.0,-3.0695,-3.0986,-3.0609,-3.0402,0.0,0.0,0.0,0.0,0.0,0.0,0.0,0.0,0.0,0.0,0.0,0.0,0.0,0.0,0.0,0.0,0.0,0.0,0.0,0.0,0.0,0.0,0.0,0.0,0.0,0.0,0.0,0.0,0.0,0.0,0.0,0.0,0.0,0.0,0.0,0.0,0.0,0.0,0.0,0.0,0.0,0.0,0.0,0.0,0.0,0.0,0.0,0.0,0.0,0.0,0.0,0.0,0.0,0.0,0.0,0.0,0.0,0.0,0.0,0.0,0.0,0.0,0.0,0.0,0.0,0.0,0.0,0.0,0.0,0.0,0.0,0.0,0.0,0.0,0.0,0.0,0.0,0.0,0.0,0.0,0.0,0.0,0.0,0.0,0.0,0.0,0.0,0.0,0.0,0.0,0.0,0.0,0.0,0.0,0.0,0.0,0.0,0.0,0.0,0.0,0.0,0.0,0.0,0.0,0.0,0.0,0.0,0.0,0.0,0.0,-3.0485,-3.0554,-3.05,-3.0901,-3.0881,-3.0423,0.0,0.0,0.0,0.0,0.0,0.0,0.0,0.0,0.0,0.0,0.0,0.0,0.0,0.0,0.0,0.0,0.0,0.0,0.0,0.0,0.0,0.0,0.0,0.0,0.0,0.0,0.0,0.0,0.0,0.0,0.0,0.0,0.0,0.0,0.0,0.0,0.0,0.0,0.0,0.0,0.0,0.0,0.0,0.0,0.0,0.0,0.0,0.0,0.0,0.0,0.0,0.0,0.0,0.0,0.0,0.0,0.0,0.0,0.0,0.0,0.0,0.0,0.0,0.0,0.0,0.0,0.0,0.0,0.0,0.0,0.0,0.0,0.0,0.0,0.0,0.0,0.0,0.0,0.0,0.0,0.0,0.0,0.0,0.0,0.0,0.0,0.0,0.0,0.0,0.0,0.0,0.0,0.0,0.0,0.0,0.0,0.0,0.0,0.0,0.0,0.0,0.0,0.0,0.0,0.0,0.0,0.0,0.0,-2.9464,-3.0226,-3.0549,-3.0447,-3.2022,-3.21,0.0,0.0,0.0,0.0,0.0,0.0,0.0,0.0,0.0,0.0,0.0,0.0,0.0,0.0,0.0,0.0,0.0,0.0,0.0,0.0,0.0,0.0,0.0,0.0,0.0,0.0,0.0,0.0,0.0,0.0,0.0,0.0,0.0,0.0,0.0,0.0,0.0,0.0,0.0,0.0,0.0,0.0,0.0,0.0,0.0,0.0,0.0,0.0,0.0,0.0,0.0,0.0,0.0,0.0,0.0,0.0,0.0,0.0,0.0,0.0,0.0,0.0,0.0,0.0,0.0,0.0,0.0,0.0,0.0,0.0,0.0,0.0,0.0,0.0,0.0,0.0,0.0,0.0,0.0,0.0,0.0,0.0,0.0,0.0,0.0,0.0,0.0,0.0,0.0,0.0,0.0,0.0,0.0,0.0,0.0,0.0,0.0,0.0,0.0,0.0,0.0,0.0,0.0,0.0,0.0,0.0,0.0,0.0,0.0,-2.9454,-3.0243,-3.06,-3.049,-3.1072,-3.0813,0.0,0.0,0.0,0.0,0.0,0.0,0.0,0.0,0.0,0.0,0.0,0.0,0.0,0.0,0.0,0.0,0.0,0.0,0.0,0.0,0.0,0.0,0.0,0.0,0.0,0.0,0.0,0.0,0.0,0.0,0.0,0.0,0.0,0.0,0.0,0.0,0.0,0.0,0.0,0.0,0.0,0.0,0.0,0.0,0.0,0.0,0.0,0.0,0.0,0.0,0.0,0.0,0.0,0.0,0.0,0.0,0.0,0.0,0.0,0.0,0.0,0.0,0.0,0.0,0.0,0.0,0.0,0.0,0.0,0.0,0.0,0.0,0.0,0.0,0.0,0.0,0.0,0.0,0.0,0.0,0.0,0.0,0.0,0.0,0.0,0.0,0.0,0.0,0.0,0.0,0.0,0.0,0.0,0.0,0.0,0.0,0.0,0.0,0.0,0.0,0.0,0.0,0.0,0.0,0.0,0.0,0.0,0.0,0.0,-2.9874,0.0,-3.1211,-3.0593,-3.107,-3.0667,0.0,0.0,0.0,0.0,0.0,0.0,0.0,0.0,0.0,0.0,0.0,0.0,0.0,0.0,0.0,0.0,0.0,0.0,0.0,0.0,0.0,0.0,0.0,0.0,0.0,0.0,0.0,0.0,0.0,0.0,0.0,0.0,0.0,0.0,0.0,0.0,0.0,0.0,0.0,0.0,0.0,0.0,0.0,0.0,0.0,0.0,0.0,0.0,0.0,0.0,0.0,0.0,0.0,0.0,0.0,0.0,0.0,0.0,0.0,0.0,0.0,0.0,0.0,0.0,0.0,0.0,0.0,0.0,0.0,0.0,0.0,0.0,0.0,0.0,0.0,0.0,0.0,0.0,0.0,0.0,0.0,0.0,0.0,0.0,0.0,0.0,0.0,0.0,0.0,0.0,0.0,0.0,0.0,0.0,0.0,0.0,0.0,0.0,0.0,0.0,0.0,0.0,0.0,0.0,0.0,0.0,0.0,0.0,-2.9127,-3.0686,-3.2285,-3.2287,-3.0718,-3.2158,-3.1813,0.0,0.0,0.0,0.0,0.0,0.0,0.0,0.0,0.0,0.0,0.0,0.0,0.0,0.0,0.0,0.0,0.0,0.0,0.0,0.0,0.0,0.0,0.0,0.0,0.0,0.0,0.0,0.0,0.0,0.0,0.0,0.0,0.0,0.0,0.0,0.0,0.0,0.0,0.0,0.0,0.0,0.0,0.0,0.0,0.0,0.0,0.0,0.0,0.0,0.0,0.0,0.0,0.0,0.0,0.0,0.0,0.0,0.0,0.0,0.0,0.0,0.0,0.0,0.0,0.0,0.0,0.0,0.0,0.0,0.0,0.0,0.0,0.0,0.0,0.0,0.0,0.0,0.0,0.0,0.0,0.0,0.0,0.0,0.0,0.0,0.0,0.0,0.0,0.0,0.0,0.0,0.0,0.0,0.0,0.0,0.0,0.0,0.0,0.0,0.0,0.0,0.0,0.0,0.0,0.0,0.0,0.0,0.0,0.0,-3.1636,-3.2116,-3.2116,-3.1551,-3.1952,-3.0969,0.0,0.0,0.0,0.0,0.0,0.0,0.0,0.0,0.0,0.0,0.0,0.0,0.0,0.0,0.0,0.0,0.0,0.0,0.0,0.0,0.0,0.0,0.0,0.0,0.0,0.0,0.0,0.0,0.0,0.0,0.0,0.0,0.0,0.0,0.0,0.0,0.0,0.0,0.0,0.0,0.0,0.0,0.0,0.0,0.0,0.0,0.0,0.0,0.0,0.0,0.0,0.0,0.0,0.0,0.0,0.0,0.0,0.0,0.0,0.0,0.0,0.0,0.0,0.0,0.0,0.0,0.0,0.0,0.0,0.0,0.0,0.0,0.0,0.0,0.0,0.0,0.0,0.0,0.0,0.0,0.0,0.0,0.0,0.0,0.0,0.0,0.0,0.0,0.0,0.0,0.0,0.0,0.0,0.0,0.0,0.0,0.0,0.0,0.0,0.0,0.0,0.0,0.0,0.0,0.0,0.0,0.0,0.0,0.0,-3.3464,-3.3497,-3.3284,-3.2932,-3.2841,-3.1579,-2.9038,0.0,0.0,0.0,0.0,0.0,0.0,0.0,0.0,0.0,0.0,0.0,0.0,0.0,0.0,0.0,0.0,0.0,0.0,0.0,0.0,0.0,0.0,0.0,0.0,0.0,0.0,0.0,0.0,0.0,0.0,0.0,0.0,0.0,0.0,0.0,0.0,0.0,0.0,0.0,0.0,0.0,0.0,0.0,0.0,0.0,0.0,0.0,0.0,0.0,0.0,0.0,0.0,0.0,0.0,0.0,0.0,0.0,0.0,0.0,0.0,0.0,0.0,0.0,0.0,0.0,0.0,0.0,0.0,0.0,0.0,0.0,0.0,0.0,0.0,0.0,0.0,0.0,0.0,0.0,0.0,0.0,0.0,0.0,0.0,0.0,0.0,0.0,0.0,0.0,0.0,0.0,0.0,0.0,0.0,0.0,0.0,0.0,0.0,0.0,0.0,0.0,0.0,0.0,0.0,0.0,0.0,0.0,0.0,-3.6042,-3.6101,-3.5641,-3.4678,-3.4598,-3.3319,0.0,0.0,0.0,0.0,0.0,0.0,0.0,0.0,0.0,0.0,0.0,0.0,0.0,0.0,0.0,0.0,0.0,0.0,0.0,0.0,0.0,0.0,0.0,0.0,0.0,0.0,0.0,0.0,0.0,0.0,0.0,0.0,0.0,0.0,0.0,0.0,0.0,0.0,0.0,0.0,0.0,0.0,0.0,0.0,0.0,0.0,0.0,0.0,0.0,0.0,0.0,0.0,0.0,0.0,0.0,0.0,0.0,0.0,0.0,0.0,0.0,0.0,0.0,0.0,0.0,0.0,0.0,0.0,0.0,0.0,0.0,0.0,0.0,0.0,0.0,0.0,0.0,0.0,0.0,0.0,0.0,0.0,0.0,0.0,0.0,0.0,0.0,0.0,0.0,0.0,0.0,0.0,0.0,0.0,0.0,0.0,0.0,0.0,0.0,0.0,0.0,0.0,0.0,0.0,0.0,0.0,0.0,0.0,0.0,-3.691,-3.8162,-3.7752,-3.5655,-3.5496,-3.3943,0.0,0.0,0.0,0.0,0.0,0.0,0.0,0.0,0.0,0.0,0.0,0.0,0.0,0.0,0.0,0.0,0.0,0.0,0.0,0.0,0.0,0.0,0.0,0.0,0.0,0.0,0.0,0.0,0.0,0.0,0.0,0.0,0.0,0.0,0.0,0.0,0.0,0.0,0.0,0.0,0.0,0.0,0.0,0.0,0.0,0.0,0.0,0.0,0.0,0.0,0.0,0.0,0.0,0.0,0.0,0.0,0.0,0.0,0.0,0.0,0.0,0.0,0.0,0.0,0.0,0.0,0.0,0.0,0.0,0.0,0.0,0.0,0.0,0.0,0.0,0.0,0.0,0.0,0.0,0.0,0.0,0.0,0.0,0.0,0.0,0.0,0.0,0.0,0.0,0.0,0.0,0.0,0.0,0.0,0.0,0.0,0.0,0.0,0.0,0.0,0.0,0.0,0.0,0.0,0.0,0.0,0.0,0.0,-3.5897,-3.8337,-3.9656,-3.9634,-3.8124,-3.6933,-3.5061,0.0,0.0,0.0,0.0,0.0,0.0,0.0,0.0,0.0,0.0,0.0,0.0,0.0,0.0,0.0,0.0,0.0,0.0,0.0,0.0,0.0,0.0,0.0,0.0,0.0,0.0,0.0,0.0,0.0,0.0,0.0,0.0,0.0,0.0,0.0,0.0,0.0,0.0,0.0,0.0,0.0,0.0,0.0,0.0,0.0,0.0,0.0,0.0,0.0,0.0,0.0,0.0,0.0,0.0,0.0,0.0,0.0,0.0,0.0,0.0,0.0,0.0,0.0,0.0,0.0,0.0,0.0,0.0,0.0,0.0,0.0,0.0,0.0,0.0,0.0,0.0,0.0,0.0,0.0,0.0,0.0,0.0,0.0,0.0,0.0,0.0,0.0,0.0,0.0,0.0,0.0,0.0,0.0,0.0,0.0,0.0,0.0,0.0,0.0,0.0,0.0,0.0,0.0,0.0,0.0,0.0,0.0,0.0,-3.6483,-3.9823,-4.0774,-4.1233,-4.116,-3.8725,-3.6485,0.0,0.0,0.0,0.0,0.0,0.0,0.0,0.0,0.0,0.0,0.0,0.0,0.0,0.0,0.0,0.0,0.0,0.0,0.0,0.0,0.0,0.0,0.0,0.0,0.0,0.0,0.0,0.0,0.0,0.0,0.0,0.0,0.0,0.0,0.0,0.0,0.0,0.0,0.0,0.0,0.0,0.0,0.0,0.0,0.0,0.0,0.0,0.0,0.0,0.0,0.0,0.0,0.0,0.0,0.0,0.0,0.0,0.0,0.0,0.0,0.0,0.0,0.0,0.0,0.0,0.0,0.0,0.0,0.0,0.0,0.0,0.0,0.0,0.0,0.0,0.0,0.0,0.0,0.0,0.0,0.0,0.0,0.0,0.0,0.0,0.0,0.0,0.0,0.0,0.0,0.0,0.0,0.0,0.0,0.0,0.0,0.0,0.0,0.0,0.0,0.0,0.0,0.0,0.0,0.0,0.0,0.0,0.0,-3.707,-3.9844,-4.1346,-4.2124,-4.2099,-4.0246,-3.7759,0.0,0.0,0.0,0.0,0.0,0.0,0.0,0.0,0.0,0.0,0.0,0.0,0.0,0.0,0.0,0.0,0.0,0.0,0.0,0.0,0.0,0.0,0.0,0.0,0.0,0.0,0.0,0.0,0.0,0.0,0.0,0.0,0.0,0.0,0.0,0.0,0.0,0.0,0.0,0.0,0.0,0.0,0.0,0.0,0.0,0.0,0.0,0.0,-2.5217,0.0,0.0,0.0,0.0,0.0,0.0,0.0,0.0,0.0,0.0,0.0,0.0,0.0,0.0,0.0,0.0,0.0,0.0,0.0,0.0,0.0,0.0,0.0,0.0,0.0,0.0,0.0,0.0,0.0,0.0,0.0,0.0,0.0,0.0,0.0,0.0,0.0,0.0,0.0,0.0,0.0,0.0,0.0,0.0,0.0,0.0,0.0,0.0,0.0,0.0,0.0,0.0,0.0,0.0,0.0,0.0,0.0,0.0,0.0,-3.7461,-4.041,-4.1757,-4.2577,-4.2906,-4.0938,-3.837,0.0,0.0,0.0,0.0,0.0,0.0,0.0,0.0,0.0,0.0,0.0,0.0,0.0,0.0,0.0,0.0,0.0,0.0,0.0,0.0,0.0,0.0,0.0,0.0,0.0,0.0,0.0,0.0,0.0,0.0,0.0,0.0,0.0,0.0,0.0,0.0,0.0,0.0,0.0,0.0,0.0,0.0,0.0,0.0,0.0,0.0,0.0,0.0,0.0,0.0,0.0,0.0,0.0,0.0,0.0,0.0,0.0,0.0,0.0,0.0,0.0,0.0,0.0,0.0,0.0,0.0,0.0,0.0,0.0,0.0,0.0,0.0,0.0,0.0,0.0,0.0,0.0,0.0,0.0,0.0,0.0,0.0,0.0,0.0,0.0,0.0,0.0,0.0,0.0,0.0,0.0,0.0,0.0,0.0,0.0,0.0,0.0,0.0,0.0,0.0,0.0,0.0,0.0,0.0,0.0,0.0,0.0,-3.4531,-3.7891,-4.123,-4.2051,-4.2754,-4.3436,-4.0991,-3.8323,-3.5598,0.0,0.0,0.0,0.0,0.0,0.0,0.0,0.0,0.0,0.0,0.0,0.0,0.0,0.0,0.0,0.0,0.0,0.0,0.0,0.0,0.0,0.0,0.0,0.0,0.0,0.0,0.0,0.0,0.0,0.0,0.0,0.0,0.0,0.0,0.0,0.0,0.0,0.0,-2.3331,-2.4615,0.0,0.0,0.0,0.0,0.0,0.0,0.0,0.0,-2.5434,0.0,0.0,0.0,0.0,0.0,0.0,0.0,0.0,0.0,0.0,0.0,0.0,0.0,0.0,0.0,0.0,0.0,0.0,0.0,0.0,0.0,0.0,0.0,0.0,0.0,0.0,0.0,0.0,0.0,0.0,0.0,0.0,0.0,0.0,0.0,0.0,0.0,0.0,0.0,0.0,0.0,0.0,0.0,0.0,0.0,0.0,0.0,0.0,0.0,0.0,0.0,0.0,0.0,0.0,0.0,0.0,-3.2969,-3.5703,-3.875,-4.209,-4.2324,-4.248,-4.2519,-4.0136,-3.7242,-3.3975,0.0,0.0,0.0,0.0,0.0,0.0,0.0,0.0,0.0,0.0,0.0,0.0,0.0,0.0,0.0,0.0,0.0,0.0,0.0,0.0,0.0,0.0,0.0,0.0,0.0,0.0,0.0,0.0,0.0,0.0,0.0,0.0,0.0,0.0,0.0,0.0,0.0,0.0,0.0,-2.6217,-2.6659,0.0,0.0,0.0,0.0,0.0,0.0,0.0,0.0,-2.6071,0.0,0.0,0.0,0.0,0.0,0.0,0.0,0.0,0.0,0.0,0.0,0.0,0.0,0.0,0.0,0.0,0.0,0.0,0.0,0.0,0.0,0.0,0.0,0.0,0.0,0.0,0.0,0.0,0.0,0.0,0.0,0.0,0.0,0.0,0.0,0.0,0.0,0.0,0.0,0.0,0.0,0.0,0.0,0.0,0.0,0.0,0.0,0.0,0.0,0.0,0.0,0.0,0.0,0.0,0.0,-3.209,-3.5098,-3.8066,-4.0996,-4.1543,-4.1777,-4.1719,-3.9277,-3.6483,0.0,0.0,0.0,0.0,0.0,0.0,0.0,0.0,0.0,0.0,0.0,0.0,0.0,0.0,0.0,0.0,0.0,0.0,0.0,0.0,0.0,0.0,0.0,0.0,0.0,0.0,0.0,0.0,0.0,0.0,0.0,0.0,0.0,0.0,0.0,0.0,0.0,0.0,0.0,0.0,-2.6621,-2.6909,-2.778,0.0,0.0,0.0,0.0,0.0,0.0,-2.7338,-2.6795,0.0,0.0,0.0,0.0,0.0,0.0,0.0,0.0,0.0,0.0,0.0,0.0,0.0,0.0,0.0,0.0,0.0,0.0,0.0,0.0,0.0,0.0,0.0,0.0,0.0,0.0,0.0,0.0,0.0,0.0,0.0,0.0,0.0,0.0,0.0,0.0,0.0,0.0,0.0,0.0,0.0,0.0,0.0,0.0,0.0,0.0,0.0,0.0,0.0,0.0,0.0,0.0,0.0,0.0,0.0,-3.1406,-3.4609,-3.7539,-4.0059,-4.084,-4.1113,-4.0898,-3.8398,-3.5741,0.0,0.0,0.0,0.0,0.0,0.0,0.0,0.0,0.0,0.0,0.0,0.0,0.0,0.0,0.0,0.0,0.0,0.0,0.0,0.0,0.0,0.0,0.0,0.0,0.0,0.0,0.0,0.0,0.0,0.0,0.0,0.0,0.0,0.0,0.0,0.0,0.0,0.0,0.0,0.0,0.0,-2.7294,-2.8486,-2.8659,0.0,0.0,0.0,0.0,-2.8822,-2.8434,0.0,0.0,0.0,0.0,0.0,0.0,0.0,0.0,0.0,0.0,0.0,0.0,0.0,0.0,0.0,0.0,0.0,0.0,0.0,0.0,0.0,0.0,0.0,0.0,0.0,0.0,0.0,0.0,0.0,0.0,0.0,0.0,0.0,0.0,0.0,0.0,0.0,0.0,0.0,0.0,0.0,0.0,0.0,0.0,0.0,0.0,0.0,0.0,0.0,0.0,0.0,0.0,0.0,0.0,0.0,0.0,-3.3066,-3.5762,-3.8418,-4.0898,-4.1152,-4.084,-4.0039,-3.7519,-3.457,0.0,0.0,0.0,0.0,0.0,0.0,0.0,0.0,0.0,0.0,0.0,0.0,0.0,0.0,0.0,0.0,0.0,0.0,0.0,0.0,0.0,0.0,0.0,0.0,0.0,0.0,0.0,0.0,0.0,0.0,0.0,0.0,0.0,0.0,0.0,0.0,0.0,0.0,0.0,0.0,0.0,-2.8602,-3.0948,-3.1275,-3.1506,0.0,0.0,-3.2269,-3.2229,-3.091,0.0,0.0,0.0,0.0,0.0,0.0,0.0,0.0,0.0,0.0,0.0,0.0,0.0,0.0,0.0,0.0,0.0,0.0,0.0,0.0,0.0,0.0,0.0,0.0,0.0,0.0,0.0,0.0,0.0,0.0,0.0,0.0,0.0,0.0,0.0,0.0,0.0,0.0,0.0,0.0,0.0,0.0,0.0,0.0,0.0,0.0,0.0,0.0,0.0,0.0,0.0,0.0,0.0,0.0,0.0,-2.8535,-3.1953,-3.5,-3.7598,-3.9648,-4.0195,-4.0058,-3.9179,-3.6621,-3.3886,0.0,0.0,0.0,0.0,0.0,0.0,0.0,0.0,0.0,0.0,0.0,0.0,0.0,0.0,0.0,0.0,0.0,0.0,0.0,0.0,0.0,0.0,0.0,0.0,0.0,0.0,0.0,0.0,0.0,0.0,0.0,0.0,0.0,0.0,0.0,0.0,0.0,0.0,0.0,0.0,0.0,0.0,-3.141,-3.2506,0.0,0.0,0.0,-3.3589,-3.3548,0.0,0.0,0.0,0.0,0.0,0.0,0.0,0.0,0.0,0.0,0.0,0.0,0.0,0.0,0.0,0.0,0.0,0.0,0.0,0.0,0.0,0.0,0.0,0.0,0.0,0.0,0.0,0.0,0.0,0.0,0.0,0.0,0.0,0.0,0.0,0.0,0.0,0.0,0.0,0.0,0.0,0.0,0.0,0.0,0.0,0.0,0.0,0.0,0.0,0.0,0.0,0.0,0.0,0.0,0.0,0.0,0.0,-3.0878,-3.4258,-3.6836,-3.8555,-3.9453,-3.9491,-3.8591,-3.6052,0.0,0.0,0.0,0.0,0.0,0.0,0.0,0.0,0.0,0.0,0.0,0.0,0.0,0.0,0.0,0.0,0.0,0.0,0.0,0.0,0.0,0.0,0.0,0.0,0.0,0.0,0.0,-1.1919,0.0,0.0,0.0,0.0,0.0,0.0,0.0,0.0,0.0,0.0,0.0,0.0,0.0,0.0,-3.0121,-3.2064,-3.3583,-3.4661,0.0,0.0,-3.4801,-3.4767,-3.3278,-3.1567,0.0,0.0,0.0,0.0,0.0,0.0,0.0,0.0,0.0,0.0,0.0,0.0,0.0,0.0,0.0,0.0,0.0,0.0,0.0,0.0,0.0,0.0,0.0,0.0,0.0,0.0,0.0,0.0,0.0,0.0,0.0,0.0,0.0,0.0,0.0,0.0,0.0,0.0,0.0,0.0,0.0,0.0,0.0,0.0,0.0,0.0,0.0,0.0,0.0,0.0,0.0,0.0,0.0,0.0,0.0,-3.0878,-3.4256,-3.6834,-3.8553,-3.9449,-3.9466,-3.8582,-3.6082,-3.3485,0.0,0.0,0.0,0.0,0.0,0.0,0.0,0.0,0.0,0.0,0.0,0.0,0.0,0.0,0.0,0.0,0.0,0.0,0.0,0.0,0.0,0.0,0.0,0.0,0.0,0.0,0.0,0.0,0.0,0.0,0.0,0.0,0.0,0.0,0.0,0.0,0.0,0.0,0.0,0.0,0.0,-3.1212,-3.368,-3.4814,-3.5962,0.0,0.0,-3.6531,-3.6514,-3.5048,-3.3343,-3.1616,0.0,0.0,0.0,0.0,0.0,0.0,0.0,0.0,0.0,0.0,0.0,0.0,0.0,0.0,0.0,0.0,0.0,0.0,0.0,0.0,0.0,0.0,0.0,0.0,0.0,0.0,0.0,0.0,0.0,0.0,0.0,0.0,0.0,0.0,0.0,0.0,0.0,0.0,0.0,0.0,0.0,0.0,0.0,0.0,0.0,0.0,0.0,0.0,0.0,0.0,0.0,0.0,0.0,-2.7391,-3.0812,-3.3704,-3.6302,-3.8469,-3.8406,-3.8378,-3.8521,-3.5536,-3.2937,0.0,0.0,0.0,0.0,0.0,0.0,0.0,0.0,0.0,0.0,0.0,0.0,0.0,0.0,0.0,0.0,0.0,0.0,0.0,0.0,0.0,0.0,0.0,0.0,0.0,0.0,0.0,0.0,-1.4508,-1.4919,-1.5238,0.0,0.0,0.0,0.0,0.0,0.0,0.0,0.0,0.0,0.0,-3.2135,-3.4641,-3.618,0.0,0.0,-3.8046,-3.75,-3.7485,-3.5587,-3.3524,-3.184,-3.0494,0.0,0.0,0.0,0.0,0.0,0.0,0.0,0.0,0.0,0.0,0.0,0.0,0.0,0.0,0.0,0.0,0.0,0.0,0.0,0.0,0.0,0.0,0.0,0.0,0.0,0.0,0.0,0.0,0.0,0.0,0.0,0.0,0.0,0.0,0.0,0.0,0.0,0.0,0.0,0.0,0.0,0.0,0.0,0.0,0.0,0.0,0.0,0.0,0.0,0.0,0.0,0.0,-2.7379,-3.078,-3.3358,-3.5819,-3.8123,-3.7586,-3.7531,-3.7976,-3.5013,-3.255,0.0,0.0,0.0,0.0,0.0,0.0,0.0,0.0,0.0,0.0,0.0,0.0,0.0,0.0,0.0,0.0,0.0,0.0,0.0,0.0,0.0,0.0,0.0,0.0,0.0,0.0,0.0,0.0,-1.4957,-1.5287,-1.5289,0.0,0.0,0.0,0.0,0.0,0.0,0.0,0.0,0.0,0.0,-3.2987,-3.55,-3.7096,-3.8315,-3.9188,-3.8565,-3.7911,-3.7661,-3.5871,-3.4024,-3.2577,0.0,0.0,0.0,0.0,0.0,0.0,0.0,0.0,0.0,0.0,0.0,0.0,0.0,0.0,0.0,0.0,0.0,0.0,0.0,0.0,0.0,0.0,0.0,0.0,0.0,0.0,0.0,0.0,0.0,0.0,0.0,0.0,0.0,0.0,0.0,0.0,0.0,0.0,0.0,0.0,0.0,0.0,0.0,0.0,0.0,0.0,0.0,0.0,0.0,0.0,0.0,0.0,0.0,-2.7404,-3.0744,-3.3354,-3.552,-3.7178,-3.721,-3.7163,-3.7111,-3.4637,-3.2474,-3.0655,0.0,0.0,0.0,0.0,0.0,0.0,0.0,0.0,0.0,0.0,0.0,0.0,0.0,0.0,0.0,0.0,0.0,0.0,0.0,0.0,0.0,0.0,0.0,0.0,0.0,0.0,-1.5256,-1.5341,-1.5305,0.0,0.0,0.0,0.0,0.0,0.0,0.0,0.0,0.0,0.0,-3.0775,-3.3795,-3.6327,-3.743,-3.8315,-3.9161,-3.8565,-3.7719,-3.6865,-3.6019,-3.5166,0.0,0.0,0.0,0.0,0.0,0.0,0.0,0.0,0.0,0.0,0.0,0.0,0.0,0.0,0.0,0.0,0.0,0.0,0.0,0.0,0.0,0.0,0.0,0.0,0.0,0.0,0.0,-2.0374,-1.9913,0.0,0.0,0.0,0.0,0.0,0.0,0.0,0.0,0.0,0.0,0.0,-2.6626,-2.689,0.0,0.0,0.0,0.0,0.0,0.0,0.0,0.0,0.0,0.0,0.0,0.0,-2.7907,-3.0728,-3.2742,-3.4859,-3.7046,-3.6559,-3.6522,-3.6986,-3.4559,-3.1623,-2.8196,0.0,0.0,0.0,0.0,0.0,0.0,0.0,0.0,0.0,0.0,0.0,0.0,0.0,0.0,0.0,0.0,0.0,0.0,0.0,0.0,0.0,0.0,0.0,0.0,0.0,-1.4443,0.0,0.0,0.0,0.0,0.0,0.0,0.0,0.0,0.0,0.0,0.0,-2.8198,-3.0179,-3.2352,-3.468,-3.7219,-3.7815,-3.8315,0.0,0.0,0.0,0.0,0.0,0.0,0.0,0.0,0.0,0.0,0.0,0.0,0.0,0.0,-2.6086,-2.3861,-2.3437,-2.3391,-2.34,0.0,0.0,0.0,0.0,0.0,0.0,0.0,0.0,0.0,0.0,0.0,0.0,0.0,0.0,0.0,0.0,-2.2385,0.0,0.0,0.0,0.0,0.0,0.0,0.0,0.0,-2.7311,-2.8313,-2.9181,-2.95,-2.9486,0.0,-2.864,-2.7217,0.0,0.0,0.0,0.0,0.0,0.0,0.0,0.0,-2.8287,-3.1102,-3.2561,-3.4357,-3.646,-3.603,-3.5985,-3.6448,-3.4028,-3.1118,-2.7783,-2.5764,-2.3831,0.0,0.0,0.0,0.0,0.0,0.0,0.0,0.0,0.0,0.0,0.0,0.0,0.0,0.0,0.0,0.0,0.0,0.0,0.0,0.0,0.0,0.0,0.0,-1.5696,0.0,0.0,0.0,0.0,0.0,0.0,0.0,0.0,0.0,-2.3713,-2.6665,-2.9503,-3.1447,-3.3128,-3.5013,-3.7238,0.0,0.0,0.0,0.0,0.0,0.0,0.0,-3.5327,-3.4737,-3.4595,-3.4162,-3.2991,-3.2135,-3.1457,-3.0979,0.0,0.0,-2.6536,-2.5919,-2.5868,-2.5878,-2.5826,-2.5737,-2.5623,-2.5907,-2.6195,0.0,0.0,0.0,0.0,0.0,0.0,0.0,0.0,-2.463,-2.4681,0.0,-2.4773,0.0,0.0,0.0,0.0,0.0,0.0,0.0,0.0,-2.9615,-3.0874,-3.168,-3.2539,-3.2538,-3.1788,-3.1731,-3.0833,-2.903,-2.5919,0.0,0.0,0.0,0.0,0.0,0.0,-2.8526,-3.1786,-3.2751,-3.4017,-3.5626,-3.5634,-3.5577,-3.5446,-3.3142,-3.1047,-2.9303,-2.6943,-2.5226,-2.4316,-2.1911,0.0,0.0,0.0,0.0,0.0,0.0,0.0,0.0,0.0,0.0,0.0,0.0,0.0,0.0,0.0,0.0,0.0,0.0,0.0,0.0,-1.699,0.0,0.0,0.0,0.0,0.0,0.0,0.0,0.0,0.0,0.0,-2.564,-2.8395,-3.0788,-3.1688,0.0,0.0,0.0,0.0,-3.675,-3.6846,-3.6788,-3.6538,-3.575,-3.5615,-3.5596,-3.5596,0.0,0.0,-3.5288,-3.5166,-3.4727,-3.38,-3.3448,-3.2474,-2.9843,-2.9147,-2.8987,-2.9005,-2.8915,-2.8918,-2.8864,-2.8639,-2.8773,-3.2572,0.0,0.0,0.0,0.0,-2.7711,-2.7762,-2.7793,-2.7828,-2.784,-2.784,-2.7391,0.0,0.0,0.0,0.0,0.0,0.0,-2.938,-3.0354,-3.2076,-3.3027,-3.3324,-3.4196,-3.4194,-3.3434,-3.3422,-3.2551,-3.0968,-2.9987,-2.8151,-2.5577,0.0,0.0,0.0,0.0,-2.9601,-3.1729,-3.2687,-3.3933,-3.5602,-3.5626,-3.4992,-3.3786,-3.3047,-3.1582,-2.9312,-2.8526,-2.7196,-2.517,-2.3244,0.0,0.0,0.0,0.0,0.0,0.0,0.0,0.0,0.0,0.0,0.0,0.0,0.0,0.0,0.0,0.0,0.0,0.0,0.0,-1.7109,-1.7714,-1.8006,0.0,0.0,0.0,0.0,0.0,0.0,0.0,0.0,0.0,-2.9102,-3.0458,-3.1943,0.0,0.0,-3.574,-3.7408,-3.7637,-3.7834,-3.845,0.0,0.0,0.0,-3.7296,-3.7296,-3.7296,-3.7228,-3.7149,-3.7072,-3.699,-3.6768,-3.6279,-3.6083,-3.548,-3.4008,-3.2076,-3.087,-3.0736,-3.0693,-3.0668,-3.0594,-3.048,-3.0435,-3.6541,-3.4591,-3.2504,-3.1372,-3.0986,-3.0968,-3.098,-3.1034,-3.1052,-3.0891,-3.0582,-3.0198,-2.941,-2.8337,-2.7932,0.0,0.0,0.0,-3.1777,-3.2691,-3.416,-3.5047,-3.5405,-3.5996,-3.6044,-3.5557,-3.5234,-3.4419,-3.3154,-3.2814,-3.1462,-2.9118,0.0,0.0,-2.7735,-2.9043,-3.0568,-3.2225,-3.3101,-3.4189,-3.5526,-3.5554,-3.4732,-3.3038,-3.2961,-3.1946,-2.9762,-2.9364,-2.8324,-2.6461,-2.4795,-2.2977,0.0,0.0,0.0,0.0,0.0,0.0,0.0,0.0,0.0,0.0,0.0,-1.244,-1.33,0.0,0.0,0.0,-1.6562,-1.7891,-1.8926,-1.9648,0.0,0.0,0.0,0.0,0.0,0.0,0.0,-2.6961,-2.8809,-3.0535,-3.2029,-3.2644,-3.3398,-3.4696,-3.5538,-3.653,-3.788,0.0,-3.8229,-3.8748,-3.8811,-3.8604,-3.8084,-3.8007,-3.8123,-3.8469,-3.8477,-3.8565,-3.8843,-3.8779,-3.8509,-3.805,-3.7799,-3.7254,-3.5925,-3.4257,-3.2945,-3.2501,-3.239,-3.2351,-3.2279,-3.2182,-3.2106,-4.0155,-3.9769,-3.5973,-3.4284,-3.41,-3.4082,-3.4045,-3.4009,-3.4044,-3.3666,-3.2998,-3.2975,-3.2133,-3.0701,-3.0813,0.0,0.0,-3.2806,-3.4007,-3.4907,-3.5979,-3.6844,-3.7576,-3.784,-3.7929,-3.7861,-3.7135,-3.6358,-3.5564,-3.4707,-3.389,-3.3038,-3.0735,-2.9558,-2.9545,-3.0298,-3.1491,-3.3078,-3.3813,-3.4623,-3.5464,-3.5424,-3.4584,-3.2949,-3.2852,-3.2038,-3.0469,-2.9622,-2.8785,-2.7909,-2.6283,-2.4261,-2.1813,0.0,0.0,0.0,0.0,0.0,0.0,0.0,0.0,0.0,0.0,0.0,0.0,0.0,0.0,0.0,-1.9219,0.0,-2.0898,-2.2344,0.0,0.0,0.0,-2.4626,-2.4717,-2.6233,-2.7923,-2.9528,0.0,0.0,0.0,0.0,-3.5076,-3.5825,-3.6488,-3.7241,-3.8156,-3.8267,-3.8239,-3.8432,-3.8294,-3.8245,-3.8399,-3.8354,-3.8584,-3.9277,-3.9342,-3.9561,-4.0205,-4.0266,-3.988,-3.9128,-3.8801,-3.8072,-3.6257,-3.5712,-3.5274,-3.4053,-3.3852,-3.3818,-3.3625,-3.3584,-3.3478,-4.2284,-4.1589,-4.0013,-3.8303,-3.6629,-3.6629,-3.6281,-3.5716,-3.573,-3.5634,-3.5395,-3.4806,-3.4013,-3.3136,-3.3192,-3.3562,-3.4241,-3.4758,-3.5457,-3.6351,-3.7461,-3.8091,-3.831,-3.9093,-3.9156,-3.8575,-3.8422,-3.7969,-3.7215,-3.6342,-3.5557,-3.4786,-3.3551,-3.2628,-3.2057,-3.223,-3.2852,-3.3904,-3.4103,-3.4635,-3.5443,-3.484,-3.3987,-3.2929,-3.2314,-3.1487,-3.0435,-2.9575,-2.8733,-2.7911,-2.6294,-2.4531,-2.2608,-2.073,0.0,0.0,0.0,0.0,0.0,0.0,0.0,0.0,0.0,-1.5418,-1.6968,0.0,-1.8457,0.0,-2.0449,-2.2109,-2.3379,-2.3867,0.0,0.0,-2.5859,-2.6659,-2.7303,-2.8879,-3.0299,-3.1371,-3.2828,-3.3986,-3.4608,-3.5797,-3.6893,-3.7686,-3.7335,-3.7505,-3.8919,-3.9154,-3.9348,-3.9901,-3.9962,-3.9976,-3.9918,-3.9934,-3.9938,-4.0189,-4.0181,-4.0273,-4.0471,-4.0458,-4.0302,-3.9918,-3.93,-3.8364,-3.7127,-3.6354,-3.5473,-3.448,-3.4049,-3.3913,-3.3855,-3.378,-3.3684,-4.3571,-4.28,-4.2359,-4.1185,-3.9604,-3.9258,-3.8652,-3.7915,-3.7915,-3.7496,-3.6795,-3.5978,-3.5418,-3.5022,-3.5045,-3.5343,-3.5808,-3.6292,-3.6805,-3.7348,-3.8377,-3.8881,-3.8905,-3.9554,-3.9635,-3.9182,-3.8933,-3.8623,-3.8221,-3.7362,-3.6602,-3.5902,-3.5411,-3.4762,-3.3991,-3.3647,-3.3725,-3.4205,-3.4584,-3.5019,-3.5462,-3.4661,-3.3782,-3.291,-3.2122,-3.1288,-3.0442,-2.9929,-2.914,-2.7953,-2.7001,-2.5563,-2.3473,-2.2125,-2.0666,0.0,0.0,0.0,0.0,0.0,0.0,0.0,0.0,0.0,0.0,0.0,-2.0563,0.0,-2.2578,0.0,-2.4902,-2.5664,-2.6484,-2.7344,-2.8223,-2.9082,-2.9901,-3.1149,-3.228,-3.3157,-3.4091,-3.4847,-3.5228,-3.6084,-3.7131,-3.8317,-3.8011,-3.8284,-3.9776,-4.0084,-4.0209,-4.0667,-4.0674,-4.0624,-4.0595,-4.0573,-4.0531,-4.0496,-4.0496,-4.0508,-4.0476,-4.0172,-3.9893,-3.9721,-3.901,-3.8051,-3.71,-3.6429,-3.5668,-3.4761,-3.4281,-3.4086,-3.3934,-3.3847,-3.378,-4.4323,-4.3497,-4.3479,-4.3111,-4.2415,-4.1717,-4.0891,-4.0029,-3.9937,-3.9053,-3.7621,-3.6909,-3.6597,-3.6611,-3.6669,-3.6697,-3.6752,-3.7539,-3.7951,-3.8071,-3.8875,-3.9285,-3.9369,-3.9544,-3.964,-3.9621,-3.9063,-3.886,-3.8906,-3.8031,-3.7328,-3.6793,-3.6687,-3.6233,-3.5465,-3.4836,-3.4455,-3.4379,-3.5115,-3.55,-3.5481,-3.4526,-3.3686,-3.291,-3.2006,-3.1179,-3.0442,-3.0288,-2.9525,-2.8011,-2.778,-2.6626,-2.4245,-2.3398,-2.2278,0.0,-1.9808,0.0,0.0,0.0,0.0,0.0,0.0,0.0,0.0,-2.133,-2.2706,-2.3689,-2.5136,-2.6074,-2.6191,-2.7676,-2.8984,-2.9844,-3.0703,-3.1543,-3.2343,-3.3104,-3.3905,-3.4782,-3.486,-3.517,-3.5851,-3.6065,-3.6783,-3.8037,-3.8549,-3.9148,-4.0464,-4.077,-4.0795,-4.0828,-4.0769,-4.07,-4.0631,-4.0622,-4.0615,-4.0539,-4.035,-4.0362,-4.0304,-3.9611,-3.9042,-3.8949,-3.8227,-3.7349,-3.6544,-3.6188,-3.5673,-3.486,-3.4561,-3.434,-3.4049,-3.3934,-3.3895,-4.4819,-4.3497,-4.3479,-4.3423,-4.3259,-4.3129,-4.2213,-4.0836,-4.0175,-3.9368,-3.8469,-3.8303,-3.8248,-3.8248,-3.8264,-3.8264,-3.8264,-3.8497,-3.8612,-3.8659,-3.8919,-3.9064,-3.9073,-3.9272,-3.9376,-3.937,-3.9345,-3.9421,-3.9517,-3.8712,-3.8317,-3.8337,-3.7661,-3.6964,-3.6307,0.0,0.0,0.0,-3.5404,-3.55,-3.5442,-3.3968,-3.3064,-3.2872,-3.1442,0.0,-3.0385,-2.9717,-2.8896,-2.7934,-2.7236,0.0,0.0,0.0,0.0,0.0,0.0,0.0,0.0,0.0,0.0,0.0,-2.3586,-2.3764,-2.2549,-2.3965,-2.5635,-2.714,-2.7632,-2.8103,-2.8807,-2.9784,-3.0761,-3.1621,-3.2441,-3.3262,-3.4101,-3.4355,-3.4785,-3.5625,-3.5742,-3.58,-3.5994,-3.6598,-3.7143,-3.7568,-3.8715,-3.9606,-3.9969,-4.0559,-4.0937,-4.0963,-4.0849,-4.0756,-4.0694,-4.0641,-4.0563,-4.0526,-3.9945,-3.9564,-3.9465,-3.8796,-3.8208,-3.8139,-3.7456,-3.6814,-3.6498,-3.5859,-3.5238,-3.4859,-3.474,-3.4612,-3.4233,-3.4099,-3.4036,-4.515,0.0,-4.3645,-4.3479,0.0,-4.3479,-4.3039,-4.2231,-4.1442,-4.0616,-3.9884,-3.9884,-3.9884,-3.9884,-3.99,-3.9664,-3.9294,-3.9341,-3.9148,-3.8807,-3.8881,-3.8906,-3.895,-3.9087,-3.9156,-3.9156,-3.9285,-3.9414,-3.9477,-3.9132,-3.8855,-3.865,-3.8203,-3.7648,-3.6958,-3.6993,-3.6476,-3.5424,-3.5427,-3.5453,-3.5395,-3.3763,-3.2891,-3.2852,0.0,0.0,0.0,0.0,0.0,0.0,0.0,0.0,0.0,0.0,0.0,-2.4101,-2.4024,-2.4028,-2.4038,-2.4041,-2.4279,-2.4756,-2.6022,-2.6456,-2.5675,-2.6422,-2.7299,-2.8158,-2.8637,-2.9249,-3.0111,-3.0991,-3.2027,-3.326,-3.3808,-3.4394,-3.5175,-3.5332,-3.5508,-3.5879,-3.6016,-3.6016,-3.6015,-3.6347,-3.6834,-3.7262,-3.8002,-3.8742,-3.9245,-4.0281,-4.1023,-4.1023,-4.0943,-4.0699,-4.0233,-4.0112,-3.9888,-3.9451,-3.8992,-3.8721,-3.8659,-3.7978,-3.7387,-3.7267,-3.663,-3.6036,-3.5944,-3.5509,-3.5141,-3.4991,-3.4936,-3.4849,-3.455,-3.4363,-3.4209,-4.5278,-4.451,-4.3758,-4.348,-4.348,-4.3479,-4.3479,-4.346,0.0,0.0,0.0,-4.1113,-4.1113,-4.1113,-4.1113,-4.0744,-4.012,-4.012,-3.9709,-3.8998,-3.8979,-3.8954,-3.8866,-3.8939,-3.8983,-3.8964,-3.9073,-3.9183,-3.9245,-3.9298,-3.9108,-3.8696,-3.8632,-3.8305,-3.7642,-3.7497,-3.6872,-3.5728,-3.5622,-3.5518,-3.5345,-3.389,-3.3122,-3.3109,-3.1469,-3.0603,-3.0603,-3.0456,-3.0006,-2.9146,-2.8467,-2.7717,-2.689,-2.6832,-2.65,-2.5865,-2.6423,-2.6519,-2.5827,-2.6429,-2.6916,-2.7123,-2.7855,-2.833,-2.8417,-2.8415,-2.848,-2.8616,-2.9453,-3.0247,-3.0958,-3.1955,-3.313,-3.4562,-3.484,-3.5232,-3.5877,-3.6015,-3.5976,-3.6016,-3.6016,-3.6016,-3.6016,-3.6035,-3.625,-3.6893,-3.7264,-3.7634,-3.8528,-3.972,-4.0479,-4.0413,-4.0314,-4.0186,-3.9563,-3.932,-3.8974,-3.84,-3.8085,-3.7887,-3.7713,-3.7134,-3.662,-3.6521,-3.589,-3.5542,-3.5424,-3.5373,-3.5285,-3.5166,-3.5134,-3.5094,-3.4898,-3.4687,-3.4465,-4.5053,-4.4382,-4.3706,-4.3394,-4.3429,-4.348,-4.3479,-4.3424,-4.2653,-4.1829,-4.1113,-4.1113,-4.1113,-4.1113,-4.1113,-4.104,-4.093,-4.0946,-4.0506,0.0,-3.9732,-3.9399,-3.8738,-3.881,-3.8837,-3.8818,-3.8892,-3.8979,-3.9036,-3.905,-3.91,-3.9156,-3.9182,-3.8914,-3.8343,-3.761,-3.7194,-3.7099,-3.6608,-3.6009,-3.5308,-3.4407,-3.3937,-3.3861,-3.2307,-3.1418,-3.1418,-3.077,-3.0006,-2.9146,-2.8992,-2.8569,-2.778,-2.7703,-2.7664,-2.7544,-2.7664,-2.764,-2.7549,-2.7642,-2.8058,-2.8762,-2.897,-2.9083,-2.9221,-2.9223,-2.9544,-3.0286,-3.1147,-3.1774,-3.2009,-3.33,-3.428,-3.4704,-3.5377,-3.5869,-3.5987,-3.6012,-3.6014,-3.6014,-3.6016,-3.6016,-3.6016,-3.6016,-3.6035,-3.6289,-3.6777,-3.7558,-3.8239,-3.8779,-3.8915,-3.8868,-3.8856,-3.8753,-3.8602,-3.856,-3.841,-3.8334,-3.7602,-3.7135,-3.7055,-3.6419,-3.588,-3.5701,-3.5586,-3.5501,-3.5427,-3.5398,-3.5354,-3.5273,-3.5261,-3.5212,-3.5075,-3.4983,-3.485,-4.5415,-4.4811,-4.4125,-4.3652,-4.3412,-4.3463,-4.3479,-4.3478,-4.3129,-4.2763,-4.2415,-4.2396,-4.2396,-4.2396,-4.2396,-4.2158,-4.1754,-4.1754,-4.1297,-4.0543,-4.0102,-3.9717,-3.9331,-3.8921,-3.875,-3.875,-3.8807,-3.8866,-3.8877,-3.8921,-3.9021,-3.9129,-3.9165,-3.9098,-3.8939,-3.8545,-3.8193,-3.7868,-3.6901,-3.6209,-3.5836,-3.4633,-3.401,-3.4033,-3.284,-3.2203,-3.2249,-3.1495,-3.088,-3.0476,-2.9596,-2.8934,-2.8569,-2.8549,-2.8549,-2.8549,-2.8986,-2.9256,-2.9256,-2.9261,-2.9418,-2.9836,-3.029,-3.0572,-3.0646,-3.0715,-3.0916,-3.1328,-3.2191,-3.2905,-3.3387,-3.4152,-3.4786,-3.5316,-3.5722,-3.5947,-3.595,-3.5984,-3.601,-3.601,-3.6012,-3.6014,-3.6015,-3.6015,-3.6015,-3.6055,-3.6406,-3.6777,-3.7168,-3.7207,-3.755,-3.8334,-3.8543,-3.8294,-3.7868,-3.7759,-3.7537,-3.7055,-3.6634,-3.6351,-3.6255,-3.5855,-3.5687,-3.5571,-3.5572,-3.5534,-3.5463,-3.5456,-3.5441,-3.5376,-3.5354,-3.5308,-3.5229,-3.5153,-3.5002,-4.5752,-4.5389,-4.4456,-4.3796,-4.3359,-4.3446,-4.3498,-4.348,-4.3479,-4.3479,-4.3479,-4.3479,-4.3479,-4.3479,-4.3479,-4.3166,-4.2616,-4.2561,-4.2139,-4.1368,-4.0726,-4.0267,-3.9861,-3.9239,-3.8872,-3.8726,-3.8747,-3.8795,-3.8777,-3.8837,-3.8877,-3.8968,-3.9036,-3.9096,-3.9219,-3.9219,-3.8986,-3.844,-3.7319,-3.6548,-3.6198,-3.5044,-3.435,-3.4189,-3.3394,-3.2966,-3.3003,-3.226,-3.175,-3.1546,-3.0355,-2.9577,-2.9404,-2.939,-2.9396,-2.9454,-3.0025,-3.0404,-3.0404,-3.0596,-3.0685,-3.0714,-3.1484,-3.1977,-3.1981,-3.226,-3.2338,-3.2274,-3.2941,-3.3759,-3.4365,-3.4745,-3.5129,-3.5788,-3.5875,-3.587,-3.5875,-3.5942,-3.5979,-3.5979,-3.5984,-3.6009,-3.6012,-3.6013,-3.6014,-3.6015,-3.6016,-3.6016,-3.6016,-3.6016,-3.6621,-3.7514,-3.8017,-3.7697,-3.7033,-3.6928,-3.6638,-3.5894,-3.5862,-3.5864,-3.5806,-3.5742,-3.5684,-3.5632,-3.5606,-3.559,-3.554,-3.5496,-3.5483,-3.5429,-3.5427,-3.5398,-3.5324,-3.5229,-3.5092,-4.5659,-4.5699,-4.4386,-4.3528,-4.3232,-4.3359,-4.343,-4.3448,-4.3481,-4.3479,-4.3479,-4.3479,-4.3479,-4.3479,-4.3479,-4.3424,-4.3351,-4.3386,-4.2947,-4.2249,-4.2121,-4.1313,-4.0047,-3.9827,-3.9405,-3.8836,-3.8781,-3.8869,-3.8851,-3.8793,-3.8768,-3.8822,-3.8896,-3.8968,-3.9021,-3.9021,-3.9041,-3.9031,-3.8301,-3.7319,-3.6119,-3.6005,-3.5647,-3.4906,-3.4124,-3.372,-3.3789,-3.3009,-3.2269,-3.1599,-3.1449,-3.0976,-3.031,-3.0257,-3.0288,-3.0269,-3.0365,-3.0404,-3.0462,-3.1135,-3.1583,-3.1641,-3.2339,-3.2801,-3.2827,-3.3518,-3.3662,-3.3277,-3.3779,-3.4342,-3.4448,-3.5102,-3.5586,-3.5745,-3.5806,-3.5814,-3.582,-3.5866,-3.5912,-3.5892,-3.5965,-3.6017,-3.6003,-3.5987,-3.6009,-3.6014,-3.6015,-3.6016,-3.6016,-3.6016,-3.6035,-3.6289,-3.6307,-3.6324,-3.6198,-3.6132,-3.61,-3.5925,-3.5892,-3.5847,-3.5807,-3.5791,-3.5783,-3.5698,-3.5634,-3.5615,-3.5581,-3.5534,-3.5496,-3.5496,-3.5489,-3.5479,-3.5398,-3.5331,-3.522,-4.5623,-4.5596,-4.496,-4.4485,-4.4155,-4.3958,-4.3889,-4.3852,-4.3577,-4.3446,-4.3428,-4.348,-4.3479,-4.3479,-4.3479,-4.3479,-4.3479,-4.3479,-4.3314,-4.2965,-4.2525,-4.1937,-4.1332,-4.0818,-4.0432,-4.0141,-4.0104,-4.0139,-4.0031,-3.9662,-3.9417,-3.9393,-3.9019,-3.8825,-3.8862,-3.8862,-3.8925,-3.896,-3.8744,-3.7904,-3.6509,-3.6096,-3.5618,-3.4935,-3.4567,-3.4415,-3.4403,-3.3758,-3.319,-3.2874,-3.2457,-3.1863,-3.1058,-3.1072,-3.0861,-3.0426,-3.0842,-3.1104,-3.1129,-3.1936,-3.2423,-3.241,-3.3199,-3.3667,-3.3699,-3.4481,-3.4822,-3.4616,-3.4864,-3.5104,-3.5123,-3.5444,-3.5653,-3.5674,-3.5721,-3.5747,-3.5752,-3.5801,-3.5844,-3.5844,-3.5904,-3.5927,-3.5944,-3.5978,-3.6005,-3.601,-3.6013,-3.6015,-3.6015,-3.6015,-3.6016,-3.6016,-3.6015,-3.6015,-3.6012,-3.601,-3.6004,-3.5975,-3.5946,-3.5929,-3.5885,-3.5849,-3.5833,-3.5776,-3.5726,-3.5694,-3.5664,-3.5596,-3.555,-3.5546,-3.5515,-3.5489,-3.5467,-3.5398,-3.5339,-4.5598,-4.5487,-4.544,-4.5143,-4.4682,-4.4498,-4.4296,-4.4081,-4.3743,-4.3542,-4.3412,-4.3445,-4.348,-4.3479,-4.3479,-4.3479,-4.3479,-4.3479,-4.3479,-4.3441,-4.2892,-4.2525,-4.2268,-4.1735,-4.1297,-4.1132,-4.1077,-4.1077,-4.104,-4.0561,-4.012,-3.9845,-3.9313,-3.894,-3.878,-3.8762,-3.881,-3.8837,-3.891,-3.827,-3.698,-3.6292,-3.5562,-3.4779,-3.4687,-3.4739,-3.4802,-3.432,-3.3949,-3.3711,-3.3239,-3.2623,-3.184,-3.1852,-3.1632,-3.1102,-3.1536,-3.1882,-3.193,-3.2709,-3.321,-3.3295,-3.4013,-3.4538,-3.4661,-3.5135,-3.5462,-3.5449,-3.5554,-3.554,-3.5571,-3.5558,-3.5575,-3.5604,-3.5648,-3.5674,-3.5684,-3.5724,-3.5772,-3.5772,-3.5824,-3.5875,-3.5868,-3.5939,-3.5956,-3.5977,-3.5987,-3.6012,-3.6013,-3.6014,-3.6016,-3.6015,-3.6015,-3.6016,-3.6015,-3.6014,-3.6012,-3.601,-3.6003,-3.5975,-3.5941,-3.5934,-3.5908,-3.5849,-3.5818,-3.5775,-3.573,-3.567,-3.5612,-3.5593,-3.5552,-3.5522,-3.5495,-3.5435,-3.5415,-4.5433,-4.573,-4.5511,-4.5009,-4.4298,-4.4682,-4.4538,-4.4043,-4.4098,-4.3907,-4.3523,-4.3431,-4.3447,-4.3534,-4.3516,-4.3479,-4.3479,-4.3479,-4.3479,-4.3479,-4.3406,-4.302,-4.2323,-4.2268,-4.1882,-4.1352,-4.1334,-4.1279,-4.124,-4.1077,-4.0653,-3.9974,-3.9845,-3.9441,-3.8888,-3.8741,-3.8707,-3.8738,-3.8777,-3.8398,-3.7569,-3.6828,-3.5849,-3.471,-3.4427,-3.4465,-3.4623,-3.471,-3.4364,-3.3553,-3.3674,-3.3363,-3.2591,-3.2557,-3.2539,-3.252,-3.2585,-3.2638,-3.2752,-3.3467,-3.3975,-3.4131,-3.4772,-3.5324,-3.5301,-3.5416,-3.5481,-3.55,-3.5507,-3.5515,-3.5509,-3.5515,-3.5528,-3.5578,-3.5595,-3.5612,-3.5593,-3.5649,-3.5708,-3.5722,-3.5763,-3.5803,-3.5804,-3.588,-3.5903,-3.5914,-3.5973,-3.6004,-3.6004,-3.6009,-3.6012,-3.6014,-3.6014,-3.6015,-3.6016,-3.6015,-3.6014,-3.6013,-3.6011,-3.6009,-3.6022,-3.5992,-3.5958,-3.5899,-3.5858,-3.5804,-3.5787,-3.5736,-3.5674,-3.5643,-3.561,-3.5564,-3.5528,-3.5496,-3.5463,-4.514,-4.545,-4.5591,-4.5467,-4.5236,-4.5214,-4.5112,-4.4957,-4.4731,-4.4634,-4.454,-4.4106,-4.4017,-4.418,-4.3649,-4.3445,-4.3479,-4.3479,-4.3479,-4.3479,-4.3479,-4.3349,-4.3094,-4.3057,-4.2947,-4.2671,-4.2616,-4.2635,-4.2561,-4.2121,-4.1735,-4.1295,-4.0377,-3.9735,-3.9423,-3.8946,-3.8707,-3.8707,-3.8738,-3.833,-3.7629,-3.7275,-3.6676,-3.5689,-3.4699,-3.4269,-3.4386,-3.4495,-3.4411,-3.4162,-3.4327,-3.4046,-3.3213,-3.2717,-3.2522,-3.256,-3.3025,-3.3352,-3.3495,-3.4208,-3.4754,-3.4883,-3.514,-3.5361,-3.5412,-3.5446,-3.5453,-3.5493,-3.55,-3.5494,-3.5501,-3.5489,-3.5489,-3.5528,-3.5541,-3.5547,-3.5559,-3.5587,-3.5632,-3.5662,-3.5689,-3.5741,-3.5752,-3.5794,-3.5836,-3.5825,-3.588,-3.5921,-3.5946,-3.5974,-3.6002,-3.6008,-3.6009,-3.601,-3.6013,-3.6015,-3.6015,-3.6015,-3.6014,-3.6013,-3.601,-3.6004,-3.5975,-3.595,-3.5886,-3.586,-3.5844,-3.5811,-3.5756,-3.5699,-3.5669,-3.5643,-3.5589,-3.5564,-3.5521,-4.4913,-4.5113,-4.545,-4.5632,-4.564,-4.5576,-4.5494,-4.5437,-4.5191,-4.5114,-4.5077,-4.4634,-4.4592,-4.4728,-4.4291,-4.4144,-4.416,-4.3754,-4.3479,-4.3479,-4.3479,-4.3479,-4.3479,-4.3479,-4.3479,-4.3479,-4.3479,-4.3479,-4.3442,-4.2965,-4.258,-4.2213,-4.1167,-4.0524,-4.0212,-3.9496,-3.9093,-3.9056,-3.8836,-3.8414,-3.79,-3.7621,-3.7268,-3.6665,-3.5477,-3.4727,-3.4643,-3.4437,-3.4316,-3.4393,-3.4561,-3.4413,-3.387,-3.3392,-3.31,-3.3195,-3.3667,-3.4027,-3.4168,-3.466,-3.5075,-3.5212,-3.5248,-3.5288,-3.5354,-3.5369,-3.541,-3.5465,-3.5479,-3.5486,-3.55,-3.5481,-3.55,-3.5481,-3.5489,-3.5489,-3.5489,-3.556,-3.5577,-3.562,-3.5646,-3.5664,-3.5679,-3.5739,-3.5757,-3.5764,-3.5807,-3.5863,-3.5887,-3.5923,-3.5962,-3.5973,-3.5974,-3.5979,-3.6004,-3.6011,-3.5995,-3.5996,-3.6015,-3.6015,-3.6014,-3.6011,-3.6009,-3.5987,-3.596,-3.5944,-3.5903,-3.5877,-3.583,-3.5756,-3.573,-3.5721,-3.5664,-3.5632,-3.5593,-4.4776,-4.4858,-4.5086,-4.5257,-4.5398,-4.5597,-4.554,-4.5311,-4.5346,-4.5272,-4.5182,-4.4938,-4.507,-4.5314,-4.519,-4.5399,-4.5315,-4.4253,-4.3682,-4.3626,-4.3534,-4.3479,-4.3479,-4.3479,-4.3479,-4.3479,-4.3479,-4.3479,-4.3461,-4.3404,-4.3039,-4.247,-4.2213,-4.1699,-4.1095,-4.0341,-3.9882,-3.968,-3.9148,-3.8744,-3.8597,-3.7988,-3.7603,-3.7437,-3.6662,-3.5947,-3.537,-3.4598,-3.4222,-3.4229,-3.4342,-3.4461,-3.4475,-3.4395,-3.4489,-3.4376,-3.4508,-3.4628,-3.4703,-3.4751,-3.4878,-3.5048,-3.5103,-3.5145,-3.5253,-3.5285,-3.5316,-3.5383,-3.5417,-3.5412,-3.5467,-3.5467,-3.5474,-3.55,-3.5488,-3.5488,-3.5494,-3.5502,-3.5522,-3.5591,-3.5608,-3.5581,-3.5604,-3.5664,-3.5708,-3.5712,-3.5749,-3.5801,-3.5804,-3.5849,-3.5877,-3.5899,-3.5906,-3.591,-3.5967,-3.6019,-3.5988,-3.5993,-3.5996,-3.6016,-3.6016,-3.6015,-3.6014,-3.5993,-3.599,-3.596,-3.5946,-3.5906,-3.5887,-3.5843,-3.5807,-3.5776,-3.5724,-3.5694,-3.5669,-4.4654,-4.4682,-4.4858,-4.4951,-4.5005,-4.5283,-4.5399,-4.5488,-4.5621,-4.5839,-4.5955,-4.5485,-4.5479,-4.5675,-4.5341,-4.5251,-4.5452,-4.5,-4.4656,-4.4306,-4.3791,-4.3534,-4.3534,-4.3516,-4.3479,-4.3479,-4.3479,-4.3497,-4.3479,-4.3479,-4.3349,-4.3092,-4.2561,-4.2194,-4.1901,-4.1148,-4.0506,-3.9918,-3.9662,-3.9276,-3.8781,-3.845,-3.8322,-3.823,-3.7533,-3.7011,-3.6761,-3.551,-3.4877,-3.4897,-3.447,-3.4233,-3.4323,-3.4316,-3.4328,-3.4316,-3.4316,-3.4374,-3.4525,-3.4547,-3.4682,-3.4839,-3.4888,-3.4964,-3.5127,-3.5153,-3.5212,-3.5308,-3.5331,-3.5346,-3.5357,-3.5364,-3.5482,-3.5493,-3.55,-3.5538,-3.5558,-3.5533,-3.5527,-3.554,-3.5534,-3.5515,-3.5534,-3.5587,-3.5626,-3.5637,-3.5684,-3.5735,-3.5743,-3.5772,-3.5833,-3.5827,-3.5833,-3.5864,-3.5907,-3.5947,-3.5923,-3.594,-3.597,-3.6014,-3.6015,-3.6016,-3.6016,-3.6015,-3.6013,-3.5991,-3.5961,-3.595,-3.5917,-3.5903,-3.5885,-3.5833,-3.5783,-3.5749,-3.5743,-4.4598,-4.4598,-4.4682,-4.4748,-4.4803,-4.4995,-4.5203,-4.5441,-4.5529,-4.5862,-4.6112,-4.5791,-4.5829,-4.6105,-4.5743,-4.5763,-4.6042,-4.5848,-4.5573,-4.5332,-4.4711,-4.438,-4.4378,-4.4414,-4.3992,-4.3662,-4.3791,-4.3773,-4.3497,-4.3479,-4.3479,-4.3369,-4.2965,-4.2745,-4.2671,-4.1956,-4.1258,-4.0781,-4.0194,-3.9662,-3.9203,-3.8854,-3.8707,-3.8634,-3.8193,-3.7955,-3.7841,-3.6677,-3.5892,-3.5639,-3.5185,-3.4992,-3.5056,-3.5087,-3.505,-3.505,-3.5069,-3.5138,-3.5188,-3.4989,-3.486,-3.5022,-3.4833,-3.4768,-3.4917,-3.4993,-3.5038,-3.5187,-3.5507,-3.5695,-3.5763,-3.6077,-3.6205,-3.6343,-3.613,-3.5986,-3.5935,-3.5942,-3.575,-3.5648,-3.5489,-3.5502,-3.5496,-3.5534,-3.5571,-3.5583,-3.5615,-3.5644,-3.5674,-3.5699,-3.573,-3.5764,-3.5776,-3.5799,-3.585,-3.5875,-3.5858,-3.589,-3.5934,-3.5986,-3.6011,-3.6014,-3.6015,-3.6016,-3.6015,-3.6014,-3.599,-3.5988,-3.5984,-3.5956,-3.5942,-3.5903,-3.5855,-3.5841,-3.5817,-4.4598,-4.4598,-4.4598,-4.4682,-4.4793,-4.4803,-4.4951,-4.515,-4.5194,-4.5398,-4.5692,-4.5699,-4.5992,-4.6418,-4.6295,-4.6516,-4.703,-4.6446,-4.6296,-4.635,-4.604,-4.5753,-4.5627,-4.5608,-4.4966,-4.4085,-4.447,-4.4342,-4.3736,-4.3681,-4.3516,-4.3496,-4.3441,-4.3478,-4.324,-4.2708,-4.2286,-4.1901,-4.0818,-4.0157,-3.9937,-3.9221,-3.8836,-3.8836,-3.8689,-3.8597,-3.845,-3.7823,-3.7088,-3.6427,-3.6186,-3.6168,-3.6408,-3.6477,-3.6311,-3.6242,-3.644,-3.6375,-3.6337,-3.5771,-3.5478,-3.5596,-3.514,-3.4645,-3.5084,-3.522,-3.5302,-3.5495,-3.5969,-3.6396,-3.6639,-3.7038,-3.7484,-3.7708,-3.7156,-3.6783,-3.6685,-3.6635,-3.625,-3.5673,-3.5481,-3.5481,-3.5488,-3.5509,-3.5522,-3.5522,-3.5565,-3.5575,-3.5593,-3.5621,-3.5648,-3.5659,-3.5689,-3.5732,-3.5771,-3.5784,-3.5794,-3.582,-3.5868,-3.5923,-3.5983,-3.5991,-3.6014,-3.6015,-3.6016,-3.6015,-3.6015,-3.6014,-3.6012,-3.5987,-3.598,-3.5955,-3.5944,-3.5912,-3.5873,-4.4598,-4.4598,-4.4598,-4.4643,-4.4654,-4.4654,-4.4748,-4.4886,-4.4913,-4.5069,-4.531,-4.5363,-4.5606,-4.5988,-4.5995,-4.6291,-4.6619,-4.6552,-4.6731,-4.7047,-4.6988,-4.6446,-4.5955,-4.5883,-4.57,-4.5278,-4.5351,-4.5168,-4.4433,-4.4361,-4.4103,-4.3497,-4.3552,-4.3497,-4.3406,-4.324,-4.2855,-4.2359,-4.1974,-4.1313,-4.0726,-4.001,-3.9588,-3.9533,-3.9038,-3.8744,-3.8707,-3.8505,-3.7698,-3.6413,-3.6317,-3.6328,-3.6466,-3.6466,-3.6503,-3.6503,-3.6448,-3.6425,-3.644,-3.627,-3.6191,-3.6324,-3.6016,-3.6087,-3.6264,-3.6269,-3.6385,-3.6599,-3.689,-3.7007,-3.7165,-3.7404,-3.7823,-3.8347,-3.8002,-3.7433,-3.6937,-3.6678,-3.6385,-3.5673,-3.5538,-3.5558,-3.5507,-3.5494,-3.5482,-3.5495,-3.5502,-3.5515,-3.5527,-3.5565,-3.5601,-3.5599,-3.5626,-3.5643,-3.5674,-3.5698,-3.5726,-3.5743,-3.5787,-3.5855,-3.5914,-3.5958,-3.5989,-3.6014,-3.6014,-3.6015,-3.6016,-3.6015,-3.6014,-3.6012,-3.6011,-3.5988,-3.6001,-3.5973,-3.5941,-4.4598,-4.4598,-4.4598,-4.4598,-4.4598,-4.4598,-4.4654,-4.4692,-4.472,-4.4831,-4.5005,-4.5032,-4.523,-4.5529,-4.5606,-4.5862,-4.6217,-4.6308,-4.6578,-4.6989,-4.716,-4.6819,-4.6403,-4.6484,-4.6432,-4.5846,-4.612,-4.5828,-4.526,-4.515,-4.4746,-4.4176,-4.4011,-4.3846,-4.3479,-4.3461,-4.3313,-4.2818,-4.2506,-4.2047,-4.1589,-4.0818,-4.0469,-4.0249,-3.9625,-3.9093,-3.8781,-3.8689,-3.8212,-3.7496,-3.7312,-3.7294,-3.7312,-3.7312,-3.7312,-3.7312,-3.7294,-3.736,-3.7265,-3.7092,-3.6928,-3.692,-3.6768,-3.6604,-3.663,-3.6738,-3.682,-3.6958,-3.7331,-3.76,-3.7815,-3.8107,-3.8588,-3.9033,-3.8966,-3.8499,-3.7742,-3.7786,-3.7182,-3.6421,-3.5993,-3.5846,-3.5596,-3.5519,-3.5519,-3.5488,-3.5501,-3.5502,-3.5509,-3.5528,-3.5547,-3.5553,-3.5571,-3.5589,-3.5618,-3.5643,-3.5649,-3.5689,-3.5717,-3.5783,-3.5855,-3.5935,-3.5957,-3.5987,-3.6009,-3.6012,-3.6014,-3.6015,-3.6016,-3.6015,-3.6015,-3.6014,-3.6011,-3.6006,-3.5978,-4.4598,-4.4598,-4.4598,-4.4598,-4.4598,-4.4598,-4.4598,-4.4598,-4.4598,-4.4682,-4.4793,-4.4776,-4.494,-4.515,-4.5283,-4.5494,-4.576,-4.5887,-4.6186,-4.6572,-4.6908,-4.6913,-4.6657,-4.7325,-4.7039,-4.6274,-4.662,-4.6425,-4.6008,-4.5863,-4.548,-4.4876,-4.4692,-4.4306,-4.381,-4.3589,-4.3479,-4.3314,-4.2837,-4.2561,-4.2286,-4.1662,-4.1242,-4.1093,-4.0212,-3.9533,-3.9038,-3.8781,-3.8615,-3.867,-3.8707,-3.8542,-3.8579,-3.8634,-3.8615,-3.8542,-3.845,-3.8487,-3.8524,-3.7915,-3.7651,-3.7617,-3.7116,-3.6698,-3.6994,-3.7091,-3.719,-3.7336,-3.7772,-3.8171,-3.8427,-3.9105,-3.939,-3.9524,-3.9759,-3.967,-3.9289,-3.9144,-3.8565,-3.7126,-3.6829,-3.6447,-3.6031,-3.5762,-3.5827,-3.6365,-3.6168,-3.5898,-3.579,-3.5662,-3.5605,-3.5502,-3.5515,-3.5534,-3.5566,-3.5596,-3.5606,-3.561,-3.5658,-3.5706,-3.5804,-3.588,-3.5933,-3.595,-3.5956,-3.5986,-3.6012,-3.6014,-3.6014,-3.6015,-3.6016,-3.6015,-3.6015,-3.6013,-3.5989,-4.4598,-4.4598,-4.4598,-4.4598,-4.4598,-4.4598,-4.4598,-4.4598,-4.4598,-4.4626,-4.4626,-4.4626,-4.4737,-4.4869,-4.4968,-4.5086,-4.5353,-4.5503,-4.5735,-4.6161,-4.6548,-4.6707,-4.6739,-4.7353,-4.7485,-4.7197,-4.7363,-4.7116,-4.6597,-4.638,-4.6074,-4.5459,-4.5004,-4.4547,-4.4308,-4.3775,-4.3479,-4.3442,-4.3277,-4.3185,-4.302,-4.2451,-4.2029,-4.1882,-4.0708,-3.9937,-3.957,-3.9038,-3.8707,-3.8707,-3.8707,-3.8707,-3.8707,-3.8707,-3.8707,-3.8707,-3.8707,-3.8707,-3.8652,-3.8505,-3.8414,-3.8352,-3.8183,-3.8254,-3.8306,-3.8224,-3.8334,-3.8503,-3.8711,-3.8767,-3.8862,-3.9162,-3.9357,-3.9433,-3.9623,-3.9728,-3.9513,-3.9252,-3.8652,-3.7893,-3.7608,-3.7571,-3.7364,-3.7191,-3.7206,-3.732,-3.6962,-3.6519,-3.6192,-3.5878,-3.5673,-3.5545,-3.5482,-3.5489,-3.5502,-3.5534,-3.5572,-3.5571,-3.5593,-3.5643,-3.5747,-3.5813,-3.5852,-3.589,-3.5935,-3.595,-3.5983,-3.6007,-3.5988,-3.5992,-3.6015,-3.6015,-3.6016,-3.6015,-3.6014,-4.4598,-4.4598,-4.4598,-4.4598,-4.4598,-4.4598,-4.4598,-4.4598,-4.4598,-4.4598,-4.4598,-4.4598,-4.4626,-4.4709,-4.4793,-4.4886,-4.5049,-4.5203,-4.5398,-4.5666,-4.602,-4.6211,-4.6308,-4.6737,-4.708,-4.7294,-4.7341,-4.714,-4.6994,-4.6837,-4.6613,-4.6065,-4.5655,-4.511,-4.4509,-4.4053,-4.3777,-4.3483,-4.3445,-4.3463,-4.3387,-4.3112,-4.2598,-4.2341,-4.146,-4.091,-4.0451,-3.9698,-3.9331,-3.9166,-3.8927,-3.8726,-3.8707,-3.8707,-3.8707,-3.8707,-3.8707,-3.8707,-3.8707,-3.8707,-3.867,-3.8707,-3.8707,-3.8723,-3.875,-3.8765,-3.881,-3.8881,-3.8888,-3.8935,-3.8989,-3.9087,-3.9156,-3.9192,-3.9376,-3.9514,-3.9493,-3.9488,-3.9175,-3.8545,-3.8341,-3.8125,-3.8044,-3.809,-3.795,-3.7744,-3.7644,-3.7183,-3.6519,-3.6204,-3.5801,-3.5624,-3.5484,-3.5441,-3.5467,-3.5494,-3.5522,-3.5528,-3.5553,-3.5601,-3.5664,-3.5708,-3.5756,-3.5797,-3.5872,-3.5899,-3.5917,-3.5946,-3.5977,-3.5987,-3.5991,-3.6013,-3.6014,-3.6015,-3.6016,-4.4598,-4.4598,-4.4598,-4.4598,-4.4598,-4.4598,-4.4598,-4.4598,-4.4598,-4.4598,-4.4598,-4.4598,-4.4598,-4.4626,-4.4709,-4.4793,-4.4886,-4.5022,-4.5194,-4.5266,-4.558,-4.5709,-4.5811,-4.602,-4.6315,-4.6731,-4.6824,-4.6913,-4.7071,-4.7178,-4.683,-4.6558,-4.6452,-4.5784,-4.4808,-4.4305,-4.4071,-4.367,-4.3432,-4.3376,-4.3428,-4.3355,-4.3006,-4.2603,-4.2164,-4.1744,-4.1156,-4.0494,-4.0049,-4.0013,-3.9423,-3.9129,-3.9019,-3.8762,-3.8707,-3.8707,-3.8707,-3.8707,-3.8707,-3.8707,-3.8707,-3.8707,-3.8707,-3.8707,-3.8707,-3.8723,-3.8753,-3.8765,-3.8792,-3.8807,-3.8866,-3.8954,-3.8983,-3.9007,-3.9156,-3.9232,-3.9337,-3.9701,-3.9437,-3.9153,-3.9004,-3.8899,-3.8668,-3.8562,-3.8357,-3.818,-3.8093,-3.7795,-3.7132,-3.6462,-3.6059,-3.5596,-3.5419,-3.5372,-3.5398,-3.5446,-3.5475,-3.5489,-3.5489,-3.554,-3.5583,-3.561,-3.5664,-3.5752,-3.5797,-3.583,-3.5855,-3.587,-3.5912,-3.5955,-3.5983,-3.5984,-3.5988,-3.6013,-3.6014,-4.4598,-4.4598,-4.4598,-4.4598,-4.4598,-4.4598,-4.4598,-4.4598,-4.4598,-4.4598,-4.4598,-4.4598,-4.4598,-4.4598,-4.4598,-4.4682,-4.4776,-4.4858,-4.494,-4.5032,-4.523,-4.531,-4.5363,-4.5477,-4.5632,-4.5743,-4.6062,-4.6429,-4.6643,-4.6695,-4.6705,-4.6717,-4.6453,-4.5909,-4.5428,-4.4813,-4.4244,-4.3868,-4.3486,-4.3287,-4.3233,-4.3232,-4.3214,-4.2867,-4.2448,-4.2083,-4.179,-4.1165,-4.0721,-4.0738,-4.0714,-4.0655,-4.0325,-3.9426,-3.8927,-3.8817,-3.8817,-3.8836,-3.8707,-3.8707,-3.8707,-3.8707,-3.8707,-3.8707,-3.8707,-3.8707,-3.8723,-3.8704,-3.8719,-3.8719,-3.8735,-3.8807,-3.8837,-3.8881,-3.8968,-3.9064,-3.9101,-3.9279,-3.9494,-3.9323,-3.9496,-3.9654,-3.9325,-3.9147,-3.9138,-3.9013,-3.8888,-3.842,-3.7722,-3.6929,-3.6222,-3.575,-3.5285,-3.5304,-3.5335,-3.5383,-3.542,-3.5427,-3.5455,-3.5476,-3.5509,-3.5502,-3.5562,-3.5645,-3.5706,-3.5745,-3.5779,-3.5811,-3.585,-3.5882,-3.5916,-3.5944,-3.5956,-3.5985,-3.5988,-4.4598,-4.4598,-4.4598,-4.4598,-4.4598,-4.4598,-4.4598,-4.4598,-4.4598,-4.4598,-4.4598,-4.4598,-4.4598,-4.4598,-4.4598,-4.4626,-4.4682,-4.4709,-4.4737,-4.4831,-4.4923,-4.5022,-4.5005,-4.5123,-4.5177,-4.5257,-4.5477,-4.5811,-4.6119,-4.6186,-4.6332,-4.6501,-4.6379,-4.6172,-4.5753,-4.5283,-4.4556,-4.4101,-4.36,-4.3261,-4.3068,-4.3032,-4.305,-4.2923,-4.2704,-4.2486,-4.2323,-4.1812,-4.1446,-4.1354,-4.1145,-4.1029,-4.0789,-4.0455,-3.9738,-3.9444,-3.9331,-3.9111,-3.8799,-3.8707,-3.8707,-3.8707,-3.8726,-3.8707,-3.8707,-3.8707,-3.8707,-3.8707,-3.8707,-3.8707,-3.8707,-3.8716,-3.8732,-3.8747,-3.8837,-3.8896,-3.8939,-3.9045,-3.921,-3.9395,-3.9476,-3.9573,-3.9754,-3.9713,-3.987,-3.9836,-3.9659,-3.9003,-3.8223,-3.7367,-3.6492,-3.5785,-3.5297,-3.5193,-3.5215,-3.5289,-3.5339,-3.5346,-3.5391,-3.5434,-3.5462,-3.5463,-3.549,-3.5556,-3.5612,-3.5664,-3.5712,-3.576,-3.5794,-3.5813,-3.5844,-3.5863,-3.5914,-3.595,-3.5953,-4.4598,-4.4598,-4.4598,-4.4598,-4.4598,-4.4598,-4.4598,-4.4598,-4.4598,-4.4598,-4.4598,-4.4598,-4.4598,-4.4598,-4.4598,-4.4598,-4.4598,-4.4598,-4.4626,-4.4654,-4.4737,-4.4765,-4.4803,-4.4858,-4.494,-4.494,-4.4951,-4.5177,-4.5606,-4.5684,-4.5854,-4.602,-4.6308,-4.6182,-4.5605,-4.542,-4.4795,-4.4178,-4.3617,-4.3306,-4.2908,-4.2768,-4.2786,-4.2786,-4.2768,-4.2713,-4.2586,-4.2266,-4.205,-4.1923,-4.1685,-4.1405,-4.1386,-4.1454,-4.1137,-4.0476,-4.0215,-3.9772,-3.946,-3.9294,-3.9441,-3.946,-3.9093,-3.9001,-3.8891,-3.8891,-3.8707,-3.8707,-3.8707,-3.8707,-3.8707,-3.8707,-3.8689,-3.8704,-3.875,-3.8795,-3.884,-3.8896,-3.895,-3.9115,-3.929,-3.9427,-3.9575,-3.9635,-3.967,-3.9751,-3.9569,-3.9153,-3.8377,-3.7631,-3.6761,-3.5902,-3.5363,-3.5123,-3.5117,-3.5185,-3.5229,-3.5237,-3.5308,-3.5376,-3.5398,-3.5439,-3.5456,-3.5483,-3.554,-3.5601,-3.5637,-3.5689,-3.5726,-3.5749,-3.5768,-3.5788,-3.5853,-3.5892,-3.5899,-4.4598,-4.4598,-4.4598,-4.4598,-4.4598,-4.4598,-4.4598,-4.4598,-4.4598,-4.4598,-4.4598,-4.4598,-4.4598,-4.4598,-4.4598,-4.4598,-4.4598,-4.4598,-4.4598,-4.4598,-4.4626,-4.4654,-4.4643,-4.4643,-4.4709,-4.4709,-4.4682,-4.4886,-4.5194,-4.53,-4.5363,-4.5555,-4.5786,-4.5825,-4.5623,-4.5383,-4.4777,-4.4112,-4.3487,-4.2907,-4.2471,-4.2351,-4.2351,-4.2369,-4.2369,-4.2351,-4.2391,-4.2297,-4.2377,-4.2434,-4.2684,-4.2796,-4.285,-4.2923,-4.2503,-4.1861,-4.1289,-4.0912,-4.0675,-4.0512,-4.0492,-4.0327,-4.0086,-3.9827,-3.9515,-3.9129,-3.8836,-3.8707,-3.8707,-3.8707,-3.8707,-3.8707,-3.8707,-3.8707,-3.8704,-3.8719,-3.8735,-3.878,-3.8855,-3.8866,-3.9017,-3.917,-3.9317,-3.935,-3.9401,-3.9489,-3.9457,-3.9043,-3.8479,-3.769,-3.6776,-3.584,-3.5185,-3.4925,-3.4946,-3.5029,-3.5065,-3.5101,-3.5204,-3.5293,-3.5316,-3.5358,-3.5391,-3.5422,-3.5468,-3.5489,-3.554,-3.5599,-3.5643,-3.5689,-3.5708,-3.5745,-3.5801,-3.5817,-3.5827,-4.4598,-4.4598,-4.4598,-4.4598,-4.4598,-4.4598,-4.4598,-4.4598,-4.4598,-4.4598,-4.4598,-4.4598,-4.4598,-4.4598,-4.4598,-4.4598,-4.4598,-4.4598,-4.4598,-4.4598,-4.4598,-4.4598,-4.4598,-4.4598,-4.4598,-4.4598,-4.4598,-4.4654,-4.4858,-4.4968,-4.5032,-4.5177,-4.5363,-4.545,-4.5477,-4.532,-4.4659,-4.3786,-4.2866,-4.215,-4.1958,-4.1909,-4.1909,-4.1909,-4.1909,-4.1892,-4.1934,-4.2086,-4.219,-4.229,-4.2589,-4.2822,-4.2842,-4.2902,-4.2813,-4.2577,-4.2268,-4.1756,-4.1057,-4.1001,-4.1052,-4.0993,-4.0645,-4.0311,-3.9958,-3.9625,-3.9132,-3.8726,-3.8707,-3.8707,-3.8707,-3.8707,-3.8707,-3.8707,-3.8707,-3.8707,-3.8707,-3.8723,-3.875,-3.8765,-3.8777,-3.8921,-3.9064,-3.9101,-3.9183,-3.9245,-3.9279,-3.9042,-3.8407,-3.7611,-3.6645,-3.5604,-3.5049,-3.4623,-3.472,-3.484,-3.4879,-3.4946,-3.5084,-3.5162,-3.5204,-3.5245,-3.53,-3.5327,-3.5345,-3.5388,-3.5443,-3.5502,-3.5558,-3.5604,-3.5643,-3.5684,-3.5715,-3.5732,-3.5749,-4.4598,-4.4598,-4.4598,-4.4598,-4.4598,-4.4598,-4.4598,-4.4598,-4.4598,-4.4598,-4.4598,-4.4598,-4.4598,-4.4598,-4.4598,-4.4598,-4.4598,-4.4598,-4.4598,-4.4598,-4.4598,-4.4598,-4.4598,-4.4598,-4.4598,-4.4598,-4.4598,-4.4626,-4.4654,-4.4692,-4.4803,-4.4913,-4.5032,-4.5113,-4.514,-4.5102,-4.4647,-4.336,-4.2114,-4.1508,-4.1426,-4.1426,-4.1426,-4.1426,-4.1426,-4.1408,-4.1471,-4.1631,-4.1723,-4.1809,-4.2148,-4.2391,-4.2432,-4.2573,-4.2691,-4.2602,-4.2513,-4.219,-4.1651,-4.1433,-4.1357,-4.1371,-4.1147,-4.0908,-4.0262,-4.0093,-3.9797,-3.9119,-3.9046,-3.8933,-3.8747,-3.8707,-3.8707,-3.8707,-3.8707,-3.8707,-3.8707,-3.8689,-3.8689,-3.8719,-3.8735,-3.8735,-3.8837,-3.8881,-3.895,-3.9017,-3.9008,-3.8971,-3.8377,-3.7612,-3.6904,-3.5963,-3.5298,-3.4904,-3.4884,-3.491,-3.487,-3.4824,-3.4974,-3.5002,-3.503,-3.5127,-3.5212,-3.5234,-3.5239,-3.5285,-3.533,-3.5395,-3.5463,-3.5515,-3.5559,-3.5587,-3.5618,-3.5644,-3.5674,-4.4598,-4.4598,-4.4598,-4.4598,-4.4598,-4.4598,-4.4598,-4.4598,-4.4598,-4.4598,-4.4598,-4.4598,-4.4598,-4.4598,-4.4598,-4.4598,-4.4598,-4.4598,-4.4598,-4.4598,-4.4598,-4.4598,-4.4598,-4.4598,-4.4598,-4.4598,-4.4598,-4.4598,-4.4598,-4.4626,-4.4626,-4.4654,-4.4803,-4.4831,-4.4818,-4.4817,-4.4222,-4.2987,-4.174,-4.1086,-4.1006,-4.0965,-4.0982,-4.0965,-4.0942,-4.0942,-4.0982,-4.1157,-4.1277,-4.13,-4.1701,-4.1938,-4.2002,-4.2187,-4.231,-4.2331,-4.2331,-4.2119,-4.191,-4.2149,-4.2648,-4.265,-4.2286,-4.1573,-4.0826,-4.0735,-4.0349,-3.9776,-3.963,-3.9312,-3.8993,-3.871,-3.8826,-3.8643,-3.8627,-3.8627,-3.8627,-3.8643,-3.8643,-3.8692,-3.8689,-3.8673,-3.8689,-3.8747,-3.8825,-3.891,-3.8888,-3.8832,-3.8389,-3.772,-3.7304,-3.6581,-3.5779,-3.5391,-3.5324,-3.5261,-3.5182,-3.5012,-3.4994,-3.4908,-3.4838,-3.4965,-3.5103,-3.5119,-3.5107,-3.5168,-3.5198,-3.5227,-3.5274,-3.5398,-3.5462,-3.5483,-3.5546,-3.5574,-3.5596,-4.4598,-4.4598,-4.4598,-4.4598,-4.4598,-4.4598,-4.4598,-4.4598,-4.4598,-4.4598,-4.4598,-4.4598,-4.4598,-4.4598,-4.4598,-4.4598,-4.4598,-4.4598,-4.4598,-4.4598,-4.4598,-4.4598,-4.4598,-4.4598,-4.4598,-4.4598,-4.4598,-4.4598,-4.4598,-4.4598,-4.4598,-4.4626,-4.4637,-4.4654,-4.4652,-4.4361,-4.3608,-4.2808,-4.1825,-4.1163,-4.069,-4.0655,-4.0655,-4.0655,-4.0655,-4.0655,-4.068,-4.0823,-4.0871,-4.0977,-4.1277,-4.1436,-4.1525,-4.174,-4.1866,-4.1888,-4.1888,-4.1888,-4.1934,-4.2251,-4.2591,-4.2749,-4.2556,-4.2196,-4.1415,-4.1343,-4.0961,-4.0522,-4.0229,-3.9935,-3.9414,-3.9246,-3.9138,-3.8716,-3.8551,-3.8588,-3.8515,-3.8515,-3.8496,-3.8496,-3.8528,-3.8559,-3.859,-3.864,-3.8719,-3.8765,-3.8743,-3.8651,-3.828,-3.7982,-3.762,-3.7243,-3.65,-3.6085,-3.6022,-3.5773,-3.5516,-3.5336,-3.5152,-3.5027,-3.4947,-3.4816,-3.4926,-3.4946,-3.4964,-3.4992,-3.5019,-3.5035,-3.5096,-3.5234,-3.5331,-3.5398,-3.5456,-3.5502,-3.5508,-4.4598,-4.4598,-4.4598,-4.4598,-4.4598,-4.4598,-4.4598,-4.4598,-4.4598,-4.4598,-4.4598,-4.4598,-4.4598,-4.4598,-4.4598,-4.4598,-4.4598,-4.4598,-4.4598,-4.4598,-4.4598,-4.4598,-4.4598,-4.4598,-4.4598,-4.4598,-4.4598,-4.4598,-4.4598,-4.4598,-4.4598,-4.4598,-4.4598,-4.4598,-4.4456,-4.3891,-4.3284,-4.2751,-4.1869,-4.1316,-4.0762,-4.0489,-4.037,-4.037,-4.0387,-4.037,-4.0412,-4.051,-4.0558,-4.068,-4.0853,-4.1018,-4.1134,-4.1249,-4.1363,-4.1386,-4.1403,-4.1403,-4.1538,-4.187,-4.2228,-4.2335,-4.2573,-4.2329,-4.206,-4.1843,-4.152,-4.0963,-4.08,-4.0564,-3.9961,-3.9849,-3.9486,-3.9085,-3.8884,-3.8847,-3.8447,-3.8302,-3.8302,-3.83,-3.8366,-3.8433,-3.8465,-3.8515,-3.8609,-3.8673,-3.8719,-3.8716,-3.8588,-3.8312,-3.8107,-3.7717,-3.7249,-3.6969,-3.6772,-3.638,-3.6041,-3.5919,-3.5695,-3.538,-3.524,-3.5057,-3.4789,-3.4678,-3.4711,-3.4791,-3.4821,-3.4821,-3.4926,-3.5072,-3.5176,-3.5261,-3.5361,-3.5415,-3.5423,-4.4598,-4.4598,-4.4598,-4.4598,-4.4598,-4.4598,-4.4598,-4.4598,-4.4598,-4.4598,-4.4598,-4.4598,-4.4598,-4.4598,-4.4598,-4.4598,-4.4598,-4.4598,-4.4598,-4.4598,-4.4598,-4.4598,-4.4598,-4.4598,-4.4598,-4.4598,-4.4598,-4.4598,-4.4598,-4.4598,-4.4598,-4.4598,-4.4598,-4.4598,-4.4547,-4.3842,-4.3436,-4.3166,-4.1957,-4.15,-4.1002,-4.057,-4.0366,-4.0171,-4.0188,-4.0171,-4.0221,-4.0288,-4.0337,-4.0387,-4.0583,-4.0704,-4.0769,-4.0871,-4.0942,-4.0942,-4.0942,-4.0942,-4.0982,-4.1565,-4.1809,-4.1917,-4.2148,-4.2162,-4.2218,-4.2167,-4.1978,-4.1346,-4.133,-4.1048,-4.0709,-4.042,-3.995,-3.9516,-3.9299,-3.8992,-3.8612,-3.8305,-3.8342,-3.8141,-3.8206,-3.8307,-3.8322,-3.8387,-3.8483,-3.8596,-3.8658,-3.8673,-3.8624,-3.8533,-3.8313,-3.816,-3.779,-3.7706,-3.7423,-3.69,-3.6574,-3.6459,-3.6311,-3.6054,-3.5664,-3.5392,-3.5046,-3.4633,-3.4476,-3.4564,-3.4594,-3.4604,-3.4701,-3.4821,-3.5001,-3.5119,-3.522,-3.53,-3.5312,-4.4598,-4.4598,-4.4598,-4.4598,-4.4598,-4.4598,-4.4598,-4.4598,-4.4598,-4.4598,-4.4598,-4.4598,-4.4598,-4.4598,-4.4598,-4.4598,-4.4598,-4.4598,-4.4598,-4.4598,-4.4598,-4.4598,-4.4598,-4.4598,-4.4598,-4.4598,-4.4598,-4.4598,-4.4598,-4.4598,-4.4598,-4.4598,-4.4598,-4.4598,-4.4564,-4.4215,-4.4012,-4.347,-4.2828,-4.226,-4.1339,-4.095,-4.0578,-4.018,-4.0146,-4.0113,-4.0113,-4.0163,-4.0188,-4.0205,-4.0421,-4.0539,-4.058,-4.0661,-4.0734,-4.07,-4.0666,-4.0614,-4.068,-4.0971,-4.1203,-4.1413,-4.1657,-4.1827,-4.1845,-4.1827,-4.174,-4.1745,-4.1609,-4.1339,-4.1051,-4.0911,-4.0517,-3.9906,-3.9584,-3.9226,-3.8885,-3.8635,-3.8492,-3.8044,-3.7916,-3.8144,-3.8229,-3.8139,-3.8221,-3.8287,-3.8352,-3.8449,-3.8465,-3.8481,-3.8387,-3.8415,-3.8263,-3.8276,-3.8068,-3.7603,-3.725,-3.7151,-3.7028,-3.686,-3.6407,-3.5914,-3.5391,-3.5008,-3.4641,-3.4328,-3.437,-3.4393,-3.4431,-3.4542,-3.472,-3.4946,-3.5101,-3.517,-3.5185,-4.4598,-4.4598,-4.4598,-4.4598,-4.4598,-4.4598,-4.4598,-4.4598,-4.4598,-4.4598,-4.4598,-4.4598,-4.4598,-4.4598,-4.4598,-4.4598,-4.4598,-4.4598,-4.4598,-4.4598,-4.4598,-4.4598,-4.4598,-4.4598,-4.4598,-4.4598,-4.4598,-4.4598,-4.4598,-4.4598,-4.4598,-4.4598,-4.4598,-4.4598,-4.4581,-4.4479,-4.4333,-4.3842,-4.3436,-4.2885,-4.2117,-4.1525,-4.095,-4.0561,-4.0316,-4.0113,-4.0113,-4.0113,-4.013,-4.0206,-4.0383,-4.0586,-4.0688,-4.09,-4.106,-4.1129,-4.0873,-4.0686,-4.0497,-4.0527,-4.0752,-4.0877,-4.1198,-4.1335,-4.1358,-4.1358,-4.1475,-4.1556,-4.1675,-4.1562,-4.1286,-4.1203,-4.0884,-4.0296,-3.9959,-3.9623,-3.9126,-3.8896,-3.8773,-3.8299,-3.8235,-3.833,-3.824,-3.7987,-3.7933,-3.7966,-3.8035,-3.8136,-3.8271,-3.8285,-3.832,-3.8366,-3.8415,-3.8355,-3.8384,-3.8337,-3.8056,-3.7854,-3.7713,-3.7537,-3.7153,-3.6667,-3.6016,-3.5378,-3.5031,-3.4668,-3.4278,-3.4173,-3.4233,-3.4305,-3.4397,-3.4639,-3.4917,-3.5011,-3.5011,-4.4598,-4.4598,-4.4598,-4.4598,-4.4598,-4.4598,-4.4598,-4.4598,-4.4598,-4.4598,-4.4598,-4.4598,-4.4598,-4.4598,-4.4598,-4.4598,-4.4598,-4.4598,-4.4598,-4.4598,-4.4598,-4.4598,-4.4598,-4.4598,-4.4598,-4.4598,-4.4598,-4.4598,-4.4598,-4.4598,-4.4598,-4.4598,-4.4598,-4.4598,-4.4598,-4.4581,-4.4513,-4.4231,-4.3927,-4.3453,-4.2861,-4.21,-4.1593,-4.1187,-4.0857,-4.0519,-4.0434,-4.0434,-4.0367,-4.0502,-4.0857,-4.1128,-4.1467,-4.1941,-4.2151,-4.2049,-4.1534,-4.0883,-4.0434,-4.0492,-4.033,-4.0485,-4.068,-4.084,-4.0935,-4.0942,-4.1065,-4.1157,-4.1232,-4.1386,-4.1415,-4.1297,-4.1121,-4.0753,-4.0433,-3.996,-3.9399,-3.9172,-3.9119,-3.9009,-3.9083,-3.9051,-3.8695,-3.8378,-3.8057,-3.7898,-3.7935,-3.7829,-3.7917,-3.8018,-3.8087,-3.8223,-3.8272,-3.8322,-3.8387,-3.8433,-3.8407,-3.8079,-3.8248,-3.8126,-3.7749,-3.7287,-3.664,-3.6007,-3.5468,-3.4956,-3.4255,-3.4004,-3.4036,-3.4111,-3.4204,-3.4386,-3.4678,-3.4759,-3.4781,-4.4598,-4.4598,-4.4598,-4.4598,-4.4598,-4.4598,-4.4598,-4.4598,-4.4598,-4.4598,-4.4598,-4.4598,-4.4598,-4.4598,-4.4598,-4.4598,-4.4598,-4.4598,-4.4598,-4.4598,-4.4598,-4.4598,-4.4598,-4.4598,-4.4598,-4.4598,-4.4598,-4.4598,-4.4598,-4.4598,-4.4598,-4.4598,-4.4598,-4.4598,-4.4598,-4.4598,-4.4598,-4.453,-4.4265,-4.3944,-4.3589,-4.2868,-4.2405,-4.1965,-4.1687,-4.1271,-4.1018,-4.1331,-4.1297,-4.1085,-4.161,-4.1948,-4.2016,-4.2185,-4.2286,-4.2202,-4.1644,-4.1068,-4.0857,-4.0443,-4.018,-4.0205,-4.0313,-4.0436,-4.0558,-4.0614,-4.0686,-4.0782,-4.0853,-4.1012,-4.1105,-4.1047,-4.0978,-4.0804,-4.0556,-4.0261,-3.9758,-3.9579,-3.9532,-3.932,-3.9421,-3.9308,-3.8969,-3.88,-3.8463,-3.8131,-3.787,-3.7755,-3.7606,-3.7702,-3.781,-3.7933,-3.8003,-3.802,-3.8189,-3.8271,-3.8303,-3.8334,-3.8399,-3.841,-3.8097,-3.7637,-3.7144,-3.6534,-3.5823,-3.4899,-3.3945,-3.3981,-3.441,-3.4031,-3.4066,-3.4234,-3.4393,-3.451,-3.458,-4.4598,-4.4598,-4.4598,-4.4598,-4.4598,-4.4598,-4.4598,-4.4598,-4.4598,-4.4598,-4.4598,-4.4598,-4.4598,-4.4598,-4.4598,-4.4598,-4.4598,-4.4598,-4.4598,-4.4598,-4.4598,-4.4598,-4.4598,-4.4598,-4.4598,-4.4598,-4.4598,-4.4598,-4.4598,-4.4598,-4.4598,-4.4598,-4.4598,-4.4598,-4.4598,-4.4598,-4.4598,-4.4598,-4.4513,-4.4282,-4.3978,-4.3606,-4.3115,-4.2811,-4.2557,-4.2066,-4.1762,-4.2202,-4.2016,-4.1813,-4.2354,-4.2709,-4.2844,-4.2997,-4.2929,-4.2878,-4.2489,-4.1796,-4.1271,-4.0832,-4.0468,-4.0197,-4.0113,-4.0171,-4.0271,-4.0345,-4.0436,-4.0534,-4.0551,-4.06,-4.0697,-4.0752,-4.0734,-4.0717,-4.0614,-4.0504,-4.0281,-4.0051,-3.9806,-3.9525,-3.9416,-3.9366,-3.9234,-3.9086,-3.8846,-3.8446,-3.8119,-3.7878,-3.7594,-3.7357,-3.7481,-3.7594,-3.7649,-3.7703,-3.7863,-3.8019,-3.8088,-3.8121,-3.8219,-3.8216,-3.816,-3.7958,-3.7451,-3.6791,-3.6058,-3.5177,-3.4331,-3.4682,-3.4949,-3.4573,-3.4325,-3.4581,-3.4624,-3.4419,-3.4447,-4.4598,-4.4598,-4.4598,-4.4598,-4.4598,-4.4598,-4.4598,-4.4598,-4.4598,-4.4598,-4.4598,-4.4598,-4.4598,-4.4598,-4.4598,-4.4598,-4.4598,-4.4598,-4.4598,-4.4598,-4.4598,-4.4598,-4.4598,-4.4598,-4.4598,-4.4598,-4.4598,-4.4598,-4.4598,-4.4598,-4.4598,-4.4598,-4.4598,-4.4598,-4.4598,-4.4598,-4.4598,-4.4598,-4.4598,-4.4496,-4.435,-4.3944,-4.3477,-4.342,-4.2997,-4.2506,-4.2439,-4.2455,-4.2482,-4.2658,-4.3014,-4.347,-4.3707,-4.3961,-4.3893,-4.3623,-4.325,-4.2489,-4.1711,-4.1187,-4.0679,-4.0367,-4.0113,-4.0121,-4.0146,-4.0171,-4.0263,-4.0313,-4.0355,-4.0379,-4.0436,-4.0468,-4.0468,-4.0468,-4.0392,-4.0358,-4.0273,-4.0136,-4.0082,-3.985,-3.9767,-3.972,-3.9727,-3.9623,-3.9318,-3.883,-3.8555,-3.8279,-3.7837,-3.7436,-3.7299,-3.7376,-3.7257,-3.7316,-3.7521,-3.7649,-3.7775,-3.7881,-3.7949,-3.8018,-3.7947,-3.7837,-3.7727,-3.6984,-3.6188,-3.5652,-3.5115,-3.5329,-3.5396,-3.517,-3.5011,-3.5119,-3.4972,-3.4692,-3.434,-4.4598,-4.4598,-4.4598,-4.4598,-4.4598,-4.4598,-4.4598,-4.4598,-4.4598,-4.4598,-4.4598,-4.4598,-4.4598,-4.4598,-4.4598,-4.4598,-4.4598,-4.4598,-4.4598,-4.4598,-4.4598,-4.4598,-4.4598,-4.4598,-4.4598,-4.4598,-4.4598,-4.4598,-4.4598,-4.4598,-4.4598,-4.4598,-4.4598,-4.4598,-4.4598,-4.4598,-4.4598,-4.4598,-4.4598,-4.4598,-4.4513,-4.4513,-4.4282,-4.4215,-4.3938,-4.3538,-4.3521,-4.3673,-4.3504,-4.3453,-4.3961,-4.4231,-4.4361,-4.4513,-4.4485,-4.4265,-4.3741,-4.3014,-4.2252,-4.1576,-4.0967,-4.0434,-4.0146,-4.0113,-4.0113,-4.0113,-4.0113,-4.0138,-4.0163,-4.0188,-4.0213,-4.0221,-4.0221,-4.0221,-4.0213,-4.0213,-4.0213,-4.0246,-4.0271,-4.0211,-4.0141,-4.0129,-4.0141,-4.0018,-3.9727,-3.947,-3.9264,-3.8956,-3.8408,-3.7937,-3.7447,-3.7346,-3.6911,-3.6926,-3.7124,-3.7279,-3.7373,-3.7503,-3.7595,-3.7631,-3.7703,-3.7614,-3.747,-3.6932,-3.6285,-3.5903,-3.5694,-3.5706,-3.5708,-3.5648,-3.5687,-3.5765,-3.5542,-3.5245,-3.4646,-4.4372,-4.4372,-4.4372,-4.4429,-4.444,-4.4485,-4.4497,-4.457,-4.4598,-4.4598,-4.4598,-4.4598,-4.4598,-4.4598,-4.4598,-4.4598,-4.4598,-4.4598,-4.4598,-4.4598,-4.4598,-4.4598,-4.4598,-4.4598,-4.4598,-4.4598,-4.4598,-4.4598,-4.457,-4.4598,-4.4598,-4.457,-4.457,-4.457,-4.457,-4.457,-4.457,-4.4598,-4.457,-4.457,-4.457,-4.4598,-4.4598,-4.4598,-4.4496,-4.4231,-4.4265,-4.4384,-4.4231,-4.4079,-4.4367,-4.4468,-4.453,-4.4581,-4.4598,-4.4496,-4.413,-4.3606,-4.2828,-4.2083,-4.1356,-4.0832,-4.0214,-4.0197,-4.0113,-4.0113,-4.0113,-4.0138,-4.0138,-4.0163,-4.0163,-4.0146,-4.0146,-4.0146,-4.0163,-4.0163,-4.0163,-4.0146,-4.0171,-4.0162,-4.0119,-4.0119,-4.0143,-4.0109,-3.987,-3.987,-3.9725,-3.9401,-3.8891,-3.8557,-3.8009,-3.7531,-3.7236,-3.6724,-3.667,-3.6814,-3.6952,-3.7087,-3.7184,-3.726,-3.7299,-3.7318,-3.7158,-3.6805,-3.6558,-3.6471,-3.6307,-3.6262,-3.6286,-3.6282,-3.6343,-3.6401,-3.6093,-3.5786,-3.5271,-4.4039,-4.4039,-4.4039,-4.4109,-4.4207,-4.4236,-4.4338,-4.4514,-4.4514,-4.4514,-4.4514,-4.4514,-4.4542,-4.457,-4.4598,-4.4598,-4.4598,-4.4598,-4.4598,-4.4598,-4.4598,-4.4598,-4.4598,-4.4598,-4.457,-4.4542,-4.4542,-4.4514,-4.444,-4.4468,-4.4468,-4.4542,-4.4542,-4.4514,-4.4514,-4.4514,-4.4485,-4.4457,-4.4457,-4.4485,-4.4559,-4.4587,-4.4598,-4.4598,-4.4598,-4.4598,-4.4598,-4.4598,-4.4598,-4.4581,-4.4564,-4.4581,-4.4598,-4.4598,-4.4598,-4.4547,-4.453,-4.3995,-4.3386,-4.2743,-4.2066,-4.1424,-4.0696,-4.0417,-4.0417,-4.0417,-4.0434,-4.0282,-4.0282,-4.013,-4.013,-4.0113,-4.0113,-4.0113,-4.0113,-4.0113,-4.0113,-4.0113,-4.0096,-4.0096,-4.0096,-4.0138,-4.0113,-4.0096,-4.0096,-4.0096,-3.996,-3.9656,-3.9359,-3.9171,-3.8833,-3.8365,-3.798,-3.7396,-3.6689,-3.6478,-3.6681,-3.667,-3.6771,-3.6851,-3.6928,-3.6893,-3.6893,-3.6878,-3.6693,-3.6581,-3.675,-3.6791,-3.6845,-3.6788,-3.6926,-3.6904,-3.674,-3.6415,-3.5963,-4.3667,-4.3713,-4.3697,-4.3756,-4.3889,-4.3889,-4.4023,-4.4155,-4.4184,-4.4184,-4.42,-4.4212,-4.4298,-4.457,-4.4598,-4.4598,-4.4598,-4.4598,-4.4598,-4.4598,-4.457,-4.457,-4.4542,-4.4468,-4.4468,-4.4412,-4.4327,-4.4298,-4.4196,-4.4167,-4.4184,-4.4184,-4.4184,-4.4184,-4.4184,-4.4184,-4.4184,-4.4184,-4.4184,-4.4184,-4.4286,-4.4372,-4.457,-4.4598,-4.4598,-4.4598,-4.4598,-4.4598,-4.4598,-4.4598,-4.4598,-4.4598,-4.4598,-4.4598,-4.4598,-4.4598,-4.4598,-4.4231,-4.3656,-4.325,-4.2598,-4.2185,-4.166,-4.1593,-4.1593,-4.1627,-4.1424,-4.0933,-4.079,-4.0316,-4.0214,-4.013,-4.0113,-4.0113,-4.0113,-4.0113,-4.0113,-4.0113,-4.0096,-4.0096,-4.0096,-4.0113,-4.0113,-4.0096,-4.0096,-4.0113,-4.0113,-3.9842,-3.9808,-3.969,-3.9554,-3.9129,-3.8676,-3.7955,-3.7177,-3.6509,-3.6469,-3.6387,-3.6381,-3.6485,-3.6509,-3.6426,-3.6447,-3.653,-3.6612,-3.6559,-3.6792,-3.6932,-3.7048,-3.6984,-3.7327,-3.7417,-3.722,-3.6952,-3.6433]},{"header":{"parameterUnit":"m.s-1","parameterCategory":1,"la1":31.0,"la2":29.5877,"lo1":-88.7671,"lo2":-86.6584,"dy":0.0162,"dx":0.0185,"nx":115,"ny":88,"refTime":"2024-03-28T06:00:00:Z","depth":0,"parameterNumber":3,"parameterNumberName":"V-component_of_WINDS"},"data":[0.0,0.0,0.0,0.0,0.0,0.0,0.0,0.0,0.0,0.0,0.0,0.0,0.0,0.0,0.0,0.0,0.0,0.0,0.0,0.0,0.0,0.0,0.0,0.0,0.0,0.0,0.0,0.0,0.0,0.0,0.0,0.0,0.0,0.0,0.0,0.0,0.0,0.0,0.0,0.0,0.0,0.0,0.0,0.0,0.0,0.0,0.0,0.0,0.0,0.0,0.0,0.0,0.0,0.0,0.0,0.0,0.0,0.0,0.0,0.0,0.0,0.0,0.0,0.0,0.0,0.0,0.0,0.0,0.0,0.0,0.0,0.0,0.0,0.0,0.0,0.0,0.0,0.0,0.0,0.0,0.0,0.0,0.0,0.0,0.0,0.0,0.0,0.0,0.0,0.0,0.0,0.0,0.0,0.0,0.0,0.0,0.0,0.0,0.0,0.0,0.0,0.0,0.0,0.0,0.0,0.0,0.0,0.0,0.0,0.0,0.0,0.0,0.0,0.0,0.0,0.0,0.0,0.0,0.0,0.0,0.0,0.0,0.0,0.0,0.0,0.0,0.0,0.0,0.0,0.0,0.0,0.0,0.0,0.0,0.0,0.0,0.0,0.0,0.0,0.0,0.0,0.0,0.0,0.0,0.0,0.0,0.0,0.0,0.0,0.0,0.0,0.0,0.0,0.0,0.0,0.0,0.0,0.0,0.0,0.0,0.0,0.0,0.0,0.0,0.0,0.0,0.0,0.0,0.0,0.0,0.0,0.0,0.0,0.0,0.0,0.0,0.0,0.0,0.0,0.0,0.0,0.0,0.0,0.0,0.0,0.0,0.0,0.0,0.0,0.0,0.0,0.0,0.0,0.0,0.0,0.0,0.0,0.0,0.0,0.0,0.0,0.0,0.0,0.0,0.0,0.0,0.0,0.0,0.0,0.0,0.0,0.0,0.0,0.0,0.0,0.0,0.0,0.0,0.0,0.0,0.0,0.0,0.0,0.0,0.0,0.0,0.0,0.0,0.0,0.0,0.0,0.0,0.0,0.0,0.0,0.0,0.0,0.0,0.0,0.0,0.0,0.0,0.0,0.0,0.0,0.0,0.0,0.0,0.0,0.0,0.0,0.0,0.0,0.0,0.0,0.0,0.0,0.0,0.0,0.0,0.0,0.0,0.0,0.0,0.0,0.0,0.0,0.0,0.0,0.0,0.0,0.0,0.0,0.0,0.0,0.0,0.0,0.0,0.0,0.0,0.0,0.0,0.0,0.0,0.0,0.0,0.0,0.0,0.0,0.0,0.0,0.0,0.0,0.0,0.0,0.0,0.0,0.0,0.0,0.0,0.0,0.0,0.0,0.0,0.0,0.0,0.0,0.0,0.0,0.0,0.0,0.0,0.0,0.0,0.0,0.0,0.0,0.0,0.0,0.0,0.0,0.0,0.0,0.0,0.0,0.0,0.0,0.0,0.0,0.0,0.0,0.0,0.0,0.0,0.0,0.0,0.0,0.0,0.0,0.0,0.0,0.0,0.0,0.0,0.0,0.0,0.0,0.0,0.0,0.0,0.0,0.0,0.0,0.0,0.0,0.0,0.0,0.0,0.0,0.0,0.0,0.0,0.0,0.0,0.0,0.0,0.0,0.0,0.0,0.0,0.0,0.0,0.0,0.0,0.0,0.0,0.0,0.0,0.0,0.0,0.0,0.0,0.0,0.0,0.0,0.0,0.0,0.0,0.0,0.0,0.0,0.0,0.0,0.0,0.0,0.0,0.0,0.0,0.0,0.0,0.0,0.0,0.0,0.0,0.0,0.0,0.0,0.0,0.0,0.0,0.0,0.0,0.0,0.0,0.0,0.0,0.0,0.0,0.0,0.0,0.0,0.0,0.0,0.0,0.0,0.0,0.0,0.0,0.0,0.0,0.0,0.0,0.0,0.0,0.0,0.0,0.0,0.0,0.0,0.0,0.0,0.0,0.0,0.0,0.0,0.0,0.0,0.0,0.0,0.0,0.0,0.0,0.0,0.0,0.0,0.0,0.0,0.0,0.0,0.0,0.0,0.0,0.0,0.0,0.0,0.0,0.0,0.0,0.0,0.0,0.0,0.0,0.0,0.0,0.0,0.0,0.0,0.0,0.0,0.0,0.0,0.0,0.0,0.0,0.0,0.0,0.0,0.0,0.0,0.0,0.0,0.0,0.0,0.0,0.0,0.0,0.0,0.0,0.0,0.0,0.0,0.0,0.0,0.0,0.0,0.0,0.0,0.0,0.0,0.0,0.0,0.0,0.0,0.0,0.0,0.0,0.0,0.0,0.0,0.0,0.0,0.0,0.0,0.0,0.0,0.0,0.0,0.0,0.0,0.0,0.0,0.0,0.0,0.0,0.0,0.0,0.0,0.0,0.0,0.0,0.0,0.0,0.0,0.0,0.0,0.0,0.0,0.0,0.0,0.0,0.0,0.0,0.0,0.0,0.0,0.0,0.0,0.0,0.0,0.0,0.0,0.0,0.0,0.0,0.0,0.0,0.0,0.0,0.0,0.0,0.0,0.0,0.0,0.0,0.0,0.0,0.0,0.0,0.0,0.0,0.0,0.0,0.0,0.0,0.0,0.0,0.0,0.0,0.0,0.0,0.0,0.0,0.0,0.0,0.0,0.0,0.0,0.0,0.0,0.0,0.0,0.0,0.0,0.0,0.0,0.0,0.0,0.0,0.0,0.0,0.0,0.0,0.0,0.0,0.0,0.0,0.0,0.0,0.0,0.0,0.0,0.0,0.0,0.0,0.0,0.0,0.0,0.0,0.0,0.0,0.0,0.0,0.0,0.0,0.0,0.0,0.0,0.0,0.0,0.0,0.0,0.0,0.0,0.0,0.0,0.0,0.0,0.0,0.0,0.0,0.0,0.0,0.0,0.0,0.0,0.0,0.0,0.0,0.0,0.0,0.0,0.0,0.0,0.0,0.0,0.0,0.0,0.0,0.0,0.0,0.0,0.0,0.0,0.0,0.0,0.0,0.0,0.0,0.0,0.0,0.0,0.0,0.0,0.0,0.0,0.0,0.0,0.0,0.0,0.0,0.0,0.0,0.0,0.0,0.0,0.0,0.0,0.0,0.0,0.0,0.0,0.0,0.0,0.0,0.0,0.0,0.0,0.0,0.0,0.0,0.0,0.0,0.0,0.0,0.0,0.0,0.0,0.0,0.0,0.0,0.0,0.0,0.0,0.0,0.0,0.0,0.0,0.0,0.0,0.0,0.0,0.0,0.0,0.0,0.0,0.0,0.0,0.0,0.0,0.0,0.0,0.0,0.0,0.0,0.0,0.0,0.0,0.0,0.0,0.0,0.0,0.0,0.0,0.0,0.0,0.0,0.0,0.0,0.0,0.0,0.0,0.0,0.0,0.0,0.0,0.0,0.0,0.0,0.0,0.0,0.0,0.0,0.0,0.0,0.0,0.0,0.0,0.0,0.0,0.0,0.0,0.0,0.0,0.0,0.0,0.0,0.0,0.0,0.0,0.0,0.0,0.0,0.0,0.0,0.0,0.0,0.0,0.0,0.0,0.0,0.0,0.0,0.0,0.0,0.0,0.0,0.0,0.0,0.0,0.0,0.0,0.0,0.0,0.0,0.0,0.0,0.0,0.0,0.0,0.0,0.0,0.0,0.0,0.0,0.0,0.0,0.0,0.0,0.0,0.0,0.0,0.0,0.0,0.0,0.0,0.0,0.0,0.0,0.0,0.0,0.0,0.0,0.0,0.0,0.0,0.0,0.0,0.0,0.0,0.0,0.0,0.0,0.0,0.0,0.0,0.0,0.0,0.0,0.0,0.0,0.0,0.0,0.0,0.0,0.0,0.0,0.0,0.0,0.0,0.0,0.0,0.0,0.0,0.0,0.0,0.0,0.0,0.0,0.0,0.0,0.0,0.0,0.0,0.0,0.0,0.0,0.0,0.0,0.0,0.0,0.0,0.0,0.0,0.0,0.0,0.0,0.0,0.0,0.0,0.0,0.0,0.0,0.0,0.0,0.0,0.0,0.0,0.0,0.0,0.0,0.0,0.0,0.0,0.0,0.0,0.0,0.0,0.0,0.0,0.0,0.0,0.0,0.0,0.0,0.0,0.0,0.0,0.0,0.0,0.0,0.0,0.0,0.0,0.0,0.0,0.0,0.0,0.0,0.0,0.0,0.0,0.0,0.0,0.0,0.0,0.0,0.0,0.0,0.0,0.0,0.0,0.0,0.0,0.0,0.0,0.0,0.0,0.0,0.0,0.0,0.0,0.0,0.0,0.0,0.0,0.0,-0.5392,0.0,0.0,0.0,0.0,0.0,0.0,0.0,0.0,0.0,0.0,0.0,0.0,0.0,0.0,0.0,0.0,0.0,0.0,0.0,0.0,0.0,0.0,0.0,0.0,0.0,0.0,0.0,0.0,0.0,0.0,0.0,0.0,0.0,0.0,0.0,0.0,0.0,0.0,0.0,0.0,0.0,0.0,0.0,0.0,0.0,0.0,0.0,0.0,0.0,0.0,0.0,0.0,0.0,0.0,0.0,0.0,0.0,0.0,0.0,0.0,0.0,0.0,0.0,0.0,0.0,0.0,0.0,0.0,0.0,0.0,0.0,0.0,0.0,0.0,0.0,0.0,0.0,0.0,0.0,0.0,0.0,0.0,0.0,0.0,0.0,0.0,0.0,0.0,0.0,0.0,0.0,0.0,0.0,0.0,0.0,0.0,0.0,0.0,0.0,0.0,0.0,0.0,0.0,0.0,0.0,0.0,0.0,0.0,0.0,0.0,-0.519,-0.5395,-0.5395,-0.5395,-0.5392,0.0,0.0,0.0,0.0,0.0,0.0,0.0,0.0,0.0,0.0,0.0,0.0,0.0,0.0,0.0,0.0,0.0,0.0,0.0,0.0,0.0,0.0,0.0,0.0,0.0,0.0,0.0,0.0,0.0,0.0,0.0,0.0,0.0,0.0,0.0,0.0,0.0,0.0,0.0,0.0,0.0,0.0,0.0,0.0,0.0,0.0,0.0,0.0,0.0,0.0,0.0,0.0,0.0,0.0,0.0,0.0,0.0,0.0,0.0,0.0,0.0,0.0,0.0,0.0,0.0,0.0,0.0,0.0,0.0,0.0,0.0,0.0,0.0,0.0,0.0,0.0,0.0,0.0,0.0,0.0,0.0,0.0,0.0,0.0,0.0,0.0,0.0,0.0,0.0,0.0,0.0,0.0,0.0,0.0,0.0,0.0,0.0,0.0,0.0,0.0,0.0,0.0,0.0,0.0,0.0,0.0,0.0,0.0,0.0,0.0,0.0,0.0,-0.5412,-0.5395,-0.5425,0.0,0.0,0.0,0.0,0.0,0.0,0.0,0.0,0.0,0.0,0.0,0.0,0.0,0.0,0.0,0.0,0.0,0.0,0.0,0.0,0.0,0.0,0.0,0.0,0.0,0.0,0.0,0.0,0.0,0.0,0.0,0.0,0.0,0.0,0.0,0.0,0.0,0.0,0.0,0.0,0.0,0.0,0.0,0.0,0.0,0.0,0.0,0.0,0.0,0.0,0.0,0.0,0.0,0.0,0.0,0.0,0.0,0.0,0.0,0.0,0.0,0.0,0.0,0.0,0.0,0.0,0.0,0.0,0.0,0.0,0.0,0.0,0.0,0.0,0.0,0.0,0.0,0.0,0.0,0.0,0.0,0.0,0.0,0.0,0.0,0.0,0.0,0.0,0.0,0.0,0.0,0.0,0.0,0.0,0.0,0.0,0.0,0.0,0.0,0.0,0.0,0.0,0.0,0.0,0.0,0.0,0.0,0.0,0.0,0.0,-0.4849,-0.528,-0.5363,0.0,-0.5385,0.0,0.0,0.0,0.0,0.0,0.0,0.0,0.0,0.0,0.0,0.0,0.0,0.0,0.0,0.0,0.0,0.0,0.0,0.0,0.0,0.0,0.0,0.0,0.0,0.0,0.0,0.0,0.0,0.0,0.0,0.0,0.0,0.0,0.0,0.0,0.0,0.0,0.0,0.0,0.0,0.0,0.0,0.0,0.0,0.0,0.0,0.0,0.0,0.0,0.0,0.0,0.0,0.0,0.0,0.0,0.0,0.0,0.0,0.0,0.0,0.0,0.0,0.0,0.0,0.0,0.0,0.0,0.0,0.0,0.0,0.0,0.0,0.0,0.0,0.0,0.0,0.0,0.0,0.0,0.0,0.0,0.0,0.0,0.0,0.0,0.0,0.0,0.0,0.0,0.0,0.0,0.0,0.0,0.0,0.0,0.0,0.0,0.0,0.0,0.0,0.0,0.0,0.0,0.0,0.0,0.0,0.0,0.0,0.0,0.0,-0.4451,-0.4873,-0.5122,-0.5292,0.0,0.0,0.0,0.0,0.0,0.0,0.0,0.0,0.0,0.0,0.0,0.0,0.0,0.0,0.0,0.0,0.0,0.0,0.0,0.0,0.0,0.0,0.0,0.0,0.0,0.0,0.0,0.0,0.0,0.0,0.0,0.0,0.0,0.0,0.0,0.0,0.0,0.0,0.0,0.0,0.0,0.0,0.0,0.0,0.0,0.0,0.0,0.0,0.0,0.0,0.0,0.0,0.0,0.0,0.0,0.0,0.0,0.0,0.0,0.0,0.0,0.0,0.0,0.0,0.0,0.0,0.0,0.0,0.0,0.0,0.0,0.0,0.0,0.0,0.0,0.0,0.0,0.0,0.0,0.0,0.0,0.0,0.0,0.0,0.0,0.0,0.0,0.0,0.0,0.0,0.0,0.0,0.0,0.0,0.0,0.0,0.0,0.0,0.0,0.0,0.0,0.0,0.0,0.0,0.0,0.0,0.0,0.0,0.0,0.0,-0.3811,-0.4192,-0.4694,-0.5033,-0.5272,-0.5399,0.0,0.0,0.0,0.0,0.0,0.0,0.0,0.0,0.0,0.0,0.0,0.0,0.0,0.0,0.0,0.0,0.0,0.0,0.0,0.0,0.0,0.0,0.0,0.0,0.0,0.0,0.0,0.0,0.0,0.0,0.0,0.0,0.0,0.0,0.0,0.0,0.0,0.0,0.0,0.0,0.0,0.0,0.0,0.0,0.0,0.0,0.0,0.0,0.0,0.0,0.0,0.0,0.0,0.0,0.0,0.0,0.0,0.0,0.0,0.0,0.0,0.0,0.0,0.0,0.0,0.0,0.0,0.0,0.0,0.0,0.0,0.0,0.0,0.0,0.0,0.0,0.0,0.0,0.0,0.0,0.0,0.0,0.0,0.0,0.0,0.0,0.0,0.0,0.0,0.0,0.0,0.0,0.0,0.0,0.0,0.0,0.0,0.0,0.0,0.0,0.0,0.0,0.0,0.0,0.0,0.0,0.0,0.0,-0.2934,-0.3511,-0.4225,-0.5027,-0.5323,-0.5444,0.0,0.0,0.0,0.0,0.0,0.0,0.0,0.0,0.0,0.0,0.0,0.0,0.0,0.0,0.0,0.0,0.0,0.0,0.0,0.0,0.0,0.0,0.0,0.0,0.0,0.0,0.0,0.0,0.0,0.0,0.0,0.0,0.0,0.0,0.0,0.0,0.0,0.0,0.0,0.0,0.0,0.0,0.0,0.0,0.0,0.0,0.0,0.0,0.0,0.0,0.0,0.0,0.0,0.0,0.0,0.0,0.0,0.0,0.0,0.0,0.0,0.0,0.0,0.0,0.0,0.0,0.0,0.0,0.0,0.0,0.0,0.0,0.0,0.0,0.0,0.0,0.0,0.0,0.0,0.0,0.0,0.0,0.0,0.0,0.0,0.0,0.0,0.0,0.0,0.0,0.0,0.0,0.0,0.0,0.0,0.0,0.0,0.0,0.0,0.0,0.0,0.0,0.0,0.0,0.0,0.0,0.0,0.0,0.0,-0.2383,-0.3179,-0.3995,-0.4761,-0.4956,-0.5087,0.0,0.0,0.0,0.0,0.0,0.0,0.0,0.0,0.0,0.0,0.0,0.0,0.0,0.0,0.0,0.0,0.0,0.0,0.0,0.0,0.0,0.0,0.0,0.0,0.0,0.0,0.0,0.0,0.0,0.0,0.0,0.0,0.0,0.0,0.0,0.0,0.0,0.0,0.0,0.0,0.0,0.0,0.0,0.0,0.0,0.0,0.0,0.0,0.0,0.0,0.0,0.0,0.0,0.0,0.0,0.0,0.0,0.0,0.0,0.0,0.0,0.0,0.0,0.0,0.0,0.0,0.0,0.0,0.0,0.0,0.0,0.0,0.0,0.0,0.0,0.0,0.0,0.0,0.0,0.0,0.0,0.0,0.0,0.0,0.0,0.0,0.0,0.0,0.0,0.0,0.0,0.0,0.0,0.0,0.0,0.0,0.0,0.0,0.0,0.0,0.0,0.0,0.0,0.0,0.0,0.0,0.0,0.0,0.0,-0.2286,0.0,-0.3832,-0.447,-0.4713,-0.4891,0.0,0.0,0.0,0.0,0.0,0.0,0.0,0.0,0.0,0.0,0.0,0.0,0.0,0.0,0.0,0.0,0.0,0.0,0.0,0.0,0.0,0.0,0.0,0.0,0.0,0.0,0.0,0.0,0.0,0.0,0.0,0.0,0.0,0.0,0.0,0.0,0.0,0.0,0.0,0.0,0.0,0.0,0.0,0.0,0.0,0.0,0.0,0.0,0.0,0.0,0.0,0.0,0.0,0.0,0.0,0.0,0.0,0.0,0.0,0.0,0.0,0.0,0.0,0.0,0.0,0.0,0.0,0.0,0.0,0.0,0.0,0.0,0.0,0.0,0.0,0.0,0.0,0.0,0.0,0.0,0.0,0.0,0.0,0.0,0.0,0.0,0.0,0.0,0.0,0.0,0.0,0.0,0.0,0.0,0.0,0.0,0.0,0.0,0.0,0.0,0.0,0.0,0.0,0.0,0.0,0.0,0.0,0.0,-0.175,-0.2651,-0.318,-0.3714,-0.4283,-0.4699,-0.4896,0.0,0.0,0.0,0.0,0.0,0.0,0.0,0.0,0.0,0.0,0.0,0.0,0.0,0.0,0.0,0.0,0.0,0.0,0.0,0.0,0.0,0.0,0.0,0.0,0.0,0.0,0.0,0.0,0.0,0.0,0.0,0.0,0.0,0.0,0.0,0.0,0.0,0.0,0.0,0.0,0.0,0.0,0.0,0.0,0.0,0.0,0.0,0.0,0.0,0.0,0.0,0.0,0.0,0.0,0.0,0.0,0.0,0.0,0.0,0.0,0.0,0.0,0.0,0.0,0.0,0.0,0.0,0.0,0.0,0.0,0.0,0.0,0.0,0.0,0.0,0.0,0.0,0.0,0.0,0.0,0.0,0.0,0.0,0.0,0.0,0.0,0.0,0.0,0.0,0.0,0.0,0.0,0.0,0.0,0.0,0.0,0.0,0.0,0.0,0.0,0.0,0.0,0.0,0.0,0.0,0.0,0.0,0.0,0.0,-0.2004,-0.2669,-0.3305,-0.3944,-0.449,-0.4732,0.0,0.0,0.0,0.0,0.0,0.0,0.0,0.0,0.0,0.0,0.0,0.0,0.0,0.0,0.0,0.0,0.0,0.0,0.0,0.0,0.0,0.0,0.0,0.0,0.0,0.0,0.0,0.0,0.0,0.0,0.0,0.0,0.0,0.0,0.0,0.0,0.0,0.0,0.0,0.0,0.0,0.0,0.0,0.0,0.0,0.0,0.0,0.0,0.0,0.0,0.0,0.0,0.0,0.0,0.0,0.0,0.0,0.0,0.0,0.0,0.0,0.0,0.0,0.0,0.0,0.0,0.0,0.0,0.0,0.0,0.0,0.0,0.0,0.0,0.0,0.0,0.0,0.0,0.0,0.0,0.0,0.0,0.0,0.0,0.0,0.0,0.0,0.0,0.0,0.0,0.0,0.0,0.0,0.0,0.0,0.0,0.0,0.0,0.0,0.0,0.0,0.0,0.0,0.0,0.0,0.0,0.0,0.0,0.0,-0.1461,-0.2269,-0.2985,-0.357,-0.4178,-0.4473,-0.4437,0.0,0.0,0.0,0.0,0.0,0.0,0.0,0.0,0.0,0.0,0.0,0.0,0.0,0.0,0.0,0.0,0.0,0.0,0.0,0.0,0.0,0.0,0.0,0.0,0.0,0.0,0.0,0.0,0.0,0.0,0.0,0.0,0.0,0.0,0.0,0.0,0.0,0.0,0.0,0.0,0.0,0.0,0.0,0.0,0.0,0.0,0.0,0.0,0.0,0.0,0.0,0.0,0.0,0.0,0.0,0.0,0.0,0.0,0.0,0.0,0.0,0.0,0.0,0.0,0.0,0.0,0.0,0.0,0.0,0.0,0.0,0.0,0.0,0.0,0.0,0.0,0.0,0.0,0.0,0.0,0.0,0.0,0.0,0.0,0.0,0.0,0.0,0.0,0.0,0.0,0.0,0.0,0.0,0.0,0.0,0.0,0.0,0.0,0.0,0.0,0.0,0.0,0.0,0.0,0.0,0.0,0.0,0.0,-0.0944,-0.1931,-0.2688,-0.3186,-0.3789,-0.4128,0.0,0.0,0.0,0.0,0.0,0.0,0.0,0.0,0.0,0.0,0.0,0.0,0.0,0.0,0.0,0.0,0.0,0.0,0.0,0.0,0.0,0.0,0.0,0.0,0.0,0.0,0.0,0.0,0.0,0.0,0.0,0.0,0.0,0.0,0.0,0.0,0.0,0.0,0.0,0.0,0.0,0.0,0.0,0.0,0.0,0.0,0.0,0.0,0.0,0.0,0.0,0.0,0.0,0.0,0.0,0.0,0.0,0.0,0.0,0.0,0.0,0.0,0.0,0.0,0.0,0.0,0.0,0.0,0.0,0.0,0.0,0.0,0.0,0.0,0.0,0.0,0.0,0.0,0.0,0.0,0.0,0.0,0.0,0.0,0.0,0.0,0.0,0.0,0.0,0.0,0.0,0.0,0.0,0.0,0.0,0.0,0.0,0.0,0.0,0.0,0.0,0.0,0.0,0.0,0.0,0.0,0.0,0.0,0.0,-0.0564,-0.1291,-0.2144,-0.3002,-0.3653,-0.4017,0.0,0.0,0.0,0.0,0.0,0.0,0.0,0.0,0.0,0.0,0.0,0.0,0.0,0.0,0.0,0.0,0.0,0.0,0.0,0.0,0.0,0.0,0.0,0.0,0.0,0.0,0.0,0.0,0.0,0.0,0.0,0.0,0.0,0.0,0.0,0.0,0.0,0.0,0.0,0.0,0.0,0.0,0.0,0.0,0.0,0.0,0.0,0.0,0.0,0.0,0.0,0.0,0.0,0.0,0.0,0.0,0.0,0.0,0.0,0.0,0.0,0.0,0.0,0.0,0.0,0.0,0.0,0.0,0.0,0.0,0.0,0.0,0.0,0.0,0.0,0.0,0.0,0.0,0.0,0.0,0.0,0.0,0.0,0.0,0.0,0.0,0.0,0.0,0.0,0.0,0.0,0.0,0.0,0.0,0.0,0.0,0.0,0.0,0.0,0.0,0.0,0.0,0.0,0.0,0.0,0.0,0.0,0.0,-0.0352,-0.0418,-0.0952,-0.1644,-0.2457,-0.3191,-0.3685,0.0,0.0,0.0,0.0,0.0,0.0,0.0,0.0,0.0,0.0,0.0,0.0,0.0,0.0,0.0,0.0,0.0,0.0,0.0,0.0,0.0,0.0,0.0,0.0,0.0,0.0,0.0,0.0,0.0,0.0,0.0,0.0,0.0,0.0,0.0,0.0,0.0,0.0,0.0,0.0,0.0,0.0,0.0,0.0,0.0,0.0,0.0,0.0,0.0,0.0,0.0,0.0,0.0,0.0,0.0,0.0,0.0,0.0,0.0,0.0,0.0,0.0,0.0,0.0,0.0,0.0,0.0,0.0,0.0,0.0,0.0,0.0,0.0,0.0,0.0,0.0,0.0,0.0,0.0,0.0,0.0,0.0,0.0,0.0,0.0,0.0,0.0,0.0,0.0,0.0,0.0,0.0,0.0,0.0,0.0,0.0,0.0,0.0,0.0,0.0,0.0,0.0,0.0,0.0,0.0,0.0,0.0,0.0,-0.0318,-0.0348,-0.0756,-0.117,-0.1617,-0.2538,-0.3152,0.0,0.0,0.0,0.0,0.0,0.0,0.0,0.0,0.0,0.0,0.0,0.0,0.0,0.0,0.0,0.0,0.0,0.0,0.0,0.0,0.0,0.0,0.0,0.0,0.0,0.0,0.0,0.0,0.0,0.0,0.0,0.0,0.0,0.0,0.0,0.0,0.0,0.0,0.0,0.0,0.0,0.0,0.0,0.0,0.0,0.0,0.0,0.0,0.0,0.0,0.0,0.0,0.0,0.0,0.0,0.0,0.0,0.0,0.0,0.0,0.0,0.0,0.0,0.0,0.0,0.0,0.0,0.0,0.0,0.0,0.0,0.0,0.0,0.0,0.0,0.0,0.0,0.0,0.0,0.0,0.0,0.0,0.0,0.0,0.0,0.0,0.0,0.0,0.0,0.0,0.0,0.0,0.0,0.0,0.0,0.0,0.0,0.0,0.0,0.0,0.0,0.0,0.0,0.0,0.0,0.0,0.0,0.0,-0.0081,-0.0087,-0.0361,-0.0643,-0.0919,-0.1933,-0.264,0.0,0.0,0.0,0.0,0.0,0.0,0.0,0.0,0.0,0.0,0.0,0.0,0.0,0.0,0.0,0.0,0.0,0.0,0.0,0.0,0.0,0.0,0.0,0.0,0.0,0.0,0.0,0.0,0.0,0.0,0.0,0.0,0.0,0.0,0.0,0.0,0.0,0.0,0.0,0.0,0.0,0.0,0.0,0.0,0.0,0.0,0.0,0.0,-0.4873,0.0,0.0,0.0,0.0,0.0,0.0,0.0,0.0,0.0,0.0,0.0,0.0,0.0,0.0,0.0,0.0,0.0,0.0,0.0,0.0,0.0,0.0,0.0,0.0,0.0,0.0,0.0,0.0,0.0,0.0,0.0,0.0,0.0,0.0,0.0,0.0,0.0,0.0,0.0,0.0,0.0,0.0,0.0,0.0,0.0,0.0,0.0,0.0,0.0,0.0,0.0,0.0,0.0,0.0,0.0,0.0,0.0,0.0,0.0,0.0,0.0,-0.0137,-0.0325,-0.0562,-0.1251,-0.1927,0.0,0.0,0.0,0.0,0.0,0.0,0.0,0.0,0.0,0.0,0.0,0.0,0.0,0.0,0.0,0.0,0.0,0.0,0.0,0.0,0.0,0.0,0.0,0.0,0.0,0.0,0.0,0.0,0.0,0.0,0.0,0.0,0.0,0.0,0.0,0.0,0.0,0.0,0.0,0.0,0.0,0.0,0.0,0.0,0.0,0.0,0.0,0.0,0.0,0.0,0.0,0.0,0.0,0.0,0.0,0.0,0.0,0.0,0.0,0.0,0.0,0.0,0.0,0.0,0.0,0.0,0.0,0.0,0.0,0.0,0.0,0.0,0.0,0.0,0.0,0.0,0.0,0.0,0.0,0.0,0.0,0.0,0.0,0.0,0.0,0.0,0.0,0.0,0.0,0.0,0.0,0.0,0.0,0.0,0.0,0.0,0.0,0.0,0.0,0.0,0.0,0.0,0.0,0.0,0.0,0.0,0.0,0.0,0.0,0.0,0.0,-0.0093,-0.0332,-0.0626,-0.1129,-0.1827,0.0,0.0,0.0,0.0,0.0,0.0,0.0,0.0,0.0,0.0,0.0,0.0,0.0,0.0,0.0,0.0,0.0,0.0,0.0,0.0,0.0,0.0,0.0,0.0,0.0,0.0,0.0,0.0,0.0,0.0,0.0,0.0,0.0,0.0,0.0,0.0,0.0,0.0,-0.4114,-0.4368,0.0,0.0,0.0,0.0,0.0,0.0,0.0,0.0,-0.5377,0.0,0.0,0.0,0.0,0.0,0.0,0.0,0.0,0.0,0.0,0.0,0.0,0.0,0.0,0.0,0.0,0.0,0.0,0.0,0.0,0.0,0.0,0.0,0.0,0.0,0.0,0.0,0.0,0.0,0.0,0.0,0.0,0.0,0.0,0.0,0.0,0.0,0.0,0.0,0.0,0.0,0.0,0.0,0.0,0.0,0.0,0.0,0.0,0.0,0.0,0.0,0.0,0.0,0.0,0.0,0.0,0.0,0.0,0.0,0.0,0.0,0.0,-0.0046,-0.0263,-0.0528,-0.0778,0.0,0.0,0.0,0.0,0.0,0.0,0.0,0.0,0.0,0.0,0.0,0.0,0.0,0.0,0.0,0.0,0.0,0.0,0.0,0.0,0.0,0.0,0.0,0.0,0.0,0.0,0.0,0.0,0.0,0.0,0.0,0.0,0.0,0.0,0.0,0.0,0.0,0.0,0.0,-0.4623,-0.4701,0.0,0.0,0.0,0.0,0.0,0.0,0.0,0.0,-0.6109,0.0,0.0,0.0,0.0,0.0,0.0,0.0,0.0,0.0,0.0,0.0,0.0,0.0,0.0,0.0,0.0,0.0,0.0,0.0,0.0,0.0,0.0,0.0,0.0,0.0,0.0,0.0,0.0,0.0,0.0,0.0,0.0,0.0,0.0,0.0,0.0,0.0,0.0,0.0,0.0,0.0,0.0,0.0,0.0,0.0,0.0,0.0,0.0,0.0,0.0,0.0,0.0,0.0,0.0,0.0,0.0,0.0,0.0,0.0,0.0,0.0,0.0,-0.0214,-0.0318,0.0,0.0,0.0,0.0,0.0,0.0,0.0,0.0,0.0,0.0,0.0,0.0,0.0,0.0,0.0,0.0,0.0,0.0,0.0,0.0,0.0,0.0,0.0,0.0,0.0,0.0,0.0,0.0,0.0,0.0,0.0,0.0,0.0,0.0,0.0,0.0,0.0,0.0,0.0,0.0,-0.4694,-0.4745,-0.4867,0.0,0.0,0.0,0.0,0.0,0.0,-0.5811,-0.6186,0.0,0.0,0.0,0.0,0.0,0.0,0.0,0.0,0.0,0.0,0.0,0.0,0.0,0.0,0.0,0.0,0.0,0.0,0.0,0.0,0.0,0.0,0.0,0.0,0.0,0.0,0.0,0.0,0.0,0.0,0.0,0.0,0.0,0.0,0.0,0.0,0.0,0.0,0.0,0.0,0.0,0.0,0.0,0.0,0.0,0.0,0.0,0.0,0.0,0.0,0.0,0.0,0.0,0.0,0.0,0.0,0.0,0.0,0.0,0.0,0.0,0.0,-0.0168,-0.0234,0.0,0.0,0.0,0.0,0.0,0.0,0.0,0.0,0.0,0.0,0.0,0.0,0.0,0.0,0.0,0.0,0.0,0.0,0.0,0.0,0.0,0.0,0.0,0.0,0.0,0.0,0.0,0.0,0.0,0.0,0.0,0.0,0.0,0.0,0.0,0.0,0.0,0.0,0.0,0.0,0.0,-0.4813,-0.5023,-0.5053,0.0,0.0,0.0,0.0,-0.557,-0.5914,0.0,0.0,0.0,0.0,0.0,0.0,0.0,0.0,0.0,0.0,0.0,0.0,0.0,0.0,0.0,0.0,0.0,0.0,0.0,0.0,0.0,0.0,0.0,0.0,0.0,0.0,0.0,0.0,0.0,0.0,0.0,0.0,0.0,0.0,0.0,0.0,0.0,0.0,0.0,0.0,0.0,0.0,0.0,0.0,0.0,0.0,0.0,0.0,0.0,0.0,0.0,0.0,0.0,0.0,0.0,0.0,0.0,0.0,0.0,0.0,0.0,0.0,0.0,0.0,-0.0038,0.0,0.0,0.0,0.0,0.0,0.0,0.0,0.0,0.0,0.0,0.0,0.0,0.0,0.0,0.0,0.0,0.0,0.0,0.0,0.0,0.0,0.0,0.0,0.0,0.0,0.0,0.0,0.0,0.0,0.0,0.0,0.0,0.0,0.0,0.0,0.0,0.0,0.0,0.0,0.0,0.0,-0.5043,-0.5457,-0.5515,-0.5555,0.0,0.0,-0.6054,-0.6265,-0.6289,0.0,0.0,0.0,0.0,0.0,0.0,0.0,0.0,0.0,0.0,0.0,0.0,0.0,0.0,0.0,0.0,0.0,0.0,0.0,0.0,0.0,0.0,0.0,0.0,0.0,0.0,0.0,0.0,0.0,0.0,0.0,0.0,0.0,0.0,0.0,0.0,0.0,0.0,0.0,0.0,0.0,0.0,0.0,0.0,0.0,0.0,0.0,0.0,0.0,0.0,0.0,0.0,0.0,0.0,0.0,0.0156,0.0105,0.0038,0.0,0.0,0.0,0.0044,0.0171,0.016,0.0222,0.0,0.0,0.0,0.0,0.0,0.0,0.0,0.0,0.0,0.0,0.0,0.0,0.0,0.0,0.0,0.0,0.0,0.0,0.0,0.0,0.0,0.0,0.0,0.0,0.0,0.0,0.0,0.0,0.0,0.0,0.0,0.0,0.0,0.0,0.0,0.0,0.0,0.0,0.0,0.0,0.0,0.0,-0.5538,-0.5732,0.0,0.0,0.0,-0.6112,-0.6331,0.0,0.0,0.0,0.0,0.0,0.0,0.0,0.0,0.0,0.0,0.0,0.0,0.0,0.0,0.0,0.0,0.0,0.0,0.0,0.0,0.0,0.0,0.0,0.0,0.0,0.0,0.0,0.0,0.0,0.0,0.0,0.0,0.0,0.0,0.0,0.0,0.0,0.0,0.0,0.0,0.0,0.0,0.0,0.0,0.0,0.0,0.0,0.0,0.0,0.0,0.0,0.0,0.0,0.0,0.0,0.0,0.0,0.0202,0.0112,0.008,0.0084,0.0129,0.0258,0.0463,0.0472,0.0,0.0,0.0,0.0,0.0,0.0,0.0,0.0,0.0,0.0,0.0,0.0,0.0,0.0,0.0,0.0,0.0,0.0,0.0,0.0,0.0,0.0,0.0,0.0,0.0,0.0,0.0,-0.149,0.0,0.0,0.0,0.0,0.0,0.0,0.0,0.0,0.0,0.0,0.0,0.0,0.0,0.0,-0.5311,-0.5654,-0.5922,-0.6112,0.0,0.0,-0.6215,-0.6404,-0.6393,-0.6387,0.0,0.0,0.0,0.0,0.0,0.0,0.0,0.0,0.0,0.0,0.0,0.0,0.0,0.0,0.0,0.0,0.0,0.0,0.0,0.0,0.0,0.0,0.0,0.0,0.0,0.0,0.0,0.0,0.0,0.0,0.0,0.0,0.0,0.0,0.0,0.0,0.0,0.0,0.0,0.0,0.0,0.0,0.0,0.0,0.0,0.0,0.0,0.0,0.0,0.0,0.0,0.0,0.0,0.0,0.0,0.0202,0.0336,0.0362,0.0379,0.0559,0.0732,0.0968,0.0905,0.0877,0.0,0.0,0.0,0.0,0.0,0.0,0.0,0.0,0.0,0.0,0.0,0.0,0.0,0.0,0.0,0.0,0.0,0.0,0.0,0.0,0.0,0.0,0.0,0.0,0.0,0.0,0.0,0.0,0.0,0.0,0.0,0.0,0.0,0.0,0.0,0.0,0.0,0.0,0.0,0.0,0.0,-0.5539,-0.5939,-0.6139,-0.6381,0.0,0.0,-0.6524,-0.6726,-0.6496,-0.6368,-0.654,0.0,0.0,0.0,0.0,0.0,0.0,0.0,0.0,0.0,0.0,0.0,0.0,0.0,0.0,0.0,0.0,0.0,0.0,0.0,0.0,0.0,0.0,0.0,0.0,0.0,0.0,0.0,0.0,0.0,0.0,0.0,0.0,0.0,0.0,0.0,0.0,0.0,0.0,0.0,0.0,0.0,0.0,0.0,0.0,0.0,0.0,0.0,0.0,0.0,0.0,0.0,0.0,0.0,0.0777,0.0706,0.0699,0.0713,0.0755,0.0964,0.1256,0.1598,0.1474,0.1438,0.0,0.0,0.0,0.0,0.0,0.0,0.0,0.0,0.0,0.0,0.0,0.0,0.0,0.0,0.0,0.0,0.0,0.0,0.0,0.0,0.0,0.0,0.0,0.0,0.0,0.0,0.0,0.0,-0.1717,-0.2047,-0.2294,0.0,0.0,0.0,0.0,0.0,0.0,0.0,0.0,0.0,0.0,-0.5702,-0.6108,-0.638,0.0,0.0,-0.6709,-0.6654,-0.6736,-0.6475,-0.6251,-0.6117,-0.6273,0.0,0.0,0.0,0.0,0.0,0.0,0.0,0.0,0.0,0.0,0.0,0.0,0.0,0.0,0.0,0.0,0.0,0.0,0.0,0.0,0.0,0.0,0.0,0.0,0.0,0.0,0.0,0.0,0.0,0.0,0.0,0.0,0.0,0.0,0.0,0.0,0.0,0.0,0.0,0.0,0.0,0.0,0.0,0.0,0.0,0.0,0.0,0.0,0.0,0.0,0.0,0.0,0.1136,0.1142,0.1165,0.1212,0.129,0.1518,0.1885,0.2323,0.2141,0.2098,0.0,0.0,0.0,0.0,0.0,0.0,0.0,0.0,0.0,0.0,0.0,0.0,0.0,0.0,0.0,0.0,0.0,0.0,0.0,0.0,0.0,0.0,0.0,0.0,0.0,0.0,0.0,0.0,-0.1572,-0.1945,-0.2217,0.0,0.0,0.0,0.0,0.0,0.0,0.0,0.0,0.0,0.0,-0.5817,-0.63,-0.6583,-0.6756,-0.6866,-0.68,-0.6685,-0.6641,-0.6446,-0.6229,-0.6001,0.0,0.0,0.0,0.0,0.0,0.0,0.0,0.0,0.0,0.0,0.0,0.0,0.0,0.0,0.0,0.0,0.0,0.0,0.0,0.0,0.0,0.0,0.0,0.0,0.0,0.0,0.0,0.0,0.0,0.0,0.0,0.0,0.0,0.0,0.0,0.0,0.0,0.0,0.0,0.0,0.0,0.0,0.0,0.0,0.0,0.0,0.0,0.0,0.0,0.0,0.0,0.0,0.0,0.1436,0.151,0.1712,0.1823,0.1908,0.2357,0.2762,0.3165,0.2992,0.2841,0.2783,0.0,0.0,0.0,0.0,0.0,0.0,0.0,0.0,0.0,0.0,0.0,0.0,0.0,0.0,0.0,0.0,0.0,0.0,0.0,0.0,0.0,0.0,0.0,0.0,0.0,0.0,-0.1067,-0.146,-0.1795,0.0,0.0,0.0,0.0,0.0,0.0,0.0,0.0,0.0,0.0,-0.5426,-0.5959,-0.6446,-0.66,-0.6756,-0.6905,-0.68,-0.6651,-0.6542,-0.6392,-0.628,0.0,0.0,0.0,0.0,0.0,0.0,0.0,0.0,0.0,0.0,0.0,0.0,0.0,0.0,0.0,0.0,0.0,0.0,0.0,0.0,0.0,0.0,0.0,0.0,0.0,0.0,0.0,0.5388,0.5219,0.0,0.0,0.0,0.0,0.0,0.0,0.0,0.0,0.0,0.0,0.0,0.4665,0.4741,0.0,0.0,0.0,0.0,0.0,0.0,0.0,0.0,0.0,0.0,0.0,0.0,0.2135,0.2115,0.2433,0.2667,0.2753,0.3199,0.3597,0.4051,0.3785,0.3498,0.3213,0.0,0.0,0.0,0.0,0.0,0.0,0.0,0.0,0.0,0.0,0.0,0.0,0.0,0.0,0.0,0.0,0.0,0.0,0.0,0.0,0.0,0.0,0.0,0.0,0.0,-0.0536,0.0,0.0,0.0,0.0,0.0,0.0,0.0,0.0,0.0,0.0,0.0,-0.4972,-0.5321,-0.5705,-0.6115,-0.6563,-0.6668,-0.6756,0.0,0.0,0.0,0.0,0.0,0.0,0.0,0.0,0.0,0.0,0.0,0.0,0.0,0.0,-0.8887,-0.8391,-0.8415,-0.8485,-0.8517,0.0,0.0,0.0,0.0,0.0,0.0,0.0,0.0,0.0,0.0,0.0,0.0,0.0,0.0,0.0,0.0,0.6182,0.0,0.0,0.0,0.0,0.0,0.0,0.0,0.0,0.5154,0.5215,0.5244,0.5235,0.5199,0.0,0.505,0.4799,0.0,0.0,0.0,0.0,0.0,0.0,0.0,0.0,0.2724,0.2824,0.3171,0.346,0.3631,0.3986,0.4379,0.4758,0.4442,0.4097,0.3689,0.2992,0.2531,0.0,0.0,0.0,0.0,0.0,0.0,0.0,0.0,0.0,0.0,0.0,0.0,0.0,0.0,0.0,0.0,0.0,0.0,0.0,0.0,0.0,0.0,0.0,-0.0462,0.0,0.0,0.0,0.0,0.0,0.0,0.0,0.0,0.0,-0.3968,-0.4552,-0.5103,-0.5439,-0.5804,-0.6134,-0.6566,0.0,0.0,0.0,0.0,0.0,0.0,0.0,-0.6269,-0.6125,-0.6256,-0.6447,-0.6637,-0.7456,-0.8245,-0.881,0.0,0.0,-0.9202,-0.9306,-0.9447,-0.9419,-0.956,-0.9687,-0.9932,-1.0434,-1.1018,0.0,0.0,0.0,0.0,0.0,0.0,0.0,0.0,0.7943,0.7782,0.0,0.7485,0.0,0.0,0.0,0.0,0.0,0.0,0.0,0.0,0.5689,0.5757,0.5907,0.5884,0.5774,0.5641,0.5631,0.5437,0.5086,0.4512,0.0,0.0,0.0,0.0,0.0,0.0,0.325,0.3622,0.3949,0.4214,0.4414,0.481,0.5079,0.5297,0.499,0.4605,0.4249,0.3637,0.3209,0.2932,0.2303,0.0,0.0,0.0,0.0,0.0,0.0,0.0,0.0,0.0,0.0,0.0,0.0,0.0,0.0,0.0,0.0,0.0,0.0,0.0,0.0,-0.0278,0.0,0.0,0.0,0.0,0.0,0.0,0.0,0.0,0.0,0.0,-0.3918,-0.4624,-0.5118,-0.5303,0.0,0.0,0.0,0.0,-0.6521,-0.6538,-0.6528,-0.6484,-0.6344,-0.632,-0.6317,-0.6317,0.0,0.0,-0.73,-0.7957,-0.8538,-0.8859,-0.9552,-1.0084,-1.0276,-1.0429,-1.0586,-1.0593,-1.0667,-1.0884,-1.108,-1.1281,-1.1735,1.1815,0.0,0.0,0.0,0.0,0.9745,0.9661,0.957,0.9345,0.9248,0.9248,0.8735,0.0,0.0,0.0,0.0,0.0,0.0,0.7053,0.6833,0.6818,0.6757,0.6666,0.6686,0.6492,0.6197,0.6157,0.5923,0.546,0.5287,0.49,0.4309,0.0,0.0,0.0,0.0,0.4094,0.4248,0.4594,0.4845,0.5043,0.5285,0.5425,0.5427,0.5345,0.5108,0.4708,0.4295,0.3943,0.3622,0.3008,0.0,0.0,0.0,0.0,0.0,0.0,0.0,0.0,0.0,0.0,0.0,0.0,0.0,0.0,0.0,0.0,0.0,0.0,0.0,-0.0037,-0.0135,-0.0255,0.0,0.0,0.0,0.0,0.0,0.0,0.0,0.0,0.0,-0.3541,-0.4314,-0.4952,0.0,0.0,-0.6061,-0.6386,-0.6552,-0.6671,-0.678,0.0,0.0,0.0,-0.6576,-0.6576,-0.6576,-0.6732,-0.7053,-0.7542,-0.8031,-0.8573,-0.9256,-0.9922,-1.0468,-1.0804,-1.0928,-1.1007,-1.1149,-1.1209,-1.1276,-1.1477,-1.1776,-1.2104,1.33,1.2548,1.183,1.1341,1.1087,1.108,1.1047,1.0952,1.0844,1.0712,1.053,1.0141,0.9663,0.9173,0.8773,0.0,0.0,0.0,0.8255,0.8151,0.7886,0.777,0.7687,0.7446,0.721,0.6952,0.6769,0.6457,0.5995,0.5897,0.5583,0.5036,0.0,0.0,0.4424,0.4535,0.4637,0.478,0.5132,0.5377,0.5547,0.575,0.5812,0.564,0.5627,0.5418,0.498,0.4749,0.4454,0.4102,0.3623,0.3229,0.0,0.0,0.0,0.0,0.0,0.0,0.0,0.0,0.0,0.0,0.0,0.0204,0.0116,0.0,0.0,0.0,0.0,0.0,0.0,-0.0021,0.0,0.0,0.0,0.0,0.0,0.0,0.0,-0.1944,-0.2362,-0.2806,-0.319,-0.3683,-0.4286,-0.5031,-0.547,-0.5827,-0.6042,0.0,-0.6569,-0.6658,-0.6756,-0.6807,-0.6715,-0.6702,-0.6722,-0.6783,-0.6958,-0.7235,-0.755,-0.8066,-0.8581,-0.9091,-0.9776,-1.0375,-1.0684,-1.0925,-1.1224,-1.1549,-1.1629,-1.1735,-1.1988,-1.2193,-1.2445,1.4566,1.4426,1.3093,1.2478,1.2412,1.2405,1.2392,1.2378,1.2223,1.2004,1.1726,1.1556,1.1064,1.0422,1.0086,0.0,0.0,0.9523,0.9511,0.9558,0.8929,0.876,0.8891,0.8259,0.7932,0.7875,0.7429,0.7026,0.6712,0.6511,0.6205,0.5863,0.5316,0.5013,0.4977,0.4968,0.5058,0.5276,0.562,0.5872,0.5935,0.6167,0.6098,0.581,0.5793,0.5577,0.5133,0.499,0.4785,0.4452,0.4104,0.3761,0.3357,0.0,0.0,0.0,0.0,0.0,0.0,0.0,0.0,0.0,0.0,0.0,0.0,0.0,0.0,0.0,0.0,0.0,0.0,0.0,0.0,0.0,0.0,-0.0349,-0.0701,-0.0945,-0.1219,-0.158,0.0,0.0,0.0,0.0,-0.3339,-0.4399,-0.5047,-0.5441,-0.5532,-0.5975,-0.627,-0.6302,-0.6537,-0.6701,-0.6728,-0.6763,-0.6803,-0.6926,-0.7114,-0.7332,-0.7497,-0.8009,-0.8431,-0.8585,-0.9226,-0.989,-1.0098,-1.0578,-1.1207,-1.1726,-1.1946,-1.21,-1.2405,-1.2515,-1.2684,1.5338,1.5137,1.4613,1.3941,1.3287,1.3287,1.316,1.2999,1.296,1.2882,1.2795,1.2411,1.1961,1.145,1.1348,1.1352,1.1291,1.0959,1.0883,1.0897,1.0213,0.9895,0.9908,0.9431,0.8995,0.8729,0.843,0.8027,0.7529,0.7311,0.6952,0.6408,0.6105,0.5827,0.558,0.5611,0.5682,0.5788,0.5898,0.6029,0.617,0.6104,0.5993,0.5806,0.5698,0.5552,0.5332,0.5148,0.497,0.4796,0.44,0.405,0.3707,0.333,0.0,0.0,0.0,0.0,0.0,0.0,0.0,0.0,0.0,0.0589,0.0407,0.0,0.0121,0.0,0.0,0.0,0.0,0.0,0.0,0.0,-0.0141,-0.0233,-0.0328,-0.0662,-0.0893,-0.0993,-0.1254,-0.1595,-0.2041,-0.2111,-0.2418,-0.309,-0.4089,-0.4813,-0.4994,-0.559,-0.6012,-0.6141,-0.6508,-0.6779,-0.677,-0.6907,-0.6997,-0.7041,-0.7085,-0.7237,-0.7455,-0.7635,-0.7925,-0.8439,-0.8713,-0.9122,-0.9645,-1.0039,-1.0423,-1.0996,-1.1558,-1.2009,-1.2114,-1.2378,-1.2636,1.5858,1.5578,1.5418,1.499,1.4366,1.4289,1.4068,1.3753,1.3753,1.3647,1.3347,1.2962,1.2673,1.2445,1.2324,1.2299,1.233,1.2055,1.187,1.1776,1.1277,1.1011,1.0926,1.0322,0.9928,0.9724,0.9347,0.8872,0.8342,0.8155,0.7697,0.7019,0.6883,0.6639,0.63,0.6009,0.5909,0.5993,0.6098,0.6214,0.6293,0.6112,0.5919,0.5803,0.5664,0.5552,0.5402,0.5277,0.5138,0.4897,0.467,0.4392,0.3981,0.3752,0.3481,0.0,0.0,0.0,0.0,0.0,0.0,0.0,0.0,0.0,0.0,0.0,0.0359,0.0,0.0049,0.0,0.0,0.0,0.0,0.0,-0.0062,-0.0159,-0.0228,-0.0442,-0.0599,-0.0687,-0.0855,-0.1065,-0.1346,-0.1457,-0.1662,-0.2176,-0.295,-0.3644,-0.4225,-0.4966,-0.5517,-0.5625,-0.6124,-0.6571,-0.6748,-0.6881,-0.701,-0.7095,-0.7095,-0.7143,-0.7319,-0.7355,-0.7574,-0.7946,-0.8203,-0.8479,-0.8864,-0.9379,-0.9808,-1.0214,-1.085,-1.1446,-1.1892,-1.2194,-1.2378,1.6132,1.5832,1.5825,1.5638,1.5438,1.5184,1.4883,1.4569,1.4536,1.4166,1.3646,1.3434,1.332,1.328,1.312,1.304,1.306,1.288,1.2698,1.2462,1.2257,1.2057,1.1849,1.1106,1.0761,1.0755,1.0193,0.9644,0.9206,0.9087,0.8575,0.7737,0.7673,0.7454,0.7014,0.6457,0.6153,0.6023,0.6231,0.63,0.6296,0.6088,0.5902,0.5803,0.5644,0.5498,0.5402,0.5375,0.5206,0.4908,0.4867,0.4665,0.422,0.4073,0.3903,0.0,0.3515,0.0,0.0,0.0,0.0,0.0,0.0,0.0,0.0,0.0861,0.0644,0.031,0.0137,0.0057,0.0029,0.003,0.0032,0.0,0.0,-0.0069,-0.0247,-0.0253,-0.0333,-0.0493,-0.0494,-0.0614,-0.0782,-0.0826,-0.1003,-0.1494,-0.1852,-0.2352,-0.314,-0.4105,-0.4783,-0.4832,-0.5458,-0.6083,-0.6526,-0.6707,-0.6751,-0.6966,-0.7024,-0.7071,-0.7061,-0.7163,-0.7236,-0.7307,-0.7647,-0.7939,-0.806,-0.8646,-0.9184,-0.9504,-0.9992,-1.0663,-1.1558,-1.1892,-1.2003,1.6313,1.5832,1.5825,1.5751,1.5745,1.5644,1.5364,1.4863,1.4623,1.4329,1.4001,1.3941,1.3921,1.3921,1.388,1.388,1.388,1.3633,1.3484,1.3406,1.3069,1.2881,1.279,1.21,1.1757,1.1709,1.1236,1.0747,1.0312,1.0147,0.9642,0.8719,0.8608,0.8237,0.7676,0.0,0.0,0.0,0.6282,0.63,0.6289,0.5989,0.583,0.5796,0.5579,0.0,0.5392,0.524,0.5063,0.4894,0.4802,0.0,0.0,0.0,0.0,0.0,0.0,0.0,0.0,0.0,0.0,0.0,0.2948,0.2419,0.1478,0.0968,0.0699,0.0681,0.0512,0.0368,0.0251,0.0227,0.0168,0.0,0.0,-0.0036,-0.0074,-0.0037,-0.0076,-0.0117,0.0,-0.0195,-0.0393,-0.0479,-0.0608,-0.0861,-0.1098,-0.134,-0.157,-0.2925,-0.3807,-0.3944,-0.4654,-0.5411,-0.6127,-0.621,-0.6334,-0.6691,-0.6729,-0.6754,-0.687,-0.6841,-0.6909,-0.7069,-0.7111,-0.7239,-0.7716,-0.7991,-0.8338,-0.8975,-0.9349,-0.9884,-1.0999,-1.1409,-1.1595,1.6657,0.0,1.5939,1.5825,0.0,1.5825,1.5665,1.5371,1.5084,1.4783,1.4566,1.4566,1.4566,1.4566,1.4522,1.4486,1.4302,1.4173,1.3959,1.3695,1.3483,1.3349,1.3222,1.2747,1.2534,1.2534,1.2057,1.1628,1.1273,1.1129,1.0593,0.9681,0.9614,0.9256,0.8617,0.8286,0.7629,0.6606,0.6486,0.6451,0.644,0.6029,0.58,0.5793,0.0,0.0,0.0,0.0,0.0,0.0,0.0,0.0,0.0,0.0,0.0,0.425,0.4236,0.421,0.4157,0.4023,0.39,0.3755,0.3455,0.2956,0.2105,0.15,0.1162,0.1199,0.0937,0.0734,0.0624,0.0575,0.0489,0.0327,0.0221,0.015,0.0153,0.0077,0.0,0.0,0.0,-0.0039,-0.0118,-0.0198,-0.0321,-0.0528,-0.0663,-0.0803,-0.0985,-0.2023,-0.3004,-0.3499,-0.3942,-0.4592,-0.5341,-0.5504,-0.5695,-0.6116,-0.6263,-0.6349,-0.6599,-0.6526,-0.6508,-0.6739,-0.6748,-0.6842,-0.7109,-0.7386,-0.771,-0.828,-0.8589,-0.9013,-1.003,-1.0588,-1.1074,1.7041,1.6697,1.6143,1.5879,1.5879,1.5825,1.5825,1.5764,0.0,0.0,0.0,1.5015,1.5015,1.5015,1.5015,1.483,1.4603,1.4603,1.4306,1.3858,1.3851,1.3747,1.3525,1.3313,1.3185,1.3179,1.279,1.2448,1.2186,1.2015,1.1492,1.0731,1.0668,1.0309,0.9604,0.9219,0.847,0.7391,0.6924,0.6743,0.671,0.6205,0.5952,0.5913,0.5655,0.55,0.55,0.5439,0.5291,0.5106,0.502,0.4887,0.4741,0.4731,0.4702,0.459,0.4689,0.4706,0.4583,0.4541,0.4474,0.4296,0.3884,0.3416,0.2799,0.2143,0.1773,0.1782,0.1511,0.1255,0.1081,0.1046,0.0976,0.0754,0.0532,0.0423,0.0391,0.0196,0.0,0.0039,0.0,0.0,0.0,0.0,-0.0079,-0.0282,-0.0325,-0.0411,-0.0715,-0.143,-0.2343,-0.3047,-0.3306,-0.3648,-0.4377,-0.461,-0.4872,-0.5482,-0.5607,-0.5747,-0.61,-0.6131,-0.6128,-0.6358,-0.645,-0.6507,-0.6606,-0.6876,-0.7219,-0.7595,-0.7829,-0.8183,-0.8903,-0.962,-1.025,1.752,1.6981,1.6395,1.617,1.613,1.5879,1.5825,1.5805,1.5524,1.5276,1.5015,1.5015,1.5015,1.5015,1.5015,1.4988,1.4948,1.4903,1.4743,0.0,1.4412,1.4243,1.4004,1.3743,1.361,1.3603,1.3392,1.3137,1.2966,1.2924,1.2516,1.1878,1.1792,1.125,1.0319,1.0034,0.9619,0.9035,0.7948,0.7285,0.7103,0.6727,0.6482,0.6467,0.6061,0.5823,0.5823,0.5564,0.5291,0.5106,0.5079,0.5005,0.4867,0.4854,0.4847,0.4857,0.4847,0.4874,0.4827,0.475,0.4632,0.4556,0.4362,0.399,0.3362,0.2782,0.2487,0.2517,0.228,0.1978,0.1642,0.1636,0.1572,0.125,0.0965,0.0822,0.0825,0.0471,0.0275,0.0275,0.0,0.0,0.0,0.0,0.0,-0.004,0.0,-0.0164,-0.0459,-0.0888,-0.1529,-0.2122,-0.2334,-0.271,-0.3377,-0.3628,-0.3952,-0.4792,-0.4825,-0.493,-0.5497,-0.5524,-0.5563,-0.5934,-0.6035,-0.618,-0.6486,-0.6641,-0.6872,-0.7176,-0.7334,-0.7565,-0.8178,-0.8479,-0.8932,1.8407,1.7708,1.7159,1.6647,1.6177,1.5927,1.5825,1.5771,1.5644,1.5565,1.5438,1.5431,1.5431,1.5431,1.5431,1.5344,1.5197,1.5197,1.5082,1.4756,1.4596,1.4456,1.4315,1.407,1.3913,1.3913,1.3695,1.3525,1.3434,1.3307,1.3009,1.2619,1.2443,1.2,1.1304,1.1189,1.0861,1.028,0.8774,0.7944,0.7822,0.7283,0.6919,0.6808,0.6495,0.6296,0.6159,0.5837,0.5619,0.5545,0.5252,0.5069,0.5005,0.5002,0.5002,0.5002,0.5111,0.5159,0.5159,0.5127,0.5022,0.4892,0.4899,0.474,0.4375,0.3703,0.3318,0.3327,0.3135,0.2843,0.2444,0.2426,0.2318,0.1967,0.1677,0.1452,0.1373,0.0942,0.0629,0.0629,0.0471,0.0314,0.0196,0.0157,0.0118,0.0,0.0,0.0,0.0,0.0,-0.0778,-0.1381,-0.1556,-0.1881,-0.2482,-0.264,-0.2995,-0.3772,-0.385,-0.4102,-0.4733,-0.492,-0.5135,-0.5515,-0.5634,-0.5867,-0.6173,-0.6212,-0.6409,-0.6756,-0.6872,-0.7103,-0.7488,-0.7834,-0.8484,1.948,1.8627,1.8018,1.7196,1.6373,1.6028,1.5886,1.5879,1.5825,1.5825,1.5825,1.5825,1.5825,1.5825,1.5825,1.5658,1.5511,1.5491,1.5337,1.5057,1.4823,1.4656,1.4459,1.4282,1.4148,1.4095,1.3864,1.3786,1.3779,1.361,1.3434,1.3228,1.2966,1.2656,1.2272,1.2272,1.1966,1.1341,0.9912,0.8986,0.869,0.805,0.7576,0.7306,0.7098,0.6857,0.6677,0.6307,0.6064,0.5989,0.5557,0.5248,0.5218,0.5182,0.515,0.516,0.5294,0.5395,0.5395,0.5429,0.5376,0.5209,0.5339,0.5351,0.5208,0.4678,0.4257,0.4142,0.4008,0.3734,0.3385,0.3307,0.3189,0.2817,0.243,0.2194,0.2116,0.1569,0.1099,0.1099,0.0942,0.0668,0.0471,0.0432,0.0354,0.0118,0.0039,0.0,0.0,0.0,0.0,-0.0655,-0.0871,-0.1152,-0.1657,-0.1814,-0.2121,-0.2707,-0.2862,-0.3295,-0.3882,-0.427,-0.4579,-0.4968,-0.5282,-0.5518,-0.5709,-0.586,-0.6057,-0.6367,-0.6486,-0.6641,-0.7026,-0.7488,-0.8102,2.0568,1.9752,1.8898,1.7863,1.6921,1.6427,1.6184,1.6137,1.5933,1.5825,1.5825,1.5825,1.5825,1.5825,1.5825,1.5805,1.5778,1.5738,1.5631,1.5378,1.5331,1.5037,1.4576,1.4496,1.4342,1.4135,1.4115,1.4099,1.4093,1.4024,1.3919,1.3652,1.344,1.3228,1.3009,1.3009,1.2826,1.2541,1.1801,1.0789,0.9636,0.9144,0.8723,0.83,0.7957,0.7707,0.7491,0.6941,0.6565,0.6429,0.6078,0.5741,0.5583,0.5437,0.5375,0.5371,0.5388,0.5395,0.5405,0.5525,0.5569,0.5579,0.5666,0.5747,0.5714,0.5609,0.5332,0.501,0.4822,0.4597,0.423,0.4193,0.4094,0.3717,0.329,0.2976,0.2898,0.2272,0.1803,0.1803,0.1492,0.114,0.0943,0.0825,0.0668,0.0354,0.0118,0.0,0.0,0.0,0.0,0.0,-0.0277,-0.0555,-0.0948,-0.1222,-0.1537,-0.1922,-0.2156,-0.2546,-0.3054,-0.3446,-0.3722,-0.4304,-0.481,-0.5085,-0.5318,-0.5628,-0.586,-0.598,-0.6138,-0.6416,-0.6641,-0.6988,-0.7526,2.1761,2.0659,2.0312,1.9458,1.829,1.7371,1.6957,1.6943,1.6293,1.6028,1.6021,1.5879,1.5825,1.5825,1.5825,1.5825,1.5825,1.5825,1.5765,1.5638,1.5478,1.5264,1.5044,1.4856,1.4716,1.466,1.4646,1.4609,1.462,1.4436,1.4249,1.4144,1.3913,1.3701,1.3476,1.3476,1.3355,1.313,1.2729,1.2088,1.1249,1.0308,0.9544,0.8994,0.8779,0.8581,0.822,0.7716,0.7396,0.7288,0.6714,0.6302,0.6143,0.597,0.5824,0.5708,0.5821,0.58,0.5664,0.5811,0.5863,0.5715,0.5854,0.5899,0.5942,0.6002,0.5983,0.5793,0.5483,0.5207,0.4936,0.4902,0.4813,0.4499,0.4109,0.3876,0.3837,0.3132,0.2585,0.2585,0.2275,0.1883,0.153,0.1139,0.0864,0.0629,0.0393,0.0196,0.0196,0.0079,0.0,0.0,-0.0079,-0.0236,-0.0511,-0.0629,-0.0904,-0.1217,-0.1491,-0.1844,-0.2273,-0.2782,-0.3214,-0.3602,-0.407,-0.4501,-0.4735,-0.5082,-0.5392,-0.555,-0.5864,-0.6138,-0.6374,-0.6641,-0.6949,2.2921,2.1818,2.137,2.0573,1.9544,1.8432,1.7841,1.7642,1.6901,1.6442,1.6177,1.5974,1.5879,1.5825,1.5825,1.5825,1.5825,1.5825,1.5825,1.5758,1.5611,1.5478,1.5384,1.519,1.5082,1.5022,1.5001,1.5001,1.4988,1.4763,1.4603,1.4502,1.4309,1.4077,1.3828,1.3822,1.3743,1.361,1.3398,1.3037,1.2463,1.1486,1.0534,0.9727,0.962,0.943,0.9041,0.8557,0.8268,0.8171,0.7445,0.6971,0.6804,0.6553,0.6364,0.6222,0.6344,0.6306,0.6062,0.6247,0.623,0.5983,0.6074,0.6129,0.6112,0.6235,0.6293,0.6251,0.599,0.5709,0.5515,0.5473,0.5356,0.5162,0.4851,0.4657,0.4579,0.3912,0.3444,0.3444,0.3095,0.2705,0.2233,0.1648,0.1216,0.1178,0.0785,0.0471,0.0432,0.0314,0.0,0.0079,0.0079,0.0,-0.0196,-0.0314,-0.0471,-0.0629,-0.0943,-0.1217,-0.1608,-0.2119,-0.2511,-0.2782,-0.337,-0.38,-0.4031,-0.438,-0.4965,-0.524,-0.5512,-0.5825,-0.6099,-0.6328,-0.6444,2.3967,2.305,2.1769,2.1048,2.0539,1.9544,1.8791,1.8356,1.7705,1.7019,1.6381,1.6238,1.6082,1.5845,1.5838,1.5825,1.5825,1.5825,1.5825,1.5825,1.5798,1.5658,1.5404,1.5384,1.5244,1.5102,1.5095,1.5075,1.501,1.5001,1.4796,1.4549,1.4502,1.4355,1.4106,1.4053,1.4088,1.4004,1.3779,1.3503,1.3212,1.2726,1.1778,1.0653,1.0443,1.025,0.9846,0.9463,0.9168,0.8951,0.824,0.7779,0.7562,0.7181,0.6991,0.6986,0.6963,0.69,0.6738,0.6847,0.6797,0.6403,0.6484,0.6507,0.6304,0.6325,0.6296,0.63,0.6261,0.6103,0.5902,0.5864,0.5786,0.5595,0.5359,0.5243,0.524,0.4693,0.4384,0.4268,0.3917,0.3526,0.3093,0.2352,0.196,0.1764,0.1295,0.0904,0.0904,0.0707,0.0511,0.0354,0.0275,0.0236,0.0039,-0.0157,-0.0275,-0.0393,-0.055,-0.0707,-0.0983,-0.1296,-0.1649,-0.2038,-0.2665,-0.3093,-0.3288,-0.3795,-0.4499,-0.489,-0.5124,-0.5434,-0.5786,-0.586,-0.6054,2.4637,2.3976,2.298,2.2484,2.2246,2.1024,2.0262,1.984,1.8987,1.8203,1.7545,1.7207,1.6786,1.6354,1.6157,1.5974,1.5825,1.5825,1.5825,1.5825,1.5825,1.5724,1.5685,1.5671,1.5631,1.5531,1.5511,1.5518,1.5491,1.5331,1.519,1.503,1.4696,1.4462,1.4349,1.4175,1.4088,1.4088,1.4004,1.3809,1.351,1.3337,1.2808,1.2072,1.14,1.0887,1.0513,1.0218,0.9948,0.9755,0.9158,0.8686,0.8474,0.8044,0.777,0.7779,0.7852,0.7738,0.7464,0.7584,0.7466,0.6939,0.695,0.6834,0.6563,0.649,0.6451,0.6338,0.63,0.6219,0.618,0.6138,0.6138,0.6025,0.5828,0.567,0.5592,0.5279,0.4968,0.4893,0.454,0.4112,0.3837,0.321,0.2702,0.2584,0.2037,0.1608,0.1491,0.1256,0.0982,0.0746,0.0668,0.0629,0.0432,0.0118,-0.0118,-0.0157,-0.0275,-0.0393,-0.0629,-0.0904,-0.1217,-0.1373,-0.192,-0.235,-0.2585,-0.3015,-0.3798,-0.4462,-0.4696,-0.489,-0.5398,-0.5434,-0.5705,2.5088,2.4686,2.3976,2.3628,2.3443,2.2352,2.1578,2.1007,2.018,1.9382,1.8614,1.8203,1.7678,1.7169,1.6891,1.656,1.6182,1.5925,1.5825,1.5825,1.5825,1.5825,1.5825,1.5825,1.5825,1.5825,1.5825,1.5825,1.5812,1.5638,1.5498,1.5364,1.4983,1.475,1.4636,1.4376,1.4229,1.4215,1.4135,1.3981,1.3794,1.3646,1.3473,1.3074,1.2389,1.1746,1.1256,1.094,1.0738,1.0556,0.9992,0.9584,0.9274,0.8947,0.8753,0.8778,0.8825,0.8681,0.8361,0.8401,0.8178,0.7565,0.7492,0.73,0.6872,0.6795,0.6683,0.6493,0.6416,0.6377,0.63,0.6296,0.63,0.6296,0.6138,0.6018,0.6018,0.5712,0.5476,0.5323,0.501,0.4735,0.4618,0.3954,0.36,0.3522,0.2818,0.2311,0.2234,0.1961,0.157,0.1295,0.1256,0.1099,0.0904,0.0589,0.0236,0.0157,-0.0079,-0.0157,-0.0275,-0.055,-0.0707,-0.0825,-0.1099,-0.153,-0.196,-0.2391,-0.3017,-0.3798,-0.4031,-0.4109,-0.4577,-0.4968,-0.524,2.5333,2.5186,2.4735,2.4381,2.4075,2.3484,2.2644,2.1734,2.1387,2.0572,1.947,1.9249,1.8784,1.8136,1.7972,1.7655,1.6999,1.6381,1.5953,1.5879,1.5845,1.5825,1.5825,1.5825,1.5825,1.5825,1.5825,1.5825,1.5818,1.5744,1.5665,1.5458,1.5364,1.5177,1.5008,1.4683,1.4516,1.4442,1.4249,1.4102,1.4048,1.378,1.364,1.358,1.3253,1.2818,1.2222,1.1702,1.1409,1.1328,1.0787,1.0331,1.0008,0.9863,0.989,0.9857,0.9895,0.9685,0.9339,0.9311,0.898,0.8293,0.8144,0.7872,0.7373,0.7219,0.7065,0.6718,0.6644,0.6563,0.6374,0.6374,0.6335,0.63,0.6257,0.6257,0.6219,0.606,0.5825,0.5637,0.5401,0.5318,0.5162,0.4735,0.4384,0.4187,0.3679,0.3132,0.3093,0.2782,0.2391,0.2038,0.1921,0.1843,0.1452,0.1061,0.0746,0.0432,0.0157,0.0,-0.0039,-0.0236,-0.0354,-0.0471,-0.0667,-0.1099,-0.1491,-0.1921,-0.2234,-0.286,-0.3054,-0.3405,-0.3912,-0.4343,-0.4696,2.5586,2.5538,2.5186,2.4981,2.4883,2.4332,2.3696,2.3053,2.2746,2.1987,2.1003,2.0669,2.0011,1.9212,1.8897,1.8397,1.7733,1.7387,1.6919,1.6236,1.5939,1.5845,1.5845,1.5838,1.5825,1.5825,1.5825,1.5832,1.5825,1.5825,1.5724,1.5631,1.5491,1.5357,1.5251,1.4977,1.4743,1.4529,1.4436,1.4295,1.4115,1.3995,1.3948,1.3915,1.3661,1.338,1.3153,1.2531,1.2094,1.1974,1.1408,1.0999,1.0781,1.0738,1.07,1.0738,1.0738,1.055,1.0186,1.011,0.9781,0.9132,0.8941,0.8556,0.7949,0.7834,0.7565,0.7103,0.6988,0.6911,0.6753,0.6714,0.6616,0.6338,0.63,0.6306,0.631,0.6225,0.6145,0.6067,0.5867,0.5744,0.5628,0.5279,0.5007,0.4929,0.4421,0.3992,0.3915,0.3641,0.3214,0.282,0.2741,0.2586,0.2235,0.1884,0.1568,0.1098,0.0706,0.0275,0.0196,0.0039,-0.0039,-0.0196,-0.0393,-0.0628,-0.1059,-0.1373,-0.1686,-0.196,-0.2273,-0.2741,-0.3327,-0.3679,-0.3915,2.5684,2.5684,2.5538,2.5382,2.5284,2.4941,2.448,2.4035,2.3827,2.3179,2.2366,2.2087,2.137,2.0527,2.0187,1.9602,1.8836,1.864,1.8067,1.7118,1.6495,1.6263,1.6152,1.6111,1.5957,1.5838,1.5939,1.5932,1.5832,1.5825,1.5825,1.5785,1.5638,1.5558,1.5531,1.5271,1.5017,1.4843,1.4629,1.4436,1.4269,1.4142,1.4088,1.4062,1.3901,1.3814,1.3726,1.3213,1.2798,1.2577,1.2158,1.1878,1.1687,1.1655,1.1643,1.1643,1.1649,1.1502,1.1221,1.1074,1.0699,1.0084,0.9824,0.9397,0.8746,0.8522,0.825,0.768,0.7588,0.7547,0.7317,0.734,0.7202,0.69,0.6656,0.6467,0.6417,0.6378,0.6344,0.6246,0.6138,0.606,0.598,0.5747,0.5515,0.5437,0.5085,0.4732,0.4657,0.4462,0.4031,0.372,0.3602,0.3368,0.3018,0.2705,0.239,0.1842,0.1294,0.0864,0.055,0.0275,0.0118,-0.0039,-0.0196,-0.0314,-0.0667,-0.0746,-0.0942,-0.1216,-0.1569,-0.196,-0.2429,-0.2624,-0.2937,2.5684,2.5684,2.5684,2.5538,2.5342,2.5284,2.4981,2.4578,2.4538,2.4075,2.347,2.3285,2.2743,2.1954,2.1711,2.1137,2.0266,1.9895,1.9295,1.8492,1.7731,1.722,1.672,1.66,1.6366,1.6046,1.6186,1.6139,1.5919,1.5899,1.5838,1.5778,1.5758,1.5771,1.5738,1.5545,1.5391,1.5251,1.4856,1.4616,1.4536,1.4275,1.4135,1.4135,1.4082,1.4048,1.3995,1.372,1.3453,1.3214,1.2903,1.2719,1.2625,1.2605,1.2547,1.2568,1.2592,1.2481,1.2291,1.2012,1.1656,1.1095,1.0785,1.0262,0.9647,0.952,0.9212,0.844,0.847,0.8361,0.8081,0.8084,0.8053,0.7843,0.7222,0.6776,0.6551,0.6501,0.6433,0.633,0.6296,0.6296,0.6257,0.6022,0.5944,0.5825,0.5553,0.5356,0.524,0.5046,0.4851,0.4616,0.4382,0.419,0.3839,0.3524,0.321,0.2898,0.2233,0.1568,0.0982,0.0628,0.0275,0.0118,0.0039,-0.0079,-0.0236,-0.0314,-0.0471,-0.0785,-0.106,-0.1256,-0.153,-0.1803,-0.2155,2.5684,2.5684,2.5684,2.5645,2.5586,2.5586,2.5382,2.5137,2.5088,2.4726,2.4282,2.4183,2.3678,2.2929,2.287,2.2266,2.143,2.1154,2.0562,1.9728,1.9463,1.8354,1.7239,1.6814,1.6633,1.648,1.6563,1.644,1.6172,1.6201,1.6052,1.5832,1.5852,1.5832,1.5798,1.5738,1.5598,1.5418,1.5277,1.5037,1.4823,1.4563,1.4409,1.4389,1.4208,1.4102,1.4088,1.4015,1.3721,1.3253,1.3174,1.3088,1.3048,1.3048,1.3061,1.3061,1.3041,1.2988,1.277,1.2666,1.2417,1.2022,1.1833,1.1551,1.0914,1.083,1.0433,0.9807,0.9626,0.9485,0.9094,0.9023,0.895,0.8589,0.7775,0.7022,0.6804,0.6591,0.6457,0.633,0.6306,0.631,0.6261,0.6219,0.6177,0.6099,0.5941,0.5744,0.5667,0.5553,0.5321,0.5201,0.5007,0.489,0.4657,0.4304,0.407,0.3915,0.3288,0.2429,0.1764,0.1138,0.0707,0.0314,0.0314,0.0196,0.0039,-0.0118,-0.0314,-0.0471,-0.055,-0.0746,-0.1021,-0.1295,-0.1608,2.5684,2.5684,2.5684,2.5684,2.5684,2.5684,2.5586,2.5479,2.543,2.5235,2.4883,2.4833,2.443,2.3827,2.3678,2.3179,2.2417,2.2274,2.1658,2.0798,2.0261,1.9154,1.7929,1.7496,1.7302,1.7084,1.7186,1.7021,1.6697,1.6657,1.6397,1.6079,1.6019,1.5959,1.5825,1.5818,1.5711,1.5585,1.5471,1.5304,1.5137,1.4856,1.473,1.4649,1.4422,1.4229,1.4115,1.4082,1.3908,1.3647,1.3581,1.3574,1.3581,1.3581,1.3581,1.3581,1.3574,1.3506,1.3425,1.3272,1.3032,1.2758,1.266,1.2292,1.1902,1.176,1.1433,1.0772,1.0749,1.0516,1.0177,0.9988,0.9845,0.9596,0.8683,0.7877,0.7379,0.7046,0.6766,0.6586,0.6428,0.6361,0.6317,0.6303,0.6303,0.6257,0.618,0.606,0.6022,0.5906,0.5789,0.5631,0.5515,0.5398,0.5204,0.489,0.4693,0.454,0.4148,0.3327,0.2429,0.1726,0.1177,0.0785,0.0668,0.0471,0.0275,0.0118,0.0,-0.0118,-0.0157,-0.0275,-0.0589,-0.0825,-0.1139,2.5684,2.5684,2.5684,2.5684,2.5684,2.5684,2.5684,2.5684,2.5684,2.5538,2.5342,2.5333,2.5039,2.4578,2.4332,2.3935,2.3379,2.3129,2.2526,2.1717,2.0885,1.9793,1.9088,1.8522,1.8233,1.7937,1.8071,1.7763,1.7431,1.7262,1.6948,1.6611,1.6432,1.6181,1.6,1.5865,1.5825,1.5765,1.5591,1.5491,1.5391,1.5164,1.5062,1.4957,1.4636,1.4389,1.4208,1.4115,1.4055,1.4075,1.4088,1.4028,1.4041,1.4062,1.4055,1.4028,1.3995,1.4008,1.4021,1.3753,1.3564,1.3367,1.3144,1.2861,1.2603,1.25,1.2264,1.1682,1.1728,1.1625,1.1246,1.0937,1.0785,1.059,0.9913,0.9113,0.8396,0.7742,0.7235,0.6965,0.6743,0.655,0.6434,0.6386,0.6358,0.6453,0.6337,0.6289,0.623,0.6168,0.6038,0.5941,0.5864,0.5867,0.5673,0.5479,0.5282,0.5124,0.4774,0.4068,0.3093,0.2352,0.1765,0.1373,0.1216,0.0864,0.0511,0.0354,0.0275,0.0118,0.0039,-0.0079,-0.0236,-0.0432,-0.0707,2.5684,2.5684,2.5684,2.5684,2.5684,2.5684,2.5684,2.5684,2.5684,2.5635,2.5635,2.5635,2.544,2.5128,2.499,2.4735,2.4242,2.3877,2.3429,2.2577,2.1768,2.1285,2.0688,1.9857,1.9125,1.8949,1.8956,1.8678,1.8238,1.8095,1.7859,1.7336,1.6938,1.66,1.6456,1.6095,1.5825,1.5812,1.5752,1.5718,1.5658,1.5451,1.5297,1.5244,1.4816,1.4536,1.4402,1.4208,1.4088,1.4088,1.4088,1.4088,1.4088,1.4088,1.4088,1.4088,1.4088,1.4088,1.4068,1.4015,1.3981,1.3864,1.3756,1.3734,1.3471,1.3349,1.3153,1.2836,1.2765,1.2596,1.23,1.1926,1.1752,1.1494,1.0895,1.0274,0.9852,0.8747,0.7908,0.7623,0.7353,0.7133,0.6967,0.6935,0.6854,0.6664,0.6559,0.648,0.6422,0.6407,0.633,0.6268,0.6177,0.6138,0.606,0.5867,0.5634,0.5515,0.524,0.489,0.3876,0.3212,0.2743,0.2195,0.1726,0.1373,0.0982,0.0786,0.0746,0.051,0.0236,0.0118,0.0,-0.0118,-0.0275,2.5684,2.5684,2.5684,2.5684,2.5684,2.5684,2.5684,2.5684,2.5684,2.5684,2.5684,2.5684,2.5635,2.5489,2.5342,2.5137,2.4843,2.448,2.4075,2.352,2.282,2.2476,2.2274,2.1361,2.0593,2.0197,2.0034,1.9707,1.9346,1.9162,1.8833,1.8203,1.7697,1.7373,1.7085,1.6635,1.6259,1.6042,1.5974,1.5927,1.5792,1.5691,1.5504,1.5411,1.509,1.489,1.4723,1.4449,1.4315,1.4255,1.4168,1.4095,1.4088,1.4088,1.4088,1.4088,1.4088,1.4088,1.4088,1.4088,1.4075,1.4088,1.4088,1.4046,1.3913,1.387,1.3743,1.3483,1.3343,1.3264,1.3045,1.2747,1.2534,1.2357,1.1757,1.1284,1.0999,0.9708,0.8551,0.8325,0.8062,0.7757,0.7567,0.7533,0.7334,0.7166,0.7062,0.6975,0.681,0.6792,0.6716,0.6602,0.6497,0.6409,0.6374,0.6219,0.5944,0.5786,0.5631,0.5321,0.4735,0.4226,0.3798,0.3171,0.2469,0.2038,0.1686,0.1491,0.1178,0.0825,0.0589,0.0432,0.0275,0.0157,0.0,2.5684,2.5684,2.5684,2.5684,2.5684,2.5684,2.5684,2.5684,2.5684,2.5684,2.5684,2.5684,2.5684,2.5635,2.5489,2.5342,2.5137,2.4892,2.4538,2.4322,2.3728,2.3479,2.3279,2.282,2.2215,2.142,2.1216,2.0826,2.0467,2.0269,1.9939,1.9225,1.8709,1.8382,1.7876,1.7396,1.6973,1.6545,1.6401,1.6218,1.6021,1.5994,1.5866,1.5717,1.5555,1.5452,1.5183,1.4889,1.4626,1.4613,1.4349,1.4242,1.4202,1.4108,1.4088,1.4088,1.4088,1.4088,1.4088,1.4088,1.4088,1.4088,1.4088,1.4088,1.4088,1.4046,1.3962,1.387,1.3737,1.3695,1.3525,1.327,1.3185,1.3052,1.2534,1.2229,1.1886,1.0684,0.9833,0.9264,0.896,0.8624,0.8307,0.8153,0.7891,0.7681,0.762,0.7518,0.7344,0.7211,0.7132,0.6959,0.6845,0.6676,0.6641,0.649,0.6215,0.6138,0.6018,0.5709,0.5437,0.5124,0.4577,0.3837,0.3171,0.2781,0.2429,0.2194,0.1803,0.1256,0.0982,0.0942,0.0746,0.0432,0.0314,2.5684,2.5684,2.5684,2.5684,2.5684,2.5684,2.5684,2.5684,2.5684,2.5684,2.5684,2.5684,2.5684,2.5684,2.5684,2.5538,2.5333,2.5186,2.5039,2.4833,2.443,2.4282,2.4183,2.3926,2.3628,2.337,2.2778,2.2021,2.1564,2.1404,2.11,2.0495,1.9778,1.931,1.8991,1.8333,1.7708,1.728,1.7075,1.6834,1.6541,1.6433,1.6426,1.6348,1.6188,1.6049,1.5885,1.5493,1.5175,1.513,1.497,1.4847,1.4727,1.4398,1.4168,1.4128,1.4128,1.4135,1.4088,1.4088,1.4088,1.4088,1.4088,1.4088,1.4088,1.4088,1.4046,1.4039,1.3997,1.3997,1.3955,1.3695,1.361,1.3483,1.3228,1.2881,1.2705,1.2009,1.1139,1.0583,1.0077,0.952,0.9215,0.8948,0.8811,0.856,0.8399,0.8254,0.8061,0.7849,0.7699,0.7477,0.7219,0.7022,0.6868,0.6718,0.6525,0.6486,0.6331,0.6096,0.5902,0.5822,0.5315,0.4574,0.4068,0.3717,0.3366,0.3015,0.2507,0.1998,0.1725,0.153,0.1216,0.0903,0.0746,2.5684,2.5684,2.5684,2.5684,2.5684,2.5684,2.5684,2.5684,2.5684,2.5684,2.5684,2.5684,2.5684,2.5684,2.5684,2.5635,2.5538,2.5489,2.544,2.5235,2.503,2.4892,2.4883,2.4627,2.4529,2.4381,2.3926,2.3279,2.2619,2.2526,2.2224,2.1684,2.1014,2.0618,2.0311,1.9631,1.8798,1.8267,1.7893,1.7534,1.7019,1.6951,1.6958,1.6908,1.6876,1.6789,1.6671,1.6207,1.591,1.5822,1.5435,1.5187,1.5048,1.4825,1.4512,1.4405,1.4315,1.4235,1.4122,1.4088,1.4088,1.4088,1.4095,1.4088,1.4088,1.4088,1.4088,1.4088,1.4088,1.4088,1.4088,1.3948,1.3906,1.3864,1.361,1.344,1.3313,1.2875,1.2363,1.1763,1.1133,1.0557,1.0096,0.9856,0.971,0.9518,0.9247,0.9049,0.8868,0.867,0.8467,0.8138,0.7906,0.7561,0.7365,0.7099,0.6949,0.6911,0.6679,0.6447,0.6293,0.6173,0.5899,0.5354,0.4965,0.4577,0.4187,0.3759,0.321,0.274,0.2585,0.2311,0.1764,0.1373,0.1295,2.5684,2.5684,2.5684,2.5684,2.5684,2.5684,2.5684,2.5684,2.5684,2.5684,2.5684,2.5684,2.5684,2.5684,2.5684,2.5684,2.5684,2.5684,2.5635,2.5586,2.544,2.5391,2.5284,2.5186,2.5039,2.5039,2.4981,2.4529,2.3678,2.3529,2.3238,2.282,2.2274,2.1904,2.157,2.0999,2.0061,1.9381,1.8909,1.8494,1.7828,1.7606,1.7613,1.7613,1.7606,1.7638,1.7585,1.713,1.6883,1.6673,1.6211,1.5687,1.5628,1.5447,1.5176,1.4882,1.4687,1.4476,1.4362,1.4302,1.4355,1.4362,1.4229,1.4195,1.4155,1.4155,1.4088,1.4088,1.4088,1.4088,1.4088,1.4088,1.4082,1.4039,1.3913,1.3786,1.3659,1.344,1.3222,1.2662,1.2106,1.1585,1.1068,1.0852,1.0722,1.0419,1.0187,1.008,0.988,0.9645,0.9422,0.8993,0.8653,0.823,0.7906,0.7599,0.7488,0.745,0.7103,0.6756,0.6641,0.6528,0.6212,0.5938,0.5709,0.5321,0.4929,0.454,0.407,0.3679,0.3483,0.3052,0.2468,0.2156,0.2038,2.5684,2.5684,2.5684,2.5684,2.5684,2.5684,2.5684,2.5684,2.5684,2.5684,2.5684,2.5684,2.5684,2.5684,2.5684,2.5684,2.5684,2.5684,2.5684,2.5684,2.5635,2.5586,2.5645,2.5645,2.5489,2.5489,2.5538,2.5137,2.4538,2.4341,2.4183,2.3777,2.3329,2.3035,2.2871,2.2257,2.1357,2.057,2.0105,1.9497,1.8798,1.8635,1.8635,1.8643,1.8643,1.8635,1.8542,1.8172,1.7933,1.7849,1.7191,1.6804,1.6771,1.653,1.6262,1.5807,1.5386,1.4941,1.4905,1.4896,1.4838,1.4777,1.464,1.4496,1.4382,1.4242,1.4135,1.4088,1.4088,1.4088,1.4088,1.4088,1.4088,1.4088,1.4039,1.3997,1.3955,1.3828,1.3616,1.3525,1.296,1.2491,1.202,1.1843,1.1671,1.137,1.1128,1.1011,1.0852,1.063,1.0199,0.9771,0.9428,0.9032,0.8632,0.8289,0.8136,0.8063,0.7603,0.718,0.7065,0.6953,0.6679,0.6405,0.6254,0.6018,0.5589,0.5201,0.489,0.454,0.4226,0.3717,0.3132,0.2937,0.282,2.5684,2.5684,2.5684,2.5684,2.5684,2.5684,2.5684,2.5684,2.5684,2.5684,2.5684,2.5684,2.5684,2.5684,2.5684,2.5684,2.5684,2.5684,2.5684,2.5684,2.5684,2.5684,2.5684,2.5684,2.5684,2.5684,2.5684,2.5586,2.5186,2.499,2.4833,2.4529,2.4183,2.3976,2.3926,2.3467,2.2571,2.1652,2.0734,2.0104,1.9733,1.9654,1.9654,1.9654,1.9654,1.9646,1.9554,1.918,1.895,1.8773,1.8133,1.7628,1.7527,1.7225,1.6919,1.6825,1.6544,1.6029,1.5504,1.5432,1.5349,1.5174,1.5045,1.4821,1.4593,1.4422,1.4291,1.4095,1.4088,1.4088,1.4088,1.4088,1.4088,1.4088,1.4088,1.4088,1.4088,1.4046,1.3913,1.387,1.3779,1.3307,1.2881,1.2705,1.2448,1.2186,1.2009,1.1983,1.1788,1.1588,1.1072,1.0462,1.0133,0.9846,0.9425,0.9051,0.8899,0.8713,0.814,0.7795,0.7603,0.7411,0.7142,0.6907,0.671,0.6479,0.617,0.5822,0.5473,0.5162,0.489,0.4421,0.399,0.3834,0.3679,2.5684,2.5684,2.5684,2.5684,2.5684,2.5684,2.5684,2.5684,2.5684,2.5684,2.5684,2.5684,2.5684,2.5684,2.5684,2.5684,2.5684,2.5684,2.5684,2.5684,2.5684,2.5684,2.5684,2.5684,2.5684,2.5684,2.5684,2.5635,2.5586,2.5479,2.5284,2.5088,2.4833,2.4686,2.4637,2.4298,2.3615,2.2452,2.1285,2.0752,2.0654,2.0654,2.0654,2.0654,2.0654,2.0645,2.0564,2.0192,1.9957,1.9774,1.9042,1.8542,1.845,1.8071,1.7792,1.7701,1.7609,1.7368,1.6775,1.6425,1.6031,1.5777,1.5487,1.5346,1.4953,1.4791,1.4633,1.4383,1.4356,1.4267,1.4151,1.4088,1.4088,1.4088,1.4088,1.4088,1.4088,1.4082,1.4082,1.3997,1.3955,1.3955,1.361,1.3483,1.3222,1.296,1.2863,1.2851,1.2655,1.2357,1.1946,1.1296,1.1002,1.0755,1.0416,1.0051,0.9834,0.9413,0.8842,0.8484,0.8369,0.7949,0.7565,0.7369,0.7249,0.7019,0.6788,0.644,0.6054,0.5864,0.5592,0.5279,0.4927,0.4732,0.4499,2.5684,2.5684,2.5684,2.5684,2.5684,2.5684,2.5684,2.5684,2.5684,2.5684,2.5684,2.5684,2.5684,2.5684,2.5684,2.5684,2.5684,2.5684,2.5684,2.5684,2.5684,2.5684,2.5684,2.5684,2.5684,2.5684,2.5684,2.5684,2.5684,2.5635,2.5635,2.5586,2.5284,2.5235,2.5099,2.4779,2.4198,2.3158,2.2135,2.1616,2.1517,2.1553,2.1562,2.1553,2.1597,2.1597,2.1562,2.1141,2.0862,2.0817,2.0002,1.95,1.9363,1.9004,1.8727,1.8681,1.8681,1.8533,1.8278,1.762,1.7123,1.68,1.6391,1.5959,1.5672,1.5637,1.5388,1.4971,1.4916,1.4649,1.4385,1.4137,1.4276,1.4208,1.425,1.425,1.425,1.4208,1.4208,1.413,1.4082,1.4124,1.4082,1.3864,1.3701,1.3398,1.3343,1.3324,1.3172,1.2896,1.2663,1.224,1.1928,1.167,1.1435,1.1118,1.0714,1.0329,0.9828,0.9476,0.9213,0.8718,0.8144,0.7987,0.7863,0.7676,0.7442,0.7207,0.6976,0.6641,0.6293,0.5938,0.555,0.5237,0.5082,2.5684,2.5684,2.5684,2.5684,2.5684,2.5684,2.5684,2.5684,2.5684,2.5684,2.5684,2.5684,2.5684,2.5684,2.5684,2.5684,2.5684,2.5684,2.5684,2.5684,2.5684,2.5684,2.5684,2.5684,2.5684,2.5684,2.5684,2.5684,2.5684,2.5684,2.5684,2.5635,2.5577,2.5586,2.5392,2.5034,2.4421,2.3851,2.3005,2.2466,2.215,2.2132,2.2132,2.2132,2.2132,2.2132,2.2087,2.182,2.1731,2.1445,2.0862,2.0546,2.0365,1.9965,1.9745,1.97,1.97,1.97,1.9554,1.8812,1.8079,1.7652,1.7194,1.6728,1.6523,1.6442,1.6186,1.586,1.5644,1.543,1.4933,1.4771,1.4779,1.4572,1.451,1.4523,1.4496,1.4496,1.4489,1.4489,1.4405,1.4321,1.4237,1.4159,1.3997,1.387,1.3815,1.3782,1.3603,1.345,1.3184,1.296,1.2657,1.2425,1.2184,1.1883,1.154,1.1141,1.0747,1.0417,1.0062,0.937,0.887,0.8713,0.8556,0.836,0.8246,0.8089,0.7821,0.7369,0.6988,0.6641,0.6212,0.5822,0.5664,2.5684,2.5684,2.5684,2.5684,2.5684,2.5684,2.5684,2.5684,2.5684,2.5684,2.5684,2.5684,2.5684,2.5684,2.5684,2.5684,2.5684,2.5684,2.5684,2.5684,2.5684,2.5684,2.5684,2.5684,2.5684,2.5684,2.5684,2.5684,2.5684,2.5684,2.5684,2.5684,2.5684,2.5684,2.5538,2.5149,2.4676,2.4311,2.3688,2.3197,2.2828,2.2675,2.2608,2.2608,2.2618,2.2608,2.2574,2.2397,2.2309,2.2087,2.1722,2.141,2.1186,2.0961,2.0736,2.069,2.0699,2.0699,2.0428,1.9691,1.8912,1.8573,1.8071,1.7696,1.7529,1.7439,1.7251,1.6654,1.6536,1.6286,1.5741,1.5597,1.5454,1.5298,1.517,1.5156,1.5,1.4943,1.4943,1.4894,1.4776,1.4657,1.4573,1.4496,1.4243,1.4124,1.3997,1.3948,1.3902,1.3803,1.3682,1.3495,1.3236,1.3091,1.2886,1.2527,1.219,1.2062,1.1684,1.1325,1.0858,1.0177,0.9689,0.9576,0.9382,0.916,0.9046,0.8965,0.8546,0.8016,0.7638,0.7334,0.6834,0.6444,0.6286,2.5684,2.5684,2.5684,2.5684,2.5684,2.5684,2.5684,2.5684,2.5684,2.5684,2.5684,2.5684,2.5684,2.5684,2.5684,2.5684,2.5684,2.5684,2.5684,2.5684,2.5684,2.5684,2.5684,2.5684,2.5684,2.5684,2.5684,2.5684,2.5684,2.5684,2.5684,2.5684,2.5684,2.5684,2.5654,2.5312,2.5078,2.4922,2.4163,2.39,2.3553,2.3246,2.313,2.296,2.2969,2.296,2.2872,2.2794,2.2706,2.2618,2.2264,2.2043,2.1963,2.1731,2.1597,2.1597,2.1597,2.1597,2.1562,2.0329,1.9774,1.9546,1.9042,1.8772,1.8742,1.8664,1.8416,1.7763,1.765,1.7265,1.681,1.6485,1.6293,1.6116,1.6078,1.5952,1.5797,1.5671,1.5735,1.5555,1.5291,1.509,1.4999,1.4831,1.458,1.4334,1.4166,1.4124,1.4201,1.4168,1.4087,1.3936,1.3754,1.3584,1.339,1.3112,1.2862,1.2777,1.2547,1.2151,1.1717,1.1159,1.0757,1.0506,1.0212,0.9911,0.9879,0.9841,0.942,0.8965,0.8403,0.7987,0.7526,0.7142,0.6984,2.5684,2.5684,2.5684,2.5684,2.5684,2.5684,2.5684,2.5684,2.5684,2.5684,2.5684,2.5684,2.5684,2.5684,2.5684,2.5684,2.5684,2.5684,2.5684,2.5684,2.5684,2.5684,2.5684,2.5684,2.5684,2.5684,2.5684,2.5684,2.5684,2.5684,2.5684,2.5684,2.5684,2.5684,2.5664,2.5527,2.541,2.5098,2.4727,2.446,2.3867,2.3643,2.3428,2.314,2.312,2.3101,2.3101,2.3013,2.2969,2.2979,2.2637,2.2587,2.2552,2.2365,2.2232,2.2213,2.2195,2.2167,2.2087,2.1499,2.1051,2.0591,2.0093,1.9783,1.9791,1.9783,1.9464,1.9079,1.8907,1.8459,1.7903,1.7736,1.7565,1.7352,1.7212,1.7056,1.6908,1.6799,1.6687,1.6345,1.6046,1.5702,1.5494,1.5458,1.52,1.5033,1.4866,1.4615,1.4573,1.4531,1.4448,1.4315,1.4164,1.4073,1.3903,1.364,1.3466,1.3338,1.3158,1.2872,1.2447,1.2017,1.167,1.1333,1.1006,1.07,1.0631,1.0556,1.0363,0.9986,0.9425,0.8713,0.8063,0.7757,0.7599,2.5684,2.5684,2.5684,2.5684,2.5684,2.5684,2.5684,2.5684,2.5684,2.5684,2.5684,2.5684,2.5684,2.5684,2.5684,2.5684,2.5684,2.5684,2.5684,2.5684,2.5684,2.5684,2.5684,2.5684,2.5684,2.5684,2.5684,2.5684,2.5684,2.5684,2.5684,2.5684,2.5684,2.5684,2.5674,2.5615,2.5596,2.5312,2.5078,2.4822,2.4316,2.3975,2.3643,2.3418,2.3218,2.3101,2.3101,2.3101,2.311,2.3096,2.3139,2.3138,2.3079,2.314,2.3054,2.3092,2.2949,2.2843,2.2621,2.2407,2.1954,2.1678,2.1105,2.0835,2.0789,2.0789,2.051,2.0212,2.0102,1.9657,1.9142,1.8995,1.8848,1.863,1.8474,1.8319,1.8089,1.7983,1.7875,1.7504,1.7123,1.6666,1.6183,1.5978,1.5906,1.5775,1.5609,1.536,1.5075,1.4985,1.495,1.4776,1.465,1.4531,1.4399,1.4191,1.3992,1.3918,1.368,1.3477,1.3157,1.2715,1.2445,1.2138,1.1764,1.1432,1.1303,1.1186,1.0999,1.0775,1.0475,0.9647,0.8746,0.8446,0.8365,2.5684,2.5684,2.5684,2.5684,2.5684,2.5684,2.5684,2.5684,2.5684,2.5684,2.5684,2.5684,2.5684,2.5684,2.5684,2.5684,2.5684,2.5684,2.5684,2.5684,2.5684,2.5684,2.5684,2.5684,2.5684,2.5684,2.5684,2.5684,2.5684,2.5684,2.5684,2.5684,2.5684,2.5684,2.5684,2.5674,2.5635,2.5537,2.5361,2.5088,2.4746,2.4307,2.4014,2.3779,2.353,2.3335,2.3286,2.3286,2.3247,2.3325,2.353,2.3686,2.3881,2.4153,2.4336,2.4277,2.3919,2.3485,2.3169,2.2909,2.2759,2.2441,2.2087,2.183,2.1651,2.1597,2.132,2.1141,2.0952,2.069,2.0367,2.0253,2.0167,1.9987,1.9885,1.9652,1.9376,1.9264,1.9238,1.8973,1.8641,1.8158,1.7482,1.7187,1.7044,1.6873,1.6741,1.6448,1.6144,1.565,1.5533,1.5249,1.5124,1.4999,1.4831,1.4657,1.4503,1.4379,1.4205,1.3971,1.3693,1.3479,1.32,1.2883,1.2473,1.2164,1.192,1.175,1.1595,1.1372,1.1155,1.0513,0.9576,0.9354,0.9198,2.5684,2.5684,2.5684,2.5684,2.5684,2.5684,2.5684,2.5684,2.5684,2.5684,2.5684,2.5684,2.5684,2.5684,2.5684,2.5684,2.5684,2.5684,2.5684,2.5684,2.5684,2.5684,2.5684,2.5684,2.5684,2.5684,2.5684,2.5684,2.5684,2.5684,2.5684,2.5684,2.5684,2.5684,2.5684,2.5684,2.5684,2.5645,2.5557,2.5371,2.5166,2.4812,2.4482,2.4228,2.4007,2.3828,2.3682,2.3803,2.3783,2.3721,2.4023,2.4219,2.4258,2.4355,2.4414,2.4365,2.4043,2.3711,2.353,2.3232,2.3023,2.2979,2.275,2.253,2.2309,2.2167,2.2033,2.1856,2.1722,2.1463,2.1284,2.1141,2.1105,2.1016,2.0944,2.0791,2.0531,2.0494,2.0415,2.0143,1.9816,1.9385,1.8744,1.8507,1.8398,1.8187,1.7962,1.7656,1.7188,1.6688,1.6196,1.5955,1.579,1.5748,1.5333,1.5075,1.4992,1.4859,1.4692,1.4552,1.4386,1.4166,1.398,1.3659,1.3216,1.2788,1.2439,1.2284,1.2185,1.1968,1.1688,1.1123,1.0556,1.0304,0.9997,2.5684,2.5684,2.5684,2.5684,2.5684,2.5684,2.5684,2.5684,2.5684,2.5684,2.5684,2.5684,2.5684,2.5684,2.5684,2.5684,2.5684,2.5684,2.5684,2.5684,2.5684,2.5684,2.5684,2.5684,2.5684,2.5684,2.5684,2.5684,2.5684,2.5684,2.5684,2.5684,2.5684,2.5684,2.5684,2.5684,2.5684,2.5684,2.5635,2.5566,2.5391,2.5176,2.4893,2.4717,2.457,2.4287,2.4111,2.4365,2.4258,2.4141,2.4453,2.4658,2.4736,2.4824,2.4785,2.4756,2.4531,2.4131,2.3828,2.3574,2.3305,2.3149,2.3101,2.296,2.2784,2.2652,2.253,2.2353,2.2362,2.2274,2.2097,2.1954,2.1945,2.1935,2.188,2.1878,2.1757,2.1689,2.1444,2.1182,2.0848,2.0438,2.0098,1.9915,1.974,1.9536,1.9318,1.9144,1.8488,1.7768,1.718,1.6738,1.6615,1.6492,1.6072,1.5699,1.5582,1.545,1.5151,1.5054,1.4983,1.4856,1.4705,1.4354,1.3977,1.3547,1.3135,1.2924,1.2764,1.2541,1.2366,1.1992,1.1501,1.1059,1.0778,2.5684,2.5684,2.5684,2.5684,2.5684,2.5684,2.5684,2.5684,2.5684,2.5684,2.5684,2.5684,2.5684,2.5684,2.5684,2.5684,2.5684,2.5684,2.5684,2.5684,2.5684,2.5684,2.5684,2.5684,2.5684,2.5684,2.5684,2.5684,2.5684,2.5684,2.5684,2.5684,2.5684,2.5684,2.5684,2.5684,2.5684,2.5684,2.5684,2.5625,2.5605,2.5371,2.5165,2.5068,2.4824,2.4541,2.4502,2.4512,2.4465,2.4629,2.4834,2.5098,2.5234,2.5381,2.5342,2.5185,2.4971,2.4531,2.4082,2.3779,2.3486,2.3247,2.3101,2.3047,2.3003,2.296,2.2838,2.275,2.2715,2.2671,2.253,2.2432,2.2432,2.2432,2.2448,2.2429,2.2381,2.2305,2.2161,2.1976,2.1761,2.1398,2.1179,2.0957,2.0741,2.0701,2.0554,2.0407,1.9907,1.9023,1.8293,1.7727,1.7522,1.7351,1.6902,1.6566,1.6327,1.6079,1.5816,1.565,1.567,1.5576,1.5434,1.5083,1.4759,1.4314,1.3921,1.3694,1.341,1.3237,1.3047,1.2869,1.247,1.203,1.149,2.5684,2.5684,2.5684,2.5684,2.5684,2.5684,2.5684,2.5684,2.5684,2.5684,2.5684,2.5684,2.5684,2.5684,2.5684,2.5684,2.5684,2.5684,2.5684,2.5684,2.5684,2.5684,2.5684,2.5684,2.5684,2.5684,2.5684,2.5684,2.5684,2.5684,2.5684,2.5684,2.5684,2.5684,2.5684,2.5684,2.5684,2.5684,2.5684,2.5684,2.5635,2.5635,2.5566,2.5527,2.5304,2.5137,2.5127,2.5215,2.5117,2.5088,2.5381,2.5537,2.5547,2.5635,2.5684,2.5557,2.5254,2.4834,2.4394,2.4004,2.3652,2.3286,2.312,2.3101,2.3101,2.3101,2.3101,2.3057,2.3013,2.2969,2.2925,2.2872,2.2872,2.2872,2.2925,2.2925,2.2925,2.2828,2.2784,2.2692,2.2538,2.2358,2.2136,2.1954,2.1795,2.1654,2.1541,2.1372,2.1071,2.0384,1.9598,1.9029,1.8504,1.821,1.7757,1.7383,1.718,1.6943,1.6689,1.6558,1.6394,1.6355,1.6293,1.5915,1.5589,1.524,1.4831,1.4336,1.4066,1.3952,1.3744,1.3595,1.3466,1.309,1.2396,2.6072,2.6072,2.6072,2.5975,2.5917,2.5878,2.582,2.5732,2.5684,2.5684,2.5684,2.5684,2.5684,2.5684,2.5684,2.5684,2.5684,2.5684,2.5684,2.5684,2.5684,2.5684,2.5684,2.5684,2.5684,2.5684,2.5684,2.5684,2.5732,2.5684,2.5684,2.5732,2.5732,2.5732,2.5732,2.5732,2.5732,2.5684,2.5732,2.5732,2.5732,2.5684,2.5684,2.5684,2.5625,2.5537,2.5557,2.5625,2.5537,2.5449,2.5615,2.5674,2.5645,2.5674,2.5684,2.5625,2.5478,2.5176,2.4727,2.4297,2.3877,2.3574,2.3159,2.3149,2.3101,2.3101,2.3101,2.3057,2.3057,2.3013,2.3013,2.3003,2.3003,2.3003,2.3013,2.3013,2.3013,2.3003,2.296,2.2896,2.2814,2.2814,2.2654,2.2635,2.25,2.25,2.2361,2.2179,2.1891,2.1648,2.0906,2.0272,1.9747,1.9168,1.8634,1.8304,1.8023,1.7789,1.7587,1.7424,1.7294,1.7253,1.7179,1.6919,1.6661,1.6333,1.5881,1.5345,1.4984,1.489,1.4637,1.4385,1.4263,1.4187,1.3628,2.6592,2.6592,2.6592,2.6438,2.6235,2.6187,2.6052,2.583,2.583,2.583,2.583,2.583,2.5781,2.5732,2.5684,2.5684,2.5684,2.5684,2.5684,2.5684,2.5684,2.5684,2.5684,2.5684,2.5732,2.5781,2.5781,2.583,2.5917,2.5868,2.5868,2.5781,2.5781,2.583,2.583,2.583,2.5878,2.5927,2.5927,2.5878,2.5791,2.5742,2.5684,2.5684,2.5684,2.5684,2.5684,2.5684,2.5684,2.5674,2.5664,2.5674,2.5684,2.5684,2.5684,2.5654,2.5645,2.54,2.5049,2.4678,2.4287,2.3916,2.3496,2.3276,2.3276,2.3276,2.3286,2.3198,2.3198,2.311,2.311,2.3101,2.3101,2.3101,2.3101,2.3101,2.3101,2.3101,2.3091,2.3091,2.3091,2.3057,2.3101,2.3091,2.3091,2.3091,2.3013,2.2838,2.2609,2.2388,2.1915,2.1431,2.0999,2.0357,1.9611,1.9091,1.874,1.8634,1.8434,1.8273,1.8161,1.8144,1.8144,1.8086,1.7797,1.7399,1.7039,1.6573,1.6212,1.5853,1.5579,1.538,1.5265,1.513,1.4896,2.7088,2.7051,2.704,2.6945,2.6764,2.6764,2.6582,2.64,2.6352,2.6352,2.6362,2.6304,2.6159,2.5732,2.5684,2.5684,2.5684,2.5684,2.5684,2.5684,2.5732,2.5732,2.5781,2.5868,2.5868,2.5965,2.611,2.6159,2.6294,2.6342,2.6352,2.6352,2.6352,2.6352,2.6352,2.6352,2.6352,2.6352,2.6352,2.6352,2.6217,2.6072,2.5732,2.5684,2.5684,2.5684,2.5684,2.5684,2.5684,2.5684,2.5684,2.5684,2.5684,2.5684,2.5684,2.5684,2.5684,2.5537,2.5205,2.4971,2.4656,2.4355,2.4053,2.4014,2.4014,2.4033,2.3916,2.3633,2.3491,2.3218,2.3159,2.311,2.3101,2.3101,2.3101,2.3101,2.3101,2.3101,2.3091,2.3091,2.3091,2.3101,2.3101,2.3091,2.3091,2.3101,2.3101,2.2945,2.2925,2.2857,2.2779,2.2421,2.1993,2.1365,2.0554,1.9823,1.9442,1.9347,1.9192,1.8993,1.8904,1.9063,1.9024,1.8865,1.8705,1.8377,1.7994,1.7616,1.7325,1.6952,1.6619,1.6366,1.628,1.6163,1.5984]}]]